[[{"header":{"parameterUnit":"m.s-1","parameterCategory":1,"la1":30.6,"la2":28.766,"lo1":-90.7593,"lo2":-88.6598,"dy":0.0162,"dx":0.0183,"nx":116,"ny":114,"refTime":"2024-04-01T00:00:00:Z","depth":0,"parameterNumber":2,"parameterNumberName":"U-component_of_WINDS"},"data":[0.0,0.0,0.0,0.0,0.0,0.0,0.0,0.0,0.0,0.0,0.0,0.0,0.0,0.0,0.0,0.0,0.0,0.0,0.0,0.0,0.0,0.0,0.0,0.0,0.0,0.0,0.0,0.0,0.0,0.0,0.0,0.0,0.0,0.0,0.0,0.0,0.0,0.0,0.0,0.0,0.0,0.0,0.0,0.0,0.0,0.0,0.0,0.0,0.0,0.0,0.0,0.0,0.0,0.0,0.0,0.0,0.0,0.0,0.0,0.0,0.0,0.0,0.0,0.0,0.0,0.0,0.0,0.0,0.0,0.0,0.0,0.0,0.0,0.0,0.0,0.0,0.0,0.0,0.0,0.0,0.0,0.0,0.0,0.0,0.0,0.0,0.0,0.0,0.0,0.0,0.0,0.0,0.0,0.0,0.0,0.0,0.0,0.0,0.0,0.0,0.0,0.0,0.0,0.0,0.0,0.0,0.0,0.0,0.0,0.0,0.0,0.0,0.0,0.0,0.0,0.0,0.0,0.0,0.0,0.0,0.0,0.0,0.0,0.0,0.0,0.0,0.0,0.0,0.0,0.0,0.0,0.0,0.0,0.0,0.0,0.0,0.0,0.0,0.0,0.0,0.0,0.0,0.0,0.0,0.0,0.0,0.0,0.0,0.0,0.0,0.0,0.0,0.0,0.0,0.0,0.0,0.0,0.0,0.0,0.0,0.0,0.0,0.0,0.0,0.0,0.0,0.0,0.0,0.0,0.0,0.0,0.0,0.0,0.0,0.0,0.0,0.0,0.0,0.0,0.0,0.0,0.0,0.0,0.0,0.0,0.0,0.0,0.0,0.0,0.0,0.0,0.0,0.0,0.0,0.0,0.0,0.0,0.0,0.0,0.0,0.0,0.0,0.0,0.0,0.0,0.0,0.0,0.0,0.0,0.0,0.0,0.0,0.0,0.0,0.0,0.0,0.0,0.0,0.0,0.0,0.0,0.0,0.0,0.0,0.0,0.0,0.0,0.0,0.0,0.0,0.0,0.0,0.0,0.0,0.0,0.0,0.0,0.0,0.0,0.0,0.0,0.0,0.0,0.0,0.0,0.0,0.0,0.0,0.0,0.0,0.0,0.0,0.0,0.0,0.0,0.0,0.0,0.0,0.0,0.0,0.0,0.0,0.0,0.0,0.0,0.0,0.0,0.0,0.0,0.0,0.0,0.0,0.0,0.0,0.0,0.0,0.0,0.0,0.0,0.0,0.0,0.0,0.0,0.0,0.0,0.0,0.0,0.0,0.0,0.0,0.0,0.0,0.0,0.0,0.0,0.0,0.0,0.0,0.0,0.0,0.0,0.0,0.0,0.0,0.0,0.0,0.0,0.0,0.0,0.0,0.0,0.0,0.0,0.0,0.0,0.0,0.0,0.0,0.0,0.0,0.0,0.0,0.0,0.0,0.0,0.0,0.0,0.0,0.0,0.0,0.0,0.0,0.0,0.0,0.0,0.0,0.0,0.0,0.0,0.0,0.0,0.0,0.0,0.0,0.0,0.0,0.0,0.0,0.0,0.0,0.0,0.0,0.0,0.0,0.0,0.0,0.0,0.0,0.0,0.0,0.0,0.0,0.0,0.0,0.0,0.0,0.0,0.0,0.0,0.0,0.0,0.0,0.0,0.0,0.0,0.0,0.0,0.0,0.0,0.0,0.0,0.0,0.0,0.0,0.0,0.0,0.0,0.0,0.0,0.0,0.0,0.0,0.0,0.0,0.0,0.0,0.0,0.0,0.0,0.0,0.0,0.0,0.0,0.0,0.0,0.0,0.0,0.0,0.0,0.0,0.0,0.0,0.0,0.0,0.0,0.0,0.0,0.0,0.0,0.0,0.0,0.0,0.0,0.0,0.0,0.0,0.0,0.0,0.0,0.0,0.0,0.0,0.0,0.0,0.0,0.0,0.0,0.0,0.0,0.0,0.0,0.0,0.0,0.0,0.0,0.0,0.0,0.0,0.0,0.0,0.0,0.0,0.0,0.0,0.0,0.0,0.0,0.0,0.0,0.0,0.0,0.0,0.0,0.0,0.0,0.0,0.0,0.0,0.0,0.0,0.0,0.0,0.0,0.0,0.0,0.0,0.0,0.0,0.0,0.0,0.0,0.0,0.0,0.0,0.0,0.0,0.0,0.0,0.0,0.0,0.0,0.0,0.0,0.0,0.0,0.0,0.0,0.0,0.0,0.0,0.0,0.0,0.0,0.0,0.0,0.0,0.0,0.0,0.0,0.0,0.0,0.0,0.0,0.0,0.0,0.0,0.0,0.0,0.0,0.0,0.0,0.0,0.0,0.0,0.0,0.0,0.0,0.0,0.0,0.0,0.0,0.0,0.0,0.0,0.0,0.0,0.0,0.0,0.0,0.0,0.0,0.0,0.0,0.0,0.0,0.0,0.0,0.0,0.0,0.0,0.0,0.0,0.0,0.0,0.0,0.0,0.0,0.0,0.0,0.0,0.0,0.0,0.0,0.0,0.0,0.0,0.0,0.0,0.0,0.0,0.0,0.0,0.0,0.0,0.0,0.0,0.0,0.0,0.0,0.0,0.0,0.0,0.0,0.0,0.0,0.0,0.0,0.0,0.0,0.0,0.0,0.0,0.0,0.0,0.0,0.0,0.0,0.0,0.0,0.0,0.0,0.0,0.0,0.0,0.0,0.0,0.0,0.0,0.0,0.0,0.0,0.0,0.0,0.0,0.0,0.0,0.0,0.0,0.0,0.0,0.0,0.0,0.0,0.0,0.0,0.0,0.0,0.0,0.0,0.0,0.0,0.0,0.0,0.0,0.0,0.0,0.0,0.0,0.0,0.0,0.0,0.0,0.0,0.0,0.0,0.0,0.0,0.0,0.0,0.0,0.0,0.0,0.0,0.0,0.0,0.0,0.0,0.0,0.0,0.0,0.0,0.0,0.0,0.0,0.0,0.0,0.0,0.0,0.0,0.0,0.0,0.0,0.0,0.0,0.0,0.0,0.0,0.0,0.0,0.0,0.0,0.0,0.0,0.0,0.0,0.0,0.0,0.0,0.0,0.0,0.0,0.0,0.0,0.0,0.0,0.0,0.0,0.0,0.0,0.0,0.0,0.0,0.0,0.0,0.0,0.0,0.0,0.0,0.0,0.0,0.0,0.0,0.0,0.0,0.0,0.0,0.0,0.0,0.0,0.0,0.0,0.0,0.0,0.0,0.0,0.0,0.0,0.0,0.0,0.0,0.0,0.0,0.0,0.0,0.0,0.0,0.0,0.0,0.0,0.0,0.0,0.0,0.0,0.0,0.0,0.0,0.0,0.0,0.0,0.0,0.0,0.0,0.0,0.0,0.0,0.0,0.0,0.0,0.0,0.0,0.0,0.0,0.0,0.0,0.0,0.0,0.0,0.0,0.0,0.0,0.0,0.0,0.0,0.0,0.0,0.0,0.0,0.0,0.0,0.0,0.0,0.0,0.0,0.0,0.0,0.0,0.0,0.0,0.0,0.0,0.0,0.0,0.0,0.0,0.0,0.0,0.0,0.0,0.0,0.0,0.0,0.0,0.0,0.0,0.0,0.0,0.0,0.0,0.0,0.0,0.0,0.0,0.0,0.0,0.0,0.0,0.0,0.0,0.0,0.0,0.0,0.0,0.0,0.0,0.0,0.0,0.0,0.0,0.0,0.0,0.0,0.0,0.0,0.0,0.0,0.0,0.0,0.0,0.0,0.0,0.0,0.0,0.0,0.0,0.0,0.0,0.0,0.0,0.0,0.0,0.0,0.0,0.0,0.0,0.0,0.0,0.0,0.0,0.0,0.0,0.0,0.0,0.0,0.0,0.0,0.0,0.0,0.0,0.0,0.0,0.0,0.0,0.0,0.0,0.0,0.0,0.0,0.0,0.0,0.0,0.0,0.0,0.0,0.0,0.0,0.0,0.0,0.0,0.0,0.0,0.0,0.0,0.0,0.0,0.0,0.0,0.0,0.0,0.0,0.0,0.0,0.0,0.0,0.0,0.0,0.0,0.0,0.0,0.0,0.0,0.0,0.0,0.0,0.0,0.0,0.0,0.0,0.0,0.0,0.0,0.0,0.0,0.0,0.0,0.0,0.0,0.0,0.0,0.0,0.0,0.0,0.0,0.0,0.0,0.0,0.0,0.0,0.0,0.0,0.0,0.0,0.0,0.0,0.0,0.0,0.0,0.0,0.0,0.0,0.0,0.0,0.0,0.0,0.0,0.0,0.0,0.0,0.0,0.0,0.0,0.0,0.0,0.0,0.0,0.0,0.0,0.0,0.0,0.0,0.0,0.0,0.0,0.0,0.0,0.0,0.0,0.0,0.0,0.0,0.0,0.0,0.0,0.0,0.0,0.0,0.0,0.0,0.0,0.0,0.0,0.0,0.0,0.0,0.0,0.0,0.0,0.0,0.0,0.0,0.0,0.0,0.0,0.0,0.0,0.0,0.0,0.0,0.0,0.0,0.0,0.0,0.0,0.0,0.0,0.0,0.0,0.0,0.0,0.0,0.0,0.0,0.0,0.0,0.0,0.0,0.0,0.0,0.0,0.0,0.0,0.0,0.0,0.0,0.0,0.0,0.0,0.0,0.0,0.0,0.0,0.0,0.0,0.0,0.0,0.0,0.0,0.0,0.0,0.0,0.0,0.0,0.0,0.0,0.0,0.0,0.0,0.0,0.0,0.0,0.0,0.0,0.0,0.0,0.0,0.0,0.0,0.0,0.0,0.0,0.0,0.0,0.0,0.0,0.0,0.0,0.0,0.0,0.0,0.0,0.0,0.0,0.0,0.0,0.0,0.0,0.0,0.0,0.0,0.0,0.0,0.0,0.0,0.0,0.0,0.0,0.0,0.0,0.0,0.0,0.0,0.0,0.0,0.0,0.0,0.0,0.0,0.0,0.0,0.0,0.0,0.0,0.0,0.0,0.0,0.0,0.0,0.0,0.0,0.0,0.0,0.0,0.0,0.0,0.0,0.0,0.0,0.0,0.0,0.0,0.0,0.0,0.0,0.0,0.0,0.0,0.0,0.0,0.0,0.0,0.0,0.0,0.0,0.0,0.0,0.0,0.0,0.0,0.0,0.0,0.0,0.0,0.0,0.0,0.0,0.0,0.0,0.0,0.0,0.0,0.0,0.0,0.0,0.0,0.0,0.0,0.0,0.0,0.0,0.0,0.0,0.0,0.0,0.0,0.0,0.0,0.0,0.0,0.0,0.0,0.0,0.0,0.0,0.0,0.0,0.0,0.0,0.0,0.0,0.0,0.0,0.0,0.0,0.0,0.0,0.0,0.0,0.0,0.0,0.0,0.0,0.0,0.0,0.0,0.0,0.0,0.0,0.0,0.0,0.0,0.0,0.0,0.0,0.0,0.0,0.0,0.0,0.0,0.0,0.0,0.0,0.0,0.0,0.0,0.0,0.0,0.0,0.0,0.0,0.0,0.0,0.0,0.0,0.0,0.0,0.0,0.0,0.0,0.0,0.0,0.0,0.0,0.0,0.0,0.0,0.0,0.0,0.0,0.0,0.0,0.0,0.0,0.0,0.0,0.0,0.0,0.0,0.0,0.0,0.0,0.0,0.0,0.0,0.0,0.0,0.0,0.0,0.0,0.0,0.0,0.0,0.0,0.0,0.0,0.0,0.0,0.0,0.0,0.0,0.0,0.0,0.0,0.0,0.0,0.0,0.0,0.0,0.0,0.0,0.0,0.0,0.0,0.0,0.0,0.0,0.0,0.0,0.0,0.0,0.0,0.0,0.0,0.0,0.0,0.0,0.0,0.0,0.0,0.0,0.0,0.0,0.0,0.0,0.0,0.0,0.0,0.0,0.0,0.0,0.0,0.0,0.0,0.0,0.0,0.0,0.0,0.0,0.0,0.0,0.0,0.0,0.0,0.0,0.0,0.0,0.0,0.0,0.0,0.0,0.0,0.0,0.0,0.0,0.0,0.0,0.0,0.0,0.0,0.0,0.0,0.0,0.0,0.0,0.0,0.0,0.0,0.0,0.0,0.0,0.0,0.0,0.0,0.0,0.0,0.0,0.0,0.0,0.0,0.0,0.0,0.0,0.0,0.0,0.0,0.0,0.0,0.0,0.0,0.0,0.0,0.0,-5.3805,-5.388,0.0,0.0,0.0,0.0,0.0,0.0,0.0,0.0,0.0,0.0,0.0,0.0,0.0,0.0,0.0,0.0,0.0,0.0,0.0,0.0,0.0,0.0,0.0,-4.103,-4.2874,-4.4352,-4.511,-4.538,-4.5128,0.0,0.0,0.0,0.0,0.0,-4.4907,-4.5105,-4.557,-4.6264,-4.6396,-4.6691,-4.7021,-4.6214,-4.4966,-4.3461,0.0,0.0,0.0,0.0,0.0,0.0,0.0,0.0,0.0,0.0,0.0,0.0,0.0,0.0,0.0,0.0,0.0,0.0,0.0,0.0,0.0,0.0,0.0,0.0,0.0,0.0,0.0,0.0,0.0,0.0,0.0,0.0,0.0,0.0,0.0,0.0,0.0,0.0,0.0,0.0,0.0,0.0,0.0,0.0,0.0,0.0,0.0,0.0,0.0,0.0,0.0,0.0,0.0,0.0,0.0,0.0,0.0,0.0,0.0,0.0,0.0,0.0,0.0,0.0,0.0,0.0,0.0,0.0,0.0,0.0,-5.5257,-5.4929,0.0,0.0,0.0,0.0,0.0,0.0,0.0,0.0,0.0,0.0,0.0,0.0,0.0,0.0,0.0,0.0,0.0,0.0,0.0,0.0,0.0,-3.6536,-3.913,-4.1482,-4.3494,-4.5098,-4.6199,-4.6549,-4.594,-4.5771,0.0,0.0,-4.5018,-4.5137,-4.5905,-4.5915,-4.6412,-4.7402,-4.7772,-4.836,-4.915,-4.915,-4.8086,-4.6159,-4.5572,0.0,0.0,0.0,0.0,0.0,0.0,0.0,0.0,0.0,0.0,0.0,0.0,0.0,0.0,0.0,0.0,0.0,0.0,0.0,0.0,0.0,0.0,0.0,0.0,0.0,0.0,0.0,0.0,0.0,0.0,0.0,0.0,0.0,0.0,0.0,0.0,0.0,0.0,0.0,0.0,0.0,0.0,0.0,0.0,0.0,0.0,0.0,0.0,0.0,0.0,0.0,0.0,0.0,0.0,0.0,0.0,0.0,0.0,0.0,0.0,0.0,0.0,0.0,-5.8125,-5.8515,-5.9219,-5.9219,-5.9218,-5.9061,-5.6854,-5.6289,-5.6943,-5.6737,0.0,0.0,0.0,0.0,0.0,0.0,0.0,0.0,0.0,0.0,0.0,0.0,0.0,0.0,0.0,0.0,0.0,0.0,0.0,-3.7672,-3.9682,-4.229,-4.4294,-4.5278,-4.6229,-4.6752,-4.665,-4.6075,-4.5835,-4.6117,-4.5814,-4.5968,-4.6725,-4.7847,-4.8629,-4.9102,-5.0615,-5.1756,-5.2543,-5.2543,-5.236,-5.1956,-4.9114,-4.6948,-4.5369,0.0,0.0,0.0,0.0,0.0,0.0,0.0,0.0,0.0,0.0,0.0,0.0,0.0,0.0,0.0,0.0,0.0,0.0,0.0,0.0,0.0,0.0,0.0,0.0,0.0,0.0,0.0,0.0,0.0,0.0,0.0,0.0,0.0,0.0,0.0,0.0,0.0,0.0,0.0,0.0,0.0,-5.6458,-5.6493,0.0,0.0,0.0,0.0,0.0,0.0,0.0,0.0,0.0,0.0,0.0,0.0,0.0,-5.8086,-5.8867,-5.8867,-5.8906,-5.9023,-5.9023,-5.9101,-5.9219,-5.9219,-5.9219,-5.918,-5.8827,0.0,-5.8687,-5.7943,0.0,0.0,0.0,0.0,0.0,0.0,0.0,0.0,0.0,0.0,0.0,0.0,0.0,0.0,0.0,0.0,0.0,0.0,0.0,0.0,0.0,-4.356,-4.5984,-4.7221,-4.8115,-4.8477,-4.8071,-4.7043,-4.6425,-4.6426,-4.616,-4.6599,-4.7774,-4.8591,-4.9825,-5.1527,-5.368,-5.4876,-5.5244,-5.5244,-5.5244,-5.5133,-5.3261,-5.1022,-4.86,-4.7792,0.0,0.0,0.0,0.0,0.0,0.0,0.0,0.0,0.0,0.0,0.0,0.0,0.0,0.0,0.0,0.0,0.0,0.0,0.0,0.0,0.0,0.0,0.0,0.0,0.0,0.0,0.0,0.0,0.0,0.0,0.0,0.0,0.0,0.0,0.0,0.0,0.0,0.0,0.0,-5.6497,-5.6543,-5.6554,-5.6599,-5.6601,0.0,0.0,0.0,0.0,0.0,0.0,0.0,0.0,0.0,-5.8633,-5.9062,-5.9492,-5.9883,-6.0351,-6.0859,-6.1328,-6.1328,-6.1601,-6.207,-6.207,-6.1797,-6.1328,-6.1328,-6.1054,-6.0465,-5.9137,-5.8082,-5.7182,0.0,0.0,0.0,0.0,-5.4291,-5.4643,0.0,0.0,0.0,0.0,0.0,0.0,0.0,0.0,0.0,0.0,0.0,0.0,-4.1811,-4.5143,-4.775,-4.9032,-4.9902,-5.0067,-4.9323,-4.8222,-4.7426,-4.7148,-4.6907,-4.7428,-4.8825,-4.993,-5.1782,-5.4436,-5.6455,-5.7519,-5.774,-5.774,-5.774,-5.7703,-5.7079,-5.4913,-5.1646,-5.0639,-4.8416,-4.548,0.0,0.0,0.0,0.0,0.0,0.0,0.0,0.0,0.0,0.0,0.0,0.0,0.0,0.0,0.0,0.0,0.0,0.0,0.0,0.0,0.0,0.0,0.0,0.0,0.0,0.0,0.0,0.0,0.0,0.0,0.0,0.0,0.0,0.0,0.0,0.0,0.0,-5.674,-5.6948,-5.6912,-5.7148,-5.7265,0.0,0.0,0.0,0.0,0.0,0.0,-5.8515,-5.914,-5.9726,-6.0156,-6.0742,-6.1172,-6.1406,-6.2031,-6.2695,-6.332,-6.332,-6.3672,-6.4297,-6.4297,-6.3828,-6.3008,-6.3008,-6.25,-6.1601,-6.0117,-5.9101,-5.8437,-5.7617,-5.6875,-5.6211,-5.5586,-5.5742,-5.6211,0.0,0.0,0.0,0.0,0.0,0.0,0.0,0.0,0.0,0.0,0.0,-4.1906,-4.4354,-4.7167,-4.9187,-4.9965,-5.0744,-5.0845,-5.0067,-4.9477,-4.9056,-4.8896,-4.8557,-4.8834,-4.9803,-5.2667,-5.5295,-5.774,-5.8657,-5.9478,-6.0236,-6.0236,-6.0236,-6.0236,-6.0199,-5.796,-5.4106,-5.2527,-5.0398,-4.7902,-4.5535,0.0,0.0,0.0,0.0,0.0,0.0,0.0,0.0,0.0,0.0,0.0,0.0,0.0,0.0,0.0,0.0,0.0,0.0,0.0,0.0,0.0,0.0,0.0,0.0,0.0,0.0,0.0,0.0,0.0,0.0,0.0,0.0,0.0,0.0,0.0,0.0,0.0,0.0,-5.7812,-5.8555,0.0,0.0,0.0,0.0,-5.9062,-5.9101,-5.9453,-6.0234,-6.0312,-6.1094,-6.2773,-6.2851,-6.3281,-6.4101,-6.414,-6.418,-6.4219,-6.4219,-6.4258,-6.4297,-6.4297,-6.3828,-6.3008,-6.3008,-6.25,-6.164,-6.0703,-6.0312,-6.0195,-5.9375,-5.9023,-5.8984,-5.8945,-5.8984,-5.8984,0.0,0.0,0.0,0.0,0.0,-3.1749,-3.2585,-3.3874,-3.5389,-3.7109,-4.0324,-4.3257,-4.5402,-4.8471,-5.071,-5.1454,-5.2232,-5.2164,-5.0913,-5.0001,-4.9365,-4.9028,-4.952,-5.0928,-5.3394,-5.5587,-5.7373,-5.8767,-6.0089,-6.0896,-6.1153,-6.1153,-6.1153,-6.1153,-6.0639,-5.9612,-5.8107,-5.5978,-5.3371,-5.0508,-4.86,-4.6544,0.0,0.0,0.0,0.0,0.0,0.0,0.0,0.0,0.0,0.0,0.0,0.0,0.0,0.0,0.0,0.0,0.0,0.0,0.0,0.0,0.0,0.0,0.0,0.0,0.0,0.0,0.0,0.0,0.0,0.0,0.0,0.0,0.0,0.0,0.0,0.0,0.0,-5.8672,-5.9023,0.0,-5.9219,-5.9219,-5.9414,-5.9922,-6.0508,-6.1172,-6.2031,-6.2617,-6.3203,-6.3828,-6.4375,-6.4805,-6.5117,-6.5703,-6.5976,-6.5976,-6.5976,-6.5976,-6.5976,-6.5976,-6.5195,-6.3828,-6.3828,-6.3008,-6.168,-6.1367,-6.0898,-6.0351,-6.0078,-5.9648,-5.9219,-5.9219,-5.9531,-5.9883,0.0,0.0,0.0,0.0,-3.1511,-3.1868,-3.2975,-3.4454,-3.6256,-3.8301,-4.1678,-4.477,-4.6993,-5.005,-5.2266,-5.301,-5.3551,-5.3247,-5.1756,-5.0909,-5.0326,-5.0015,-5.1556,-5.3604,-5.6164,-5.7927,-5.9208,-6.0015,-6.1337,-6.1998,-6.1998,-6.1998,-6.1998,-6.1998,-6.1447,-6.108,-6.0713,-5.9098,-5.6565,-5.3482,-5.1867,-4.9738,-4.7388,0.0,0.0,0.0,0.0,0.0,0.0,0.0,0.0,0.0,0.0,0.0,0.0,0.0,0.0,0.0,0.0,0.0,0.0,0.0,0.0,0.0,0.0,0.0,0.0,0.0,0.0,0.0,0.0,0.0,0.0,0.0,0.0,0.0,0.0,-5.8164,-5.875,-5.9922,-6.0312,-6.0586,-6.0898,-6.0937,-6.1133,-6.168,-6.2265,-6.2969,-6.3828,-6.4414,-6.4883,-6.5156,-6.5742,-6.6055,-6.6055,-6.6601,-6.6914,-6.6914,-6.6914,-6.6914,-6.6914,-6.6914,-6.5937,-6.4297,-6.4297,-6.332,-6.1719,-6.1719,-6.1367,-6.0859,-6.0859,-6.0508,-6.0039,-6.0039,-6.039,-6.0664,0.0,0.0,0.0,-3.1511,-3.1511,-3.2018,-3.3578,-3.4789,-3.6753,-4.0167,-4.3427,-4.6451,-4.9126,-5.19,-5.3822,-5.4499,-5.46,-5.4025,-5.2665,-5.2167,-5.1993,-5.2094,-5.4763,-5.6769,-5.7883,-5.9577,-6.0823,-6.163,-6.2438,-6.278,-6.278,-6.278,-6.278,-6.278,-6.278,-6.2365,-6.163,-6.163,-5.9832,-5.6822,-5.5207,-5.3115,-5.0765,0.0,0.0,0.0,0.0,0.0,0.0,0.0,0.0,0.0,0.0,0.0,0.0,0.0,0.0,0.0,0.0,0.0,0.0,0.0,0.0,0.0,0.0,0.0,0.0,0.0,0.0,0.0,0.0,0.0,0.0,0.0,0.0,0.0,-5.7927,-5.871,-5.9883,-6.1523,-6.25,-6.3359,-6.4219,-6.4297,-6.4297,-6.4336,-6.4336,-6.4726,-6.5586,-6.5625,-6.6015,-6.6875,-6.6914,-6.6914,-6.6914,-6.6914,-6.6914,-6.6914,-6.6914,-6.6914,-6.6914,-6.6914,-6.5937,-6.4297,-6.4297,-6.332,-6.1719,-6.1719,-6.1719,-6.1719,-6.1719,-6.1719,-6.1719,-6.1719,-6.168,-6.1406,0.0,0.0,-3.1511,-3.1511,-3.1511,-3.2076,-3.3698,-3.5369,-3.7528,-4.0545,-4.4072,-4.714,-4.9323,-5.2404,-5.416,-5.3822,-5.4769,-5.4364,-5.1949,-5.1984,-5.2887,-5.4535,-5.6208,-5.8166,-6.0518,-6.1019,-6.1667,-6.2475,-6.2695,-6.278,-6.278,-6.278,-6.278,-6.278,-6.278,-6.2695,-6.2475,-6.2475,-6.163,-6.0126,-5.8547,-5.6418,-5.4179,0.0,0.0,0.0,0.0,0.0,0.0,0.0,0.0,0.0,0.0,0.0,0.0,0.0,0.0,0.0,0.0,0.0,0.0,0.0,0.0,0.0,0.0,0.0,0.0,0.0,0.0,0.0,0.0,0.0,0.0,0.0,-5.6548,-5.8082,-5.875,-6.0117,-6.1406,-6.25,-6.3398,-6.4023,-6.4297,-6.4297,-6.457,-6.5195,-6.5234,-6.5625,-6.6484,-6.6523,-6.664,-6.6875,-6.6914,-6.6914,-6.6914,-6.6914,-6.6914,-6.6914,-6.6914,-6.6914,-6.6914,-6.6914,-6.5937,-6.4297,-6.4297,-6.332,-6.1719,-6.1719,-6.1719,-6.1719,-6.1719,-6.1719,-6.1719,-6.1719,-6.1289,-6.0508,0.0,-3.1511,-3.1511,-3.1511,-3.172,-3.2376,-3.3788,-3.583,-3.8278,-4.1181,-4.482,-4.7901,-4.9856,-5.2809,-5.4431,-5.3991,-5.4735,-5.4466,-5.2658,-5.3298,-5.4472,-5.6021,-5.7953,-5.9809,-6.1557,-6.2291,-6.2879,-6.3356,-6.3356,-6.3356,-6.3356,-6.2989,-6.278,-6.278,-6.278,-6.278,-6.278,-6.278,-6.2548,-6.2034,-6.1056,-5.9281,-5.7042,-5.6602,-5.5427,-5.3907,-5.3035,-5.2112,-5.1287,-5.1211,0.0,0.0,0.0,0.0,0.0,0.0,0.0,0.0,0.0,0.0,0.0,0.0,0.0,0.0,0.0,0.0,0.0,0.0,0.0,0.0,0.0,0.0,0.0,0.0,-5.7257,-5.8866,-6.0078,-6.1094,-6.2305,-6.3906,-6.4531,-6.5,-6.5351,-6.539,-6.5586,-6.6094,-6.6133,-6.6367,-6.6875,-6.6914,-6.6914,-6.6914,-6.6914,-6.6914,-6.6914,-6.6914,-6.6914,-6.6914,-6.6914,-6.6914,-6.6914,-6.6914,-6.5937,-6.4297,-6.4297,-6.332,-6.1719,-6.1719,-6.1719,-6.1719,0.0,0.0,0.0,0.0,-6.0625,-5.9726,-3.1511,-3.1511,-3.154,-3.16,-3.2138,-3.2916,-3.397,-3.6261,-3.8968,-4.1885,-4.544,-4.8497,-5.0392,-5.2842,-5.4296,-5.4228,-5.4363,-5.4364,-5.4049,-5.5194,-5.6253,-5.7162,-5.9854,-6.1514,-6.1998,-6.3466,-6.4237,-6.4237,-6.4237,-6.4237,-6.42,-6.3429,-6.3,-6.2952,-6.2952,-6.289,-6.278,-6.278,-6.278,-6.278,-6.278,-6.1459,-5.9478,-5.9478,-5.8524,-5.7189,-5.7169,-5.6387,-5.5343,-5.5548,0.0,0.0,0.0,0.0,0.0,0.0,0.0,0.0,0.0,0.0,0.0,0.0,0.0,0.0,0.0,0.0,0.0,0.0,0.0,0.0,0.0,0.0,0.0,0.0,-5.8314,-6.0038,-6.1601,-6.2031,-6.3008,-6.5312,-6.5703,-6.6094,-6.6953,-6.7031,-6.7109,-6.7187,-6.7109,-6.7031,-6.7031,-6.6953,0.0,0.0,0.0,-6.6914,-6.6914,-6.6914,-6.6914,-6.6914,-6.6914,-6.6914,-6.6914,-6.6914,-6.5937,-6.4297,-6.4297,-6.332,-6.1719,-6.1719,-6.1719,-6.1719,-6.1719,-6.1719,-6.1601,-6.0703,-5.9883,-5.9062,-3.16,-3.1511,-3.166,-3.2198,-3.2556,-3.3275,-3.4729,-3.6938,-3.9464,-4.223,-4.5365,-4.8023,-4.9851,-5.1661,-5.2503,-5.1928,-5.301,-5.3921,-5.437,-5.5104,-5.6766,-5.9573,-6.119,-6.2824,-6.4541,-6.4897,-6.5081,-6.5081,-6.5081,-6.5081,-6.5081,-6.4897,-6.4457,-6.3833,-6.3833,-6.3466,-6.278,-6.278,-6.278,-6.278,-6.278,-6.2144,-6.1153,-6.1153,-6.0529,-5.9612,-5.8988,-5.8662,-5.8364,-5.7336,-5.65,-5.5806,-5.5595,-5.4459,0.0,0.0,0.0,0.0,0.0,0.0,0.0,0.0,0.0,0.0,0.0,0.0,0.0,0.0,0.0,0.0,0.0,0.0,0.0,-5.8392,-6.0116,-6.1562,-6.2617,-6.3945,-6.5039,-6.5547,-6.6211,-6.6992,-6.7851,-6.7969,-6.8242,-6.8945,-6.8359,-6.7969,-6.7969,-6.7265,-6.6914,-6.6914,-6.6914,-6.6914,-6.6914,-6.6914,-6.6914,-6.6914,-6.6914,0.0,-6.6914,-6.6914,-6.5937,-6.4297,-6.4297,-6.332,-6.1719,-6.1719,-6.1719,-6.1719,-6.1719,-6.1719,-6.1601,-6.0703,-5.9883,-5.9062,-3.2527,-3.2527,-3.2646,-3.3066,-3.3578,-3.4243,-3.5307,-3.7556,-3.9966,-4.2026,-4.516,-4.7751,-4.9175,-5.0782,-5.1623,-5.1219,-5.267,-5.402,-5.498,-5.6749,-5.8697,-6.0868,-6.2512,-6.3974,-6.5275,-6.5705,-6.5888,-6.5888,-6.5888,-6.5888,-6.5888,-6.5485,-6.5081,-6.4677,-6.4273,-6.387,-6.3429,-6.2989,-6.278,-6.278,-6.278,-6.2585,-6.2218,-6.2218,-6.1961,-6.1557,-6.1129,-6.0822,-6.0448,-5.9486,-5.8862,-5.8371,-5.7564,-5.6692,-5.5823,0.0,0.0,0.0,0.0,0.0,0.0,0.0,0.0,0.0,0.0,0.0,0.0,0.0,0.0,-5.539,-5.6801,0.0,-5.8375,-6.015,-6.1132,-6.2305,-6.4062,-6.5039,-6.5742,-6.6211,-6.7031,-6.7734,-6.8164,-6.8555,-6.8984,-6.9414,-6.9062,-6.8633,-6.8203,-6.7773,-6.7344,-6.6914,-6.6914,-6.6914,-6.6914,-6.6914,-6.6914,-6.6914,-6.6914,-6.6914,-6.6914,-6.6914,-6.5937,-6.4297,-6.4297,-6.332,-6.1719,-6.1719,-6.1719,-6.1719,-6.1719,-6.1719,-6.1601,-6.0703,-6.0156,-5.9609,-3.3815,-3.3935,-3.3936,-3.3969,-3.4607,-3.5278,-3.5916,-3.8142,-4.0307,-4.1844,-4.4718,-4.7077,-4.8262,-4.9567,-5.0473,-5.0777,-5.2295,-5.3949,-5.5671,-5.843,-6.0622,-6.2018,-6.3832,-6.5113,-6.5726,-6.6376,-6.6733,-6.6733,-6.6733,-6.6733,-6.6733,-6.6072,-6.5705,-6.5521,-6.4861,-6.4457,-6.4273,-6.3429,-6.3062,-6.3062,-6.2879,-6.278,-6.278,-6.278,-6.278,-6.278,-6.2622,-6.2194,-6.164,-6.089,-6.0428,-6.0017,-5.8907,-5.824,-5.763,-5.6459,-5.5514,0.0,0.0,0.0,0.0,0.0,0.0,0.0,0.0,-5.3976,-5.4303,-5.5251,-5.6148,-5.7106,-5.8242,-5.9066,-6.0167,-6.1904,-6.2342,-6.3203,-6.5312,-6.5742,-6.6094,-6.6836,-6.7656,-6.832,-6.8633,-6.9258,-6.9726,-6.9883,-6.9609,-6.9101,-6.8476,-6.8125,-6.7617,-6.6914,-6.6914,-6.6914,-6.6914,-6.6914,-6.6914,-6.6914,-6.6914,-6.6914,-6.6914,-6.6914,-6.5937,-6.4297,-6.3945,-6.3008,-6.1719,-6.1719,-6.1719,-6.1719,-6.1719,-6.1719,-6.1601,-6.0898,-6.0547,-6.0195,0.0,-3.5477,-3.5296,-3.4693,-3.5064,-3.5797,-3.687,-3.8491,-4.0344,-4.2245,-4.3772,-4.5264,-4.6857,-4.7192,-4.78,-4.912,-5.0608,-5.2867,-5.6195,-5.8415,-6.1014,-6.405,-6.5039,-6.603,-6.7241,-6.745,-6.7577,-6.7577,-6.7577,-6.7577,-6.754,-6.7467,-6.7026,-6.6366,-6.6256,-6.5815,-6.5118,-6.431,-6.3943,-6.387,-6.3135,-6.278,-6.278,-6.278,-6.278,-6.2732,-6.1998,-6.1692,-6.1422,-6.002,-5.976,-5.9843,-5.9213,-5.8771,-5.8508,-5.8573,-5.7634,-5.634,-5.5543,-5.4842,-5.4357,-5.4357,-5.4895,-5.5626,0.0,-5.6641,-5.6935,-5.7892,-5.8256,-5.8972,-6.0731,-6.1215,-6.1928,-6.3705,-6.4648,-6.5273,-6.5547,-6.6289,-6.6797,-6.6875,-6.7656,-6.8789,-7.0273,-7.0508,-7.0898,-7.164,-7.0273,-6.9375,-6.9258,-6.7851,-6.6992,-6.6914,-6.6914,-6.6914,-6.6914,-6.6914,-6.6914,-6.6914,-6.6914,-6.6914,-6.6914,-6.6914,-6.5937,-6.4219,-6.2656,-6.1875,-6.1719,-6.1719,-6.1719,-6.1719,-6.1719,-6.1719,-6.168,-6.1601,-6.1055,-6.0351,0.0,-3.5784,-3.5883,-3.5984,-3.6259,-3.6805,-3.7706,-3.9012,-4.0423,-4.1994,-4.3412,-4.4754,-4.6012,-4.6549,-4.7394,-4.8883,-5.0371,-5.2529,-5.5647,-5.8524,-6.1237,-6.377,-6.5317,-6.6569,-6.747,-6.7633,-6.7687,-6.7687,-6.7687,-6.7687,-6.7687,-6.7687,-6.7504,-6.7173,-6.6696,-6.6329,-6.5962,-6.5154,-6.453,-6.4053,-6.3686,-6.3246,-6.2743,-6.2291,-6.1814,-6.1374,-6.1006,-6.0603,0.0,-5.8532,-5.8495,-5.8937,-5.8014,-5.8046,-5.8311,-5.7612,-5.7107,-5.6573,-5.5857,-5.5412,-5.5318,-5.5818,-5.6214,-5.6676,-5.755,-5.7786,-5.8081,-5.9011,-5.9309,-5.9987,-6.1861,-6.2249,-6.2873,-6.4711,-6.5348,-6.578,-6.6289,-6.668,-6.7109,-6.7617,-6.7969,-6.8672,-6.9883,-7.0898,-7.1601,-7.1953,-7.0859,-6.9961,-6.9492,-6.832,-6.7422,-6.6914,-6.6914,-6.6914,-6.6914,-6.6914,-6.6914,-6.6914,-6.6914,-6.6914,-6.6914,-6.6914,-6.5937,-6.4219,-6.2461,-6.1719,-6.1719,-6.1719,-6.1719,-6.1719,-6.1719,-6.1719,-6.1719,-6.1719,-6.1484,-6.1094,0.0,-3.607,-3.6476,-3.7117,-3.7445,-3.7828,-3.8371,-3.9303,-4.0403,-4.1781,-4.2986,-4.417,-4.5297,-4.5872,-4.6786,-4.8274,-4.9763,-5.1919,-5.5069,-5.8147,-6.0897,-6.331,-6.5171,-6.6526,-6.7331,-6.7579,-6.7687,-6.7687,-6.7687,-6.7687,-6.7687,-6.7687,-6.7687,-6.765,-6.71,-6.6843,-6.6769,-6.5962,-6.5191,-6.442,-6.42,-6.3429,-6.2401,-6.1814,-6.0823,-5.9758,-5.9758,-5.9098,-5.802,-5.6786,-5.67,-5.7019,-5.6239,-5.6752,-5.7456,-5.658,-5.6534,-5.6585,-5.5901,-5.5857,-5.6214,-5.683,-5.7176,-5.7588,-5.8434,-5.8622,-5.8897,-5.9847,-6.0133,-6.0704,-6.2359,-6.2919,-6.3647,-6.5236,-6.5729,-6.6169,-6.6796,-6.6914,-6.7148,-6.7773,-6.8047,-6.8437,-6.9062,-7.0664,-7.164,-7.164,-7.082,-7.0,-6.918,-6.832,-6.7539,-6.6914,-6.6914,-6.6914,-6.6914,-6.6914,-6.6914,-6.6914,-6.6914,-6.6914,-6.6875,-6.6406,-6.5508,-6.4219,-6.2461,-6.1719,-6.1719,-6.1719,-6.1719,-6.1719,-6.1719,-6.1719,-6.1719,-6.1719,-6.1719,-6.1601,0.0,0.0,-3.7117,-3.7911,-3.8455,-3.8761,-3.8761,-3.9208,-4.0141,-4.1849,-4.2274,-4.2929,-4.4479,-4.4649,-4.5258,-4.6718,-4.8206,-5.0737,-5.4669,-5.7015,-5.9826,-6.3335,-6.4675,-6.5859,-6.6983,-6.747,-6.7687,-6.7687,-6.7687,-6.7687,-6.7687,-6.7687,-6.7687,-6.7687,-6.765,-6.765,-6.7614,-6.6806,-6.5999,-6.5191,-6.442,-6.3099,-6.163,-6.1594,-6.0126,-5.807,-5.807,-5.7042,-5.5596,-5.4837,-5.4216,-5.3809,-5.4073,-5.5006,-5.6037,-5.6302,-5.6626,-5.6729,-5.5923,-5.6329,-5.6983,-5.6983,-5.7627,-5.8473,-5.9281,-5.9473,-5.9727,-6.0668,-6.0931,-6.1273,-6.2315,-6.3288,-6.4301,-6.5322,-6.6223,-6.6789,-6.6872,-6.6914,-6.6914,-6.6953,-6.7695,-6.8203,-6.8242,-6.9765,-7.0742,-7.0742,-6.9922,-6.9101,-6.8281,-6.7422,-6.6914,-6.6914,-6.6914,-6.6914,-6.6914,-6.6914,-6.6914,-6.6914,-6.6914,-6.6914,-6.6836,-6.5156,-6.4336,-6.4219,-6.2461,-6.1719,-6.1719,-6.1719,-6.1719,-6.1719,-6.1719,-6.1719,-6.1719,-6.1719,-6.1719,-6.1719,0.0,0.0,0.0,0.0,0.0,-4.054,-4.0927,-4.0715,-4.0908,-4.2105,-4.3578,0.0,0.0,0.0,0.0,0.0,-4.7699,-4.9582,-5.2652,-5.5157,-5.8017,-6.1443,-6.288,-6.4209,-6.5523,-6.5886,-6.6109,-6.6109,-6.6623,-6.688,-6.6916,-6.743,-6.7687,-6.7687,-6.7687,-6.7393,-6.688,-6.6623,-6.5742,-6.442,-6.3576,-6.2585,-6.141,-5.9832,-5.8364,-5.7005,0.0,-5.4473,-5.3833,-5.2659,-5.2134,-5.2066,-5.2517,-5.3365,-5.4443,-5.545,-5.5859,-5.6126,-5.6462,-5.6791,-5.7291,-5.8396,-5.8896,-5.9319,-6.0165,-6.0358,-6.0446,-6.0766,-6.0872,-6.1222,-6.2257,-6.3224,-6.4221,-6.5255,-6.618,-6.6802,-6.682,-6.687,-6.6913,-6.6913,-6.7148,-6.7578,-6.8125,-6.9219,-6.9883,-6.9844,-6.9062,-6.8476,-6.8203,-6.7383,-6.6914,-6.6914,-6.6914,-6.6914,-6.6914,-6.6914,-6.6914,-6.6914,-6.6914,-6.6601,-6.6015,-6.4844,-6.3984,-6.3359,-6.2226,-6.1719,-6.1719,-6.1719,-6.1719,-6.1719,-6.1719,-6.1719,-6.1719,-6.1719,-6.1719,-6.1719,0.0,0.0,0.0,0.0,0.0,0.0,0.0,0.0,0.0,0.0,0.0,0.0,0.0,0.0,0.0,0.0,0.0,-4.887,-5.1151,-5.3269,-5.597,-5.943,-6.0782,-6.2201,-6.3848,-6.4203,-6.442,-6.442,-6.5228,-6.5632,-6.5668,-6.6476,-6.6843,-6.6843,-6.6843,-6.6402,-6.5632,-6.5632,-6.4677,-6.3135,-6.2585,-6.1557,-6.0126,-5.8584,-5.7152,0.0,-5.3518,-5.2601,-5.2181,-5.1003,-5.0527,-5.0507,-5.1319,-5.256,-5.3954,-5.5109,-5.5738,-5.6236,-5.6857,-5.7445,-5.8165,-5.9242,-5.9742,-6.0127,-6.0666,-6.0781,-6.0781,-6.0781,-6.0827,-6.1109,-6.1736,-6.2662,-6.3635,-6.4687,-6.5684,-6.6525,-6.7188,-6.729,-6.7457,-6.7771,-6.7812,-6.8047,-6.8594,-6.914,-6.9336,-6.8984,-6.8476,-6.8047,-6.7734,-6.7187,-6.6914,-6.6914,-6.6914,-6.6914,-6.6914,-6.6914,-6.6914,-6.6914,-6.6914,-6.6445,-6.5586,-6.4687,-6.3828,-6.2969,-6.207,-6.1719,-6.1719,-6.1719,-6.1719,-6.1719,-6.1719,-6.1719,-6.1719,-6.1719,-6.1719,-6.1719,0.0,0.0,0.0,0.0,0.0,0.0,0.0,0.0,0.0,0.0,0.0,0.0,0.0,0.0,0.0,0.0,0.0,0.0,-5.0249,-5.1459,-5.3762,-5.7368,-5.8517,-5.9935,-6.1931,-6.2347,-6.2523,-6.2523,-6.3466,-6.3906,-6.3906,-6.4787,-6.5191,-6.5191,-6.5191,-6.4714,-6.3906,-6.3906,-6.2952,-6.141,-6.1374,-5.9979,-5.7923,-5.785,-5.6381,-5.4179,-5.2564,-5.1499,-5.0749,-5.0007,-4.9416,-4.925,-5.0628,-5.2549,-5.4461,-5.5331,-5.6268,-5.7022,-5.7099,-5.828,-5.9511,-5.955,-6.0204,-6.0781,-6.0781,-6.0781,-6.0742,-6.0742,-6.075,-6.0768,-6.0822,-6.1631,-6.2676,-6.3735,-6.4765,-6.6074,-6.7851,-6.8134,-6.8467,-6.9293,-6.9453,-6.9492,-6.9492,-6.9453,-6.9062,-6.8242,-6.8203,-6.7812,-6.6953,-6.6914,-6.6914,-6.6914,-6.6914,-6.6914,-6.6914,-6.6914,-6.6914,-6.6914,-6.6914,-6.6406,-6.5508,-6.4687,-6.3789,-6.289,-6.207,-6.1719,-6.1719,-6.1719,-6.1719,-6.1719,-6.1719,-6.1719,-6.1719,-6.1719,-6.1719,-6.1719,0.0,0.0,0.0,0.0,0.0,0.0,0.0,0.0,0.0,0.0,0.0,0.0,0.0,0.0,0.0,0.0,0.0,0.0,-4.9649,-5.0853,-5.2718,-5.5369,-5.6251,-5.7319,-5.8737,-5.9066,-5.9208,-5.9208,-6.0639,-6.1337,-6.1374,-6.2805,-6.3441,-6.3441,-6.3441,-6.2658,-6.1337,-6.1337,-6.0382,-5.8877,-5.8253,-5.7666,-5.6969,-5.5757,-5.495,-5.4179,-5.2564,-5.1867,-5.143,-4.9528,-4.9586,-5.0688,-5.2378,-5.3543,-5.4576,-5.6033,-5.6729,-5.7291,-5.8511,-5.9165,-5.9665,-6.0319,-6.0627,-6.0781,-6.0781,-6.0281,-5.9819,-5.9819,-5.9369,-5.9161,-5.9804,-6.0699,-6.1901,-6.3481,-6.5095,-6.6581,-6.7784,-6.8564,-6.9115,-6.9366,-6.9412,-6.9414,-6.9414,-6.9414,-6.9062,-6.8242,-6.8203,-6.7812,-6.6953,-6.6914,-6.6914,-6.6914,-6.6914,-6.6914,-6.6914,-6.6914,-6.6914,-6.6914,-6.6914,-6.6094,-6.4609,-6.4414,-6.3476,-6.2031,-6.1797,-6.1719,-6.1719,-6.1719,-6.1719,-6.1719,-6.1719,-6.1719,-6.1719,-6.1719,-6.1719,-6.1719,0.0,0.0,0.0,0.0,0.0,0.0,0.0,0.0,0.0,0.0,0.0,0.0,0.0,0.0,0.0,0.0,0.0,0.0,0.0,-5.0119,-5.1625,-5.3608,-5.4358,-5.5305,-5.6525,-5.6818,-5.6932,-5.6932,-5.8217,-5.8841,-5.8841,-6.0126,-6.0713,-6.0713,-6.0713,-6.0015,-5.8841,-5.8841,-5.8107,0.0,0.0,-5.6051,-5.5647,-5.473,-5.4179,-5.3702,-5.2454,-5.1818,-5.1497,-5.0638,-5.1323,-5.2734,-5.3879,-5.5032,-5.6149,-5.7131,-5.7751,-5.828,-5.9242,-5.9781,-6.0204,-6.0666,-6.0781,-6.0704,-6.0319,-5.9858,-5.9396,-5.905,-5.8627,-5.8446,-5.8941,-5.9766,-6.098,-6.2781,-6.4321,-6.6026,-6.816,-6.8968,-6.9608,-7.0455,-7.0545,-7.0547,-7.0547,-7.0547,-7.0195,-6.9375,-6.8633,-6.7812,-6.6953,-6.6914,-6.6914,-6.6914,-6.6914,-6.6914,-6.6914,-6.6914,-6.6914,-6.6914,-6.6914,-6.6172,-6.4844,-6.4453,-6.3555,-6.2265,-6.1875,-6.1719,-6.1719,-6.1719,-6.1719,-6.1719,-6.1719,-6.1719,-6.1719,-6.1719,-6.1719,-6.1719,0.0,0.0,0.0,0.0,0.0,0.0,0.0,0.0,0.0,0.0,-4.6989,-4.7462,0.0,0.0,0.0,0.0,0.0,0.0,0.0,0.0,0.0,-5.221,-5.2938,-5.3795,-5.4907,-5.5133,-5.528,-5.528,-5.6088,-5.6492,-5.6492,-5.7299,-5.7666,-5.7666,-5.7666,-5.7189,-5.6345,-5.6455,-5.5978,-5.5155,-5.5244,-5.484,-5.4252,0.0,0.0,-5.3115,-5.2417,-5.1805,-5.1543,-5.2438,-5.3579,-5.4692,-5.5104,-5.6536,-5.8143,-5.8318,-5.8889,-5.9511,-5.9627,-6.0204,-6.0781,-6.0781,-6.0704,-6.0435,-5.9665,-5.9319,-5.8973,-5.828,-5.805,-5.8011,-5.8127,-5.8864,-6.0008,-6.1832,-6.3138,-6.5095,-6.8352,-6.9172,-7.0066,-7.1625,-7.1911,-7.1992,-7.1992,-7.1992,-7.164,-7.0781,-6.9258,-6.8008,-6.7109,-6.6953,-6.6914,-6.6914,-6.6914,-6.6914,-6.6914,-6.6914,-6.6914,-6.6914,-6.6914,-6.6445,-6.5586,-6.4805,-6.3945,-6.2969,-6.2187,-6.1797,-6.1719,-6.1719,-6.1719,-6.1719,-6.1719,-6.1719,-6.1719,-6.1719,-6.1719,-6.1719,0.0,0.0,0.0,0.0,0.0,0.0,0.0,0.0,0.0,0.0,-4.8105,-4.8037,0.0,0.0,0.0,0.0,0.0,0.0,0.0,0.0,0.0,0.0,-5.2377,-5.2949,-5.3376,-5.3564,-5.3628,-5.3628,-5.4436,-5.484,-5.484,-5.5647,-5.6014,-5.6014,-5.6014,-5.5207,-5.3885,-5.4546,-5.3959,-5.2674,-5.3371,-5.3555,-5.3408,-5.3408,0.0,0.0,-5.3041,-5.2978,-5.2974,-5.3438,-5.4048,-5.4752,-5.573,-5.6954,-5.8258,-5.8983,-5.935,-5.9665,-6.0396,-6.0666,-6.0781,-6.0781,-6.0242,-5.9704,-5.955,-5.8434,-5.7407,-5.7253,-5.6665,-5.6357,-5.7099,-5.7945,-5.9095,-6.0867,-6.3145,-6.5209,-6.6686,-6.8855,-7.0446,-7.0872,-7.1555,-7.1991,-7.1992,-7.1992,-7.164,-7.0781,-6.9805,-6.8906,-6.8008,-6.7305,-6.6914,-6.6914,-6.6914,-6.6914,-6.6914,-6.6914,-6.6914,-6.6914,-6.6914,-6.6445,-6.5586,-6.543,-6.4492,-6.3008,-6.2851,-6.2383,-6.1719,-6.1719,-6.1719,-6.1719,-6.1719,-6.1719,-6.1719,-6.1719,-6.1719,-6.1719,0.0,0.0,0.0,0.0,0.0,0.0,0.0,-4.8342,-4.9323,-5.0067,-5.0168,-5.0033,-4.9627,-4.956,-4.9455,0.0,0.0,0.0,0.0,0.0,0.0,0.0,0.0,0.0,-5.298,-5.3124,-5.3203,-5.3203,0.0,-5.3775,-5.3775,-5.4179,-5.4363,-5.4363,-5.4363,-5.3922,-5.3203,-5.3628,-5.3335,-5.2674,-5.302,-5.3203,-5.3203,0.0,0.0,0.0,0.0,-5.3251,-5.3359,-5.362,-5.426,-5.5187,-5.6452,-5.7925,-5.9305,-5.9906,-6.0095,-6.0207,-6.0704,-6.0781,-6.0781,-6.0781,-6.0127,-5.9396,-5.8973,-5.7896,-5.6868,-5.6406,-5.5972,-5.5818,-5.6252,-5.7396,-5.8726,-6.0025,-6.2457,-6.4735,-6.6198,-6.7989,-6.9514,-7.0537,-7.1038,-7.1519,-7.1952,-7.1992,-7.1836,-7.1406,-7.0586,-6.957,-6.8281,-6.7383,-6.6914,-6.6914,-6.6914,-6.6914,-6.6914,-6.6914,-6.6914,-6.6914,-6.6914,-6.668,-6.625,-6.582,-6.5156,-6.4297,-6.3398,-6.2773,-6.2344,-6.1875,-6.1719,-6.1719,-6.1719,-6.1719,-6.1719,-6.1719,-6.1719,-6.1719,0.0,0.0,0.0,0.0,0.0,0.0,-4.824,-4.9627,-5.0845,-5.1589,-5.2469,-5.2469,-5.098,-5.0371,-4.9927,0.0,0.0,0.0,0.0,0.0,0.0,0.0,0.0,0.0,0.0,0.0,0.0,-5.3203,-5.3203,0.0,0.0,0.0,0.0,0.0,-5.3203,-5.3093,-5.2968,-5.3151,-5.3093,0.0,0.0,-5.3203,-5.3203,0.0,0.0,0.0,0.0,-5.323,-5.3297,-5.3464,-5.4258,-5.5379,-5.6646,-5.8228,-5.9736,-6.0214,-6.0379,-6.0455,-6.0707,-6.0781,-6.0781,-6.0781,-6.0012,-5.9088,-5.8434,-5.7473,-5.6522,-5.5818,-5.5703,-5.5703,-5.5703,-5.6973,-5.8303,-5.9194,-6.1383,-6.369,-6.5541,-6.6832,-6.8171,-6.9837,-7.024,-7.0653,-7.1364,-7.1445,-7.1523,-7.1719,-7.0937,-6.9805,-6.8281,-6.7383,-6.6914,-6.6914,-6.6914,-6.6914,-6.6914,-6.6914,-6.6914,-6.6914,-6.6914,-6.6914,-6.6875,-6.6172,-6.5781,-6.5508,-6.3945,-6.3164,-6.293,-6.207,-6.1719,-6.1719,-6.1719,-6.1719,-6.1719,-6.1719,-6.1719,-6.1719,0.0,0.0,0.0,0.0,0.0,0.0,-4.9661,-5.115,-5.2367,-5.3179,-5.4532,-5.4837,-5.3348,-5.1319,-5.013,0.0,0.0,0.0,0.0,0.0,0.0,0.0,0.0,0.0,0.0,0.0,0.0,-5.3203,-5.3203,0.0,0.0,0.0,0.0,0.0,0.0,-5.2784,-5.216,-5.2894,0.0,0.0,0.0,0.0,0.0,0.0,0.0,0.0,0.0,-5.3188,-5.3209,-5.3297,-5.3957,-5.4862,-5.5342,-5.6543,-5.7938,-5.8942,-5.9319,-5.9613,-6.0493,-6.0746,-6.0781,-6.0781,-5.9588,-5.8396,-5.8319,-5.7011,-5.578,-5.5703,-5.5703,-5.5703,-5.5703,-5.6483,-5.7407,-5.8292,-5.9964,-6.178,-6.3603,-6.5386,-6.6963,-6.811,-6.8958,-6.9468,-6.9645,-6.9648,-6.9961,-7.0742,-7.0078,-6.9219,-6.8242,-6.7383,-6.6914,-6.6914,-6.6914,-6.6914,-6.6914,-6.6914,-6.6914,-6.6914,-6.6914,-6.6914,-6.6914,-6.6836,-6.6367,-6.5547,-6.4609,-6.3711,-6.293,-6.207,-6.1719,-6.1719,-6.1719,-6.1719,-6.1719,-6.1719,-6.1719,-6.1719,0.0,0.0,0.0,0.0,0.0,0.0,-5.0473,-5.1657,-5.2739,-5.3991,-5.5074,-5.531,-5.4262,-5.3042,-5.1813,-5.0731,0.0,0.0,0.0,0.0,0.0,0.0,0.0,0.0,0.0,0.0,-5.3203,-5.3203,-5.3203,0.0,0.0,0.0,0.0,0.0,0.0,-5.3041,-5.2747,-5.3078,0.0,0.0,0.0,0.0,0.0,0.0,0.0,0.0,0.0,0.0,-5.3188,-5.3277,-5.356,-5.392,-5.4296,-5.4872,-5.581,-5.7627,-5.8606,-5.9215,-5.9715,-6.0301,-6.0746,-6.0781,-5.955,-5.8319,-5.8319,-5.6934,-5.5703,-5.5703,-5.5703,-5.5703,-5.5703,-5.6406,-5.728,-5.8165,-5.976,-6.1505,-6.3299,-6.4696,-6.6134,-6.7626,-6.8218,-6.8681,-6.9264,-6.9367,-6.9531,-6.9883,-6.918,-6.8555,-6.8203,-6.7383,-6.6914,-6.6914,-6.6914,-6.6914,-6.6914,-6.6914,-6.6914,-6.6914,-6.6914,-6.6914,-6.6914,-6.6914,-6.6406,-6.5547,-6.4687,-6.3828,-6.293,-6.207,-6.1719,-6.1719,-6.1719,-6.1719,-6.1719,-6.1719,-6.1719,-6.1719,0.0,0.0,0.0,0.0,0.0,-4.8548,-5.0574,-5.1691,-5.2773,-5.4093,-5.5108,-5.5412,-5.4736,-5.4363,-5.3532,-5.1873,-5.1755,0.0,0.0,0.0,0.0,0.0,0.0,0.0,0.0,0.0,-5.3314,-5.3555,-5.3555,-5.3555,0.0,0.0,-5.3424,-5.3203,0.0,0.0,0.0,0.0,0.0,0.0,0.0,0.0,0.0,0.0,0.0,0.0,0.0,0.0,0.0,0.0,0.0,-5.3318,-5.36,-5.3851,-5.4406,-5.6425,-5.7604,-5.8377,-5.9089,-5.9779,-6.0325,-6.0385,-5.9358,-5.8242,-5.7973,-5.678,-5.5703,-5.5703,-5.5703,-5.5703,-5.5703,-5.6214,-5.6973,-5.8127,-5.9326,-6.0911,-6.3174,-6.4124,-6.5246,-6.7091,-6.7424,-6.7768,-6.8479,-6.8849,-6.8944,-6.8672,-6.8359,-6.8086,-6.7812,-6.7226,-6.6914,-6.6914,-6.6914,-6.6914,-6.6914,-6.6914,-6.6914,-6.6914,-6.6914,-6.6914,-6.6875,-6.664,-6.6172,-6.5547,-6.4414,-6.3555,-6.293,-6.207,-6.1719,-6.1719,-6.1719,-6.1719,-6.1719,-6.1719,-6.1719,-6.1719,0.0,0.0,0.0,0.0,0.0,-4.8409,-4.9864,-5.1352,-5.2604,-5.3416,-5.4803,-5.5482,-5.4839,-5.5107,-5.4943,-5.4056,-5.2691,0.0,0.0,0.0,0.0,0.0,0.0,0.0,0.0,0.0,-5.3592,-5.4399,-5.4399,-5.4399,-5.4399,-5.4399,-5.3959,-5.3203,0.0,0.0,0.0,0.0,0.0,0.0,0.0,0.0,-5.3203,0.0,0.0,0.0,0.0,0.0,0.0,0.0,0.0,0.0,0.0,-5.3639,-5.4056,-5.5484,-5.6148,-5.682,-5.8718,-5.9319,-5.943,-5.95,-5.8896,-5.8088,-5.7214,-5.6329,-5.5703,-5.5703,-5.5703,-5.5703,-5.5703,-5.5703,-5.628,-5.8011,-5.8319,-5.9496,-6.2903,-6.3527,-6.429,-6.6096,-6.6489,-6.6629,-6.674,-6.7633,-6.785,-6.6992,-6.7734,-6.7812,-6.6953,-6.6914,-6.6914,-6.6914,-6.6914,-6.6914,-6.6914,-6.6914,-6.6914,-6.6914,-6.6914,-6.6914,-6.6875,-6.6015,-6.5625,-6.5508,-6.3789,-6.3008,-6.293,-6.207,-6.1719,-6.1719,-6.1719,-6.1719,-6.1719,-6.1719,-6.1719,-6.1719,0.0,0.0,0.0,0.0,0.0,0.0,-4.9932,-5.0473,-5.1082,-5.1826,-5.3347,-5.4126,-5.3575,-5.4785,-5.5289,-5.4413,-5.3686,0.0,0.0,0.0,0.0,0.0,0.0,0.0,0.0,-5.3739,-5.4142,-5.4399,-5.495,-5.5207,-5.5207,-5.4656,-5.4252,-5.3995,-5.3445,-5.3203,0.0,0.0,0.0,0.0,0.0,-5.3203,-5.3203,0.0,0.0,0.0,0.0,0.0,0.0,0.0,0.0,0.0,0.0,0.0,0.0,-5.4834,-5.561,-5.6387,-5.7263,-5.7978,-5.8537,-5.8642,-5.805,-5.7319,-5.706,-5.6329,-5.5703,-5.5703,-5.5703,-5.5703,-5.5703,-5.5703,-5.628,-5.8011,-5.8781,-6.0089,-6.2921,-6.3927,-6.4789,-6.5958,-6.6329,-6.6596,-6.6733,-6.7043,-6.7142,-6.6914,-6.7148,-6.7187,-6.6914,-6.6914,-6.6914,-6.6914,-6.6914,-6.6914,-6.6914,-6.6914,-6.6914,-6.6875,-6.6289,-6.6015,-6.5976,-6.5117,-6.4375,-6.3789,-6.3242,-6.2656,-6.2109,-6.1797,-6.1719,-6.1719,-6.1719,-6.1719,-6.1719,-6.1719,-6.1719,-6.1719,0.0,0.0,0.0,0.0,0.0,0.0,-4.9593,-4.9994,-5.0365,-5.0839,-5.2151,-5.3058,-5.3141,-5.4402,-5.5259,-5.5249,-5.4901,0.0,0.0,0.0,0.0,0.0,0.0,0.0,-5.3203,-5.3995,-5.4693,-5.5317,-5.6088,-5.6492,-5.6492,-5.5978,-5.528,-5.4363,-5.3885,-5.3482,0.0,0.0,0.0,0.0,-5.3203,-5.3203,-5.3203,0.0,0.0,0.0,0.0,0.0,0.0,0.0,0.0,0.0,0.0,0.0,0.0,0.0,-5.5215,-5.5898,-5.6537,-5.716,-5.7654,-5.7796,-5.7396,-5.6907,-5.6599,-5.6088,-5.5703,-5.5703,-5.5703,-5.5703,-5.5703,-5.5972,-5.6665,-5.8088,-5.9242,-6.0781,-6.3012,-6.4111,-6.5041,-6.5986,-6.6325,-6.6555,-6.6759,-6.68,-6.6823,-6.6874,-6.6914,-6.6914,-6.6914,-6.6914,-6.6914,-6.6914,-6.6914,-6.6914,-6.6914,-6.6562,-6.6406,-6.6406,-6.5547,-6.5117,-6.5078,-6.4219,-6.3515,-6.2969,-6.2656,-6.2187,0.0,-6.1719,-6.1719,-6.1719,-6.1719,-6.1719,-6.1719,-6.1719,-6.1719,-6.1719,0.0,0.0,0.0,0.0,0.0,0.0,0.0,-4.9749,-5.0348,-5.0379,-5.1271,-5.2299,-5.3459,-5.4075,-5.4967,-5.643,-5.6273,0.0,0.0,0.0,0.0,0.0,0.0,0.0,-5.3277,-5.4069,-5.528,-5.6895,-5.7703,-5.8107,-5.818,-5.8033,-5.6785,-5.4583,-5.4436,-5.3959,0.0,0.0,0.0,-5.3203,-5.3203,-5.3203,0.0,0.0,0.0,0.0,0.0,0.0,0.0,0.0,0.0,0.0,0.0,0.0,0.0,0.0,0.0,0.0,0.0,-5.6771,-5.6829,-5.6885,-5.6907,-5.6714,-5.5857,-5.5703,0.0,-5.5703,-5.5703,-5.5703,-5.5703,-5.6406,-5.728,-5.8165,-5.9704,-6.1396,-6.3051,-6.4138,-6.5164,-6.6158,-6.6342,-6.6457,-6.6654,-6.6739,-6.6818,-6.6871,-6.6913,-6.6914,-6.6914,-6.6914,-6.6914,-6.6914,-6.6836,-6.6797,-6.6797,-6.5937,-6.5508,-6.5508,-6.4609,-6.4219,-6.418,-6.3281,-6.289,-6.2851,-6.2031,-6.1719,-6.1719,-6.1719,-6.1719,-6.1719,-6.1719,-6.1719,-6.1719,-6.1719,-6.1719,-6.1719,0.0,0.0,0.0,0.0,0.0,0.0,0.0,0.0,0.0,0.0,-5.1043,-5.2183,-5.3331,-5.4398,-5.5562,0.0,0.0,0.0,0.0,0.0,0.0,0.0,0.0,0.0,-5.4106,-5.4913,-5.6088,-5.7703,-5.8547,-5.9245,-5.9795,-5.8584,-5.7373,-5.6198,-5.495,-5.3959,0.0,0.0,-5.3203,-5.3203,-5.3203,-5.3203,0.0,0.0,0.0,0.0,-5.3203,-5.3203,0.0,0.0,0.0,0.0,0.0,0.0,0.0,0.0,-5.5223,-5.5427,-5.5846,0.0,-5.5895,-5.6,-5.6011,-5.5934,0.0,-5.5703,-5.5703,-5.5703,-5.5703,-5.5703,-5.5703,-5.6406,-5.728,-5.8165,-5.9704,-6.1396,-6.3051,-6.464,-6.5727,-6.6123,-6.6206,-6.6345,-6.6596,-6.6689,-6.6748,-6.6826,-6.6872,-6.6913,-6.6914,-6.6914,-6.6914,-6.6914,-6.625,-6.5898,-6.5898,-6.5039,-6.4609,-6.4609,-6.3711,-6.332,-6.3281,-6.2383,-6.1992,-6.1992,-6.1797,-6.1719,-6.1719,-6.1719,-6.1719,-6.1719,-6.1719,-6.1719,-6.1719,-6.1719,-6.1719,-6.1719,0.0,0.0,0.0,0.0,0.0,0.0,0.0,0.0,0.0,0.0,-5.0982,-5.2121,-5.3584,-5.4558,-5.566,0.0,0.0,0.0,0.0,0.0,0.0,0.0,0.0,-5.4509,-5.495,-5.5721,-5.6932,-5.8547,-5.9355,-6.0162,-6.0933,-6.0052,-5.8841,-5.7262,-5.528,-5.3959,-5.3203,-5.3203,-5.3203,-5.3203,-5.3203,0.0,0.0,0.0,0.0,0.0,-5.3203,-5.3203,0.0,-5.323,-5.3339,-5.3504,0.0,0.0,0.0,0.0,-5.5351,-5.5508,-5.5671,-5.5682,-5.5671,-5.5703,-5.5703,-5.5703,-5.5703,-5.5703,-5.5703,-5.5703,-5.5703,-5.5818,-5.6214,-5.7011,-5.7857,-5.8704,-6.0589,-6.2551,-6.4243,-6.532,-6.5947,-6.604,-6.6144,-6.6281,-6.6482,-6.6624,-6.672,-6.6772,-6.6867,-6.6912,-6.6914,-6.6914,-6.6914,-6.6914,-6.5664,-6.5195,-6.5586,-6.4336,-6.3711,-6.3672,-6.2812,-6.2383,-6.2383,-6.1914,-6.1719,-6.1719,-6.1719,-6.1719,-6.1719,-6.1719,-6.1719,-6.1719,-6.1719,-6.1719,-6.1719,-6.1719,-6.1719,-6.1719,0.0,0.0,0.0,0.0,0.0,0.0,0.0,0.0,0.0,0.0,0.0,0.0,0.0,0.0,0.0,0.0,0.0,0.0,0.0,0.0,0.0,0.0,-5.5721,-5.5669,-5.5757,-5.6565,-5.7776,-5.9368,-6.0199,-6.1006,-6.1777,-6.1667,-6.0236,-5.7703,-5.5427,-5.3959,-5.3203,-5.3203,-5.3203,-5.3203,-5.3203,0.0,0.0,0.0,0.0,0.0,0.0,0.0,0.0,-5.3297,-5.3464,-5.3738,-5.4107,0.0,0.0,0.0,0.0,0.0,-5.5692,-5.5703,-5.5742,-5.5857,-5.5895,-5.5895,-5.5895,0.0,-5.5703,-5.5703,-5.5703,-5.5972,-5.683,-5.7703,-5.8627,-5.955,-6.1858,-6.4012,-6.5474,-6.582,-6.5923,-6.5996,-6.6108,-6.6225,-6.6381,-6.6549,-6.6685,-6.679,-6.686,-6.6872,-6.6914,-6.6914,-6.6914,-6.6914,-6.5195,-6.4648,-6.539,-6.3672,-6.2812,-6.2773,-6.2031,-6.1719,-6.1719,-6.1719,-6.1719,-6.1719,-6.1719,-6.1719,-6.1719,-6.1719,-6.1719,-6.1719,-6.1719,-6.1719,-6.1719,-6.1719,-6.1719,-6.1719,0.0,0.0,0.0,0.0,0.0,0.0,0.0,0.0,0.0,0.0,0.0,0.0,0.0,0.0,0.0,0.0,0.0,0.0,0.0,0.0,0.0,-5.7629,-5.6308,-5.5904,-5.6602,-5.7409,-5.8584,-6.0236,-6.1006,-6.1814,-6.2622,-6.1924,-5.9942,-5.6932,-5.517,-5.3959,-5.3203,-5.3203,-5.3203,-5.3203,-5.3203,0.0,0.0,0.0,0.0,0.0,0.0,0.0,0.0,-5.342,-5.3622,-5.3926,-5.4317,0.0,0.0,0.0,0.0,0.0,-5.5692,-5.5703,-5.5857,-5.6637,-5.6791,-5.6791,-5.6791,-5.6252,-5.5703,-5.5703,-5.5703,-5.5972,-5.683,-5.7703,-5.8819,-6.0358,-6.2743,-6.4474,-6.4743,-6.5436,-6.5923,-6.5996,-6.6029,-6.6123,-6.6299,-6.6446,-6.6596,-6.6691,-6.6766,-6.6826,-6.6914,-6.6914,-6.6914,-6.6914,-6.5195,-6.4375,-6.4492,-6.2773,-6.1914,-6.1914,-6.1758,-6.1719,-6.1719,-6.1719,-6.1719,-6.1719,-6.1719,-6.1719,-6.1719,-6.1719,-6.1719,-6.1719,-6.1719,-6.1719,-6.1719,-6.1719,-6.1719,-6.1719,0.0,0.0,0.0,0.0,0.0,0.0,0.0,0.0,0.0,0.0,0.0,0.0,0.0,0.0,0.0,0.0,0.0,0.0,0.0,0.0,-5.7997,-5.7997,-5.7703,-5.774,-5.8084,-5.8877,-6.0089,-6.1704,-6.2071,-6.2915,-6.4127,-6.2401,-6.0346,-5.801,-5.5978,-5.4583,-5.3812,-5.3408,-5.3203,-5.3203,0.0,0.0,0.0,0.0,0.0,0.0,0.0,0.0,0.0,0.0,-5.3907,-5.4176,-5.4629,0.0,0.0,0.0,0.0,0.0,-5.5703,-5.6049,-5.6522,-5.6907,-5.6983,-5.6983,-5.6983,-5.7049,-5.7088,-5.7088,-5.7088,-5.7357,-5.8204,-5.905,-6.0358,-6.2512,-6.4243,-6.5436,-6.5897,-6.6282,-6.6564,-6.6602,-6.6239,-6.6036,-6.6167,-6.6359,-6.6491,-6.6638,-6.6748,-6.6823,-6.6913,-6.6914,-6.6914,-6.6914,-6.5195,-6.4297,-6.4297,-6.2578,-6.1719,-6.1719,-6.1719,-6.1953,-6.2383,-6.1914,-6.1953,-6.2383,-6.1914,-6.1719,-6.1719,-6.1719,-6.1719,-6.1719,-6.1719,-6.1719,-6.1719,-6.1719,-6.1719,-6.1719,0.0,0.0,0.0,0.0,0.0,0.0,0.0,0.0,0.0,0.0,0.0,0.0,0.0,0.0,0.0,0.0,0.0,0.0,0.0,-5.7703,-5.7813,-5.7997,-5.8951,-5.9368,-5.9184,-6.0382,-6.1594,-6.278,-6.3184,-6.3943,-6.4971,-6.2658,-6.075,-5.9074,-5.6859,-5.5317,-5.4363,-5.3739,-5.335,-5.3203,0.0,0.0,0.0,0.0,0.0,0.0,0.0,0.0,0.0,0.0,0.0,0.0,0.0,0.0,0.0,-5.5531,-5.566,-5.5703,-5.5703,-5.6214,-5.6714,-5.6714,-5.7022,-5.7291,-5.7291,-5.7973,-5.855,-5.8357,-5.8434,-5.8781,-5.9396,-6.0512,-6.2089,-6.4243,-6.532,-6.6167,-6.6974,-6.6936,-6.6898,-6.709,-6.6448,-6.5993,-6.6091,-6.6272,-6.6429,-6.6585,-6.673,-6.6817,-6.6911,-6.6914,-6.6797,-6.6601,-6.5117,-6.4219,-6.3984,-6.2461,-6.1719,-6.1719,-6.1719,-6.2031,-6.2656,-6.1992,-6.207,-6.2656,-6.1992,-6.1719,-6.1719,-6.1719,-6.1719,-6.1719,-6.1719,-6.1719,-6.1719,-6.1719,-6.1719,-6.1719,0.0,0.0,0.0,0.0,0.0,0.0,0.0,0.0,0.0,0.0,0.0,0.0,0.0,0.0,0.0,0.0,0.0,0.0,0.0,-5.6895,-5.7226,-5.796,-5.9501,-5.9979,-5.9221,-6.1423,-6.267,-6.278,-6.4383,-6.4787,-6.4127,-6.2401,-6.075,-5.9111,-5.7483,-5.5868,-5.4399,-5.4326,-5.3885,-5.3203,-5.3203,0.0,0.0,0.0,0.0,0.0,0.0,0.0,0.0,0.0,0.0,0.0,0.0,0.0,-5.5485,-5.5593,-5.566,-5.5703,-5.5703,-5.5742,-5.578,-5.578,-5.7011,-5.8204,-5.8204,-5.8819,-5.9204,-5.8473,-5.8896,-5.9435,-5.9473,-6.1473,-6.3435,-6.4436,-6.532,-6.6167,-6.6974,-6.6436,-6.6244,-6.7013,-6.641,-6.5946,-6.608,-6.6177,-6.6337,-6.6579,-6.6666,-6.6761,-6.6872,-6.6914,-6.6523,-6.5703,-6.4805,-6.3906,-6.3086,-6.2187,-6.1719,-6.1719,-6.1719,-6.1719,-6.1797,-6.1719,-6.1719,-6.1797,-6.1719,-6.1719,-6.1719,-6.1719,-6.1719,-6.1719,-6.1719,-6.1719,-6.1719,-6.1719,-6.1719,-6.1719,0.0,0.0,0.0,0.0,0.0,0.0,0.0,0.0,0.0,0.0,0.0,0.0,0.0,0.0,0.0,0.0,0.0,0.0,0.0,-5.6528,-5.6932,-5.7262,-5.8804,-5.9758,-5.9942,-6.2365,-6.387,-6.4347,-6.5485,-6.5632,-6.4787,-6.2622,-6.1006,-5.9869,-5.774,-5.6198,-5.5097,-5.462,-5.3959,-5.3188,-5.3251,-5.3235,0.0,0.0,0.0,0.0,0.0,0.0,0.0,0.0,-5.5,-5.5222,-5.5339,-5.5449,-5.5593,-5.566,-5.5692,-5.5703,-5.5703,-5.5703,-5.5703,-5.5703,-5.7011,-5.8319,-5.8319,-5.9742,-6.1012,-6.0742,-6.0896,-6.1281,-6.1781,-6.2666,-6.3782,-6.5166,-6.609,-6.6744,-6.7051,-6.6821,-6.6744,-6.7051,-6.6397,-6.5947,-6.6017,-6.6126,-6.6278,-6.6464,-6.659,-6.6753,-6.6823,-6.6366,-6.5937,-6.5625,-6.4219,-6.332,-6.3008,-6.2148,-6.1719,-6.1719,-6.1719,-6.1992,-6.25,-6.1953,-6.1992,-6.2461,-6.1953,-6.1719,-6.1719,-6.1719,-6.1719,-6.1719,-6.1719,-6.1719,-6.1719,-6.1719,-6.1719,-6.1719,0.0,0.0,0.0,0.0,0.0,0.0,0.0,0.0,0.0,0.0,0.0,0.0,0.0,0.0,0.0,0.0,0.0,0.0,-5.5207,-5.5757,-5.6271,-5.6785,-5.8107,-5.9208,-6.0015,-6.2181,-6.3833,-6.4934,-6.5742,-6.5705,-6.4861,-6.2622,-6.1153,-6.0309,-5.8143,-5.6748,-5.5941,-5.5133,-5.4347,-5.3619,-5.3429,-5.34,0.0,0.0,0.0,0.0,0.0,0.0,0.0,0.0,-5.5261,-5.5389,-5.5485,-5.5593,-5.5649,-5.5692,-5.5703,-5.5703,-5.5703,-5.5703,-5.578,-5.6049,-5.7203,-5.8434,-5.8973,-6.0858,-6.2397,-6.2139,-6.2293,-6.2743,-6.3551,-6.3705,-6.4205,-6.5667,-6.6359,-6.6821,-6.7051,-6.6859,-6.6821,-6.7051,-6.6397,-6.5923,-6.5996,-6.6123,-6.6272,-6.6377,-6.66,-6.6742,-6.6813,-6.6051,-6.5469,-6.5195,-6.3789,-6.2851,-6.2578,-6.1992,-6.1719,-6.1719,-6.1719,-6.1992,-6.2578,-6.1953,-6.2031,-6.2578,-6.1953,-6.1719,-6.1719,-6.1719,-6.1719,-6.1719,-6.1719,-6.1719,-6.1719,-6.1719,-6.1719,-6.1719,0.0,0.0,0.0,0.0,0.0,0.0,0.0,0.0,0.0,0.0,-5.4399,0.0,0.0,0.0,0.0,0.0,0.0,0.0,-5.4399,-5.4399,-5.5097,-5.6712,-5.7556,-5.8364,-5.9148,-6.0786,-6.2401,-6.409,-6.4897,-6.4861,-6.4016,-6.2365,-6.1153,-6.0346,-5.8731,-5.7556,-5.6748,-5.5941,-5.5162,-5.4444,-5.3773,-5.362,-5.3832,0.0,0.0,0.0,0.0,0.0,0.0,0.0,-5.5473,-5.5615,-5.5615,-5.566,-5.5703,-5.5703,-5.5703,-5.5703,-5.5703,-5.5703,-5.5895,-5.6791,-5.7665,-5.8742,-6.0435,-6.2089,-6.3089,-6.2281,-6.2743,-6.3589,-6.4436,-6.4589,-6.4897,-6.5743,-6.5897,-6.6167,-6.6974,-6.6397,-6.6205,-6.6974,-6.6397,-6.5923,-6.5996,-6.6129,-6.6273,-6.6377,-6.6585,-6.673,-6.6774,-6.6012,-6.5195,-6.4336,-6.3437,-6.2578,-6.1719,-6.1719,-6.1719,-6.1719,-6.1719,-6.1719,-6.1719,-6.1719,-6.1719,-6.1719,-6.1719,-6.1719,-6.1719,-6.1719,-6.1719,-6.1719,-6.1719,-6.1719,-6.1719,-6.1719,-6.1719,-6.1719,0.0,0.0,0.0,0.0,0.0,0.0,0.0,0.0,0.0,-5.3518,-5.4069,0.0,0.0,0.0,0.0,0.0,0.0,0.0,-5.3555,-5.4106,-5.462,-5.5097,-5.6418,-5.7519,-5.8327,-5.9942,-6.1557,-6.3209,-6.3429,-6.3135,-6.2328,-6.1263,-6.0639,-6.0346,-5.9318,-5.84,-5.7556,-5.6287,-5.5306,-5.4585,-5.3995,-5.3889,-5.4127,0.0,0.0,0.0,0.0,0.0,0.0,0.0,0.0,0.0,-5.5682,-5.5692,-5.5703,-5.5703,-5.5703,-5.5703,-5.5703,-5.5703,-5.5895,-5.6791,-5.7665,-5.8742,-6.0435,-6.2089,-6.3397,-6.3782,-6.4051,-6.4282,-6.4551,-6.4589,-6.4897,-6.5743,-6.5897,-6.5974,-6.6205,-6.6051,-6.5974,-6.6244,-6.6051,-6.591,-6.5935,-6.6097,-6.6245,-6.6334,-6.6563,-6.645,-6.5902,-6.5112,-6.4297,-6.3398,-6.2539,-6.1953,-6.1719,-6.1719,-6.1719,-6.1719,-6.1719,-6.1719,-6.1719,-6.1719,-6.1719,-6.1719,-6.1719,-6.1719,-6.1719,-6.1719,-6.1719,-6.1719,-6.1719,-6.1719,-6.1719,-6.1719,-6.1719,-6.1719,0.0,0.0,0.0,0.0,0.0,0.0,0.0,0.0,0.0,0.0,-5.3628,-5.3922,0.0,0.0,0.0,0.0,0.0,0.0,-5.3203,-5.3665,-5.4216,-5.484,-5.5794,-5.6859,-5.796,-5.8951,-5.9758,-6.0395,-6.1374,-6.1594,-6.1117,-6.0639,-6.0419,-6.0382,-5.9622,-5.8837,-5.7978,-5.655,-5.5517,-5.4791,-5.4242,-5.4193,-5.4446,0.0,0.0,0.0,0.0,0.0,0.0,0.0,0.0,0.0,-5.5703,-5.5703,-5.5703,-5.5703,-5.5703,-5.5703,-5.5703,-5.5934,-5.6445,-5.728,-5.8396,-5.9819,-6.1858,-6.3089,-6.4051,-6.4936,-6.5128,-6.5128,-6.5128,-6.5128,-6.5282,-6.582,-6.5897,-6.5897,-6.5897,-6.5897,-6.5897,-6.5897,-6.5897,-6.5897,-6.5897,-6.6074,-6.6205,-6.6299,-6.6217,-6.5964,-6.5504,-6.4406,-6.3554,-6.3008,-6.2148,-6.1719,-6.1719,-6.1719,-6.1719,-6.1719,-6.1719,-6.1719,-6.1719,-6.1719,-6.1719,-6.1719,-6.1719,-6.1719,-6.1719,-6.1719,-6.1719,-6.1719,-6.1719,-6.1719,-6.1719,-6.1719,-6.1719,-6.1719,0.0,0.0,-5.3039,-5.3039,0.0,0.0,0.0,0.0,0.0,0.0,-5.3203,-5.3203,0.0,0.0,0.0,0.0,0.0,0.0,0.0,-5.3203,-5.3885,-5.5427,-5.5611,-5.6381,-5.785,-5.7886,-5.7483,-5.6712,-5.8951,-6.0089,-6.0089,-6.0162,-6.0236,-6.0296,-5.9702,-5.8997,-5.8135,-5.6747,-5.5783,-5.51,-5.4565,-5.4544,-5.4866,-5.513,0.0,0.0,0.0,0.0,0.0,0.0,0.0,0.0,-5.5703,-5.5703,-5.5703,-5.5703,-5.5703,-5.5703,-5.5703,-5.6329,-5.7214,-5.8088,-5.9665,-6.1666,-6.4051,-6.4666,-6.4936,-6.5743,-6.5897,-6.5897,-6.5897,-6.5897,-6.5897,-6.5897,-6.5897,-6.5897,-6.5897,-6.5897,-6.5897,-6.5897,-6.5897,-6.5897,-6.5897,-6.6029,-6.6126,-6.6174,-6.5628,-6.5273,-6.5267,-6.3817,-6.2968,-6.289,-6.2109,-6.1719,-6.1719,-6.1719,-6.1719,-6.1719,-6.1719,-6.1719,-6.1719,-6.1719,-6.1719,-6.1719,-6.1719,-6.1719,-6.1719,-6.1719,-6.1719,-6.1719,-6.1719,-6.1719,-6.1719,-6.1719,-6.1719,-6.1719,0.0,0.0,-5.3146,-5.3146,0.0,0.0,0.0,0.0,0.0,0.0,0.0,0.0,0.0,0.0,0.0,0.0,0.0,0.0,0.0,-5.3203,-5.3665,-5.462,-5.5868,-5.6712,-5.7042,-5.7079,-5.6675,-5.5868,-5.7005,-5.7593,-5.7593,-5.8217,-5.8887,-5.9628,-5.9559,-5.9176,-5.8424,-5.7076,-5.6163,-5.5532,-5.5048,-5.4947,-5.5143,-5.5351,-5.5473,0.0,0.0,0.0,0.0,0.0,0.0,0.0,-5.5703,-5.5703,-5.5703,-5.5703,-5.5703,-5.5703,-5.5703,-5.6329,-5.7214,-5.8088,-6.055,-6.3089,-6.432,-6.5128,-6.5667,-6.5859,-6.5897,-6.5897,-6.5897,-6.5897,-6.5897,-6.5897,-6.5897,-6.5897,-6.5897,-6.5897,-6.5897,-6.5897,-6.5897,-6.5897,-6.5897,-6.6029,-6.5884,-6.5305,-6.5304,-6.4757,-6.3533,-6.315,-6.2694,-6.1992,-6.1797,-6.1719,-6.1719,-6.1719,-6.1719,-6.1719,-6.1719,-6.1719,-6.1719,-6.1719,-6.1719,-6.1719,-6.1719,-6.1719,-6.1719,-6.1719,-6.1719,-6.1719,-6.1719,-6.1719,-6.1719,-6.1719,-6.1719,-6.1719,0.0,0.0,0.0,0.0,0.0,0.0,0.0,0.0,0.0,0.0,0.0,0.0,0.0,0.0,0.0,0.0,0.0,0.0,0.0,0.0,-5.3555,-5.4363,-5.5574,-5.6235,-5.6235,-5.5868,-5.5464,-5.5023,-5.506,-5.5464,-5.6235,-5.7514,-5.8193,-5.8342,-5.8931,-5.8624,-5.756,-5.6664,-5.5906,-5.5328,-5.5195,-5.4981,-5.4778,-5.4898,-5.5028,-5.5083,-5.5115,0.0,0.0,0.0,0.0,0.0,0.0,0.0,-5.5703,-5.5703,-5.5703,-5.5703,-5.5703,-5.6626,-5.8011,-5.9704,-6.1704,-6.3538,-6.4397,-6.5282,-6.5897,-6.5897,-6.5897,-6.5897,-6.5897,-6.5897,-6.5897,-6.5897,-6.5897,-6.5897,-6.5897,-6.5897,-6.5897,-6.5897,-6.5897,-6.5897,-6.5897,-6.5982,-6.5743,-6.5045,-6.4721,-6.4076,-6.2942,-6.2555,-6.2184,-6.1719,-6.1719,-6.1719,-6.1719,-6.1719,-6.1719,-6.1719,-6.1719,-6.1719,-6.1719,-6.1719,-6.1719,-6.1719,-6.1719,-6.1719,-6.1719,-6.1719,-6.1719,-6.1719,-6.1719,-6.1719,-6.1719,-6.1719,-6.1719,-6.1719,0.0,0.0,0.0,0.0,0.0,0.0,0.0,0.0,0.0,0.0,0.0,0.0,0.0,0.0,0.0,0.0,0.0,0.0,0.0,0.0,0.0,-5.4363,-5.517,-5.5559,-5.5434,-5.4751,-5.4369,-5.4265,-5.3603,-5.3955,-5.5337,-5.6853,-5.7368,-5.7001,-5.8016,-5.7734,-5.6476,-5.6134,-5.5534,-5.487,-5.5058,-5.4712,-5.4116,-5.4183,-5.4237,-5.428,-5.428,-5.478,-5.5472,-5.5472,0.0,0.0,0.0,0.0,-5.5703,-5.5703,-5.5703,-5.5703,-5.5703,-5.6973,-5.8896,-6.1293,-6.2589,-6.3538,-6.4397,-6.5282,-6.5897,-6.5897,-6.5897,-6.5897,-6.5897,-6.5897,-6.5897,-6.5897,-6.5897,-6.5897,-6.5897,-6.5897,-6.5897,-6.5897,-6.5897,-6.5897,-6.5897,-6.596,-6.5638,-6.4832,-6.417,-6.3462,-6.2701,-6.2076,-6.1709,-6.1719,-6.1719,-6.1719,-6.1719,-6.1719,-6.1719,-6.1719,-6.1719,-6.1719,-6.1719,-6.1719,-6.1719,-6.1719,-6.1719,-6.1719,-6.1719,-6.1719,-6.1719,-6.1719,-6.1719,-6.1719,-6.1719,-6.1719,-6.1719,-6.1719,0.0,0.0,0.0,0.0,0.0,0.0,0.0,0.0,0.0,0.0,-5.3203,-5.3203,0.0,0.0,0.0,0.0,0.0,0.0,-5.3203,0.0,0.0,-5.4399,-5.517,-5.5287,-5.4659,-5.4549,-5.4248,-5.3691,-5.358,-5.3731,-5.4069,-5.4814,-5.5636,-5.6494,-5.6893,-5.6729,-5.6154,-5.6297,-5.554,-5.4306,-5.445,-5.4007,-5.3262,-5.3315,-5.3385,-5.3356,-5.3356,-5.3933,-5.4664,-5.4664,-5.5126,0.0,0.0,0.0,-5.5703,-5.5703,-5.5703,-5.5703,-5.5703,-5.6973,-5.8742,-6.0512,-6.2166,-6.3538,-6.4397,-6.5282,-6.5897,-6.5897,-6.5897,-6.5897,-6.5897,-6.5897,-6.5897,-6.5897,-6.5897,-6.5897,-6.5897,-6.5897,-6.5897,-6.5897,-6.5897,-6.5897,-6.5897,-6.596,-6.5384,-6.3893,-6.3804,-6.3216,-6.1865,-6.172,-6.1709,-6.1719,-6.1719,-6.1719,-6.1719,-6.1719,-6.1719,-6.1719,-6.1719,-6.1719,-6.1719,-6.1719,-6.1719,-6.1719,-6.1719,-6.1719,-6.1719,-6.1719,-6.1719,-6.1719,-6.1719,-6.1719,-6.1719,-6.1719,-6.1719,-6.1719,0.0,0.0,0.0,0.0,0.0,0.0,0.0,0.0,0.0,0.0,0.0,-5.3203,0.0,0.0,0.0,-5.2527,-5.2123,-5.2071,-5.2537,-5.3345,-5.3813,-5.3937,-5.4289,-5.4367,-5.4098,-5.4121,-5.4014,-5.3776,-5.3795,-5.3907,-5.4089,-5.4427,-5.4819,-5.5283,-5.6049,-5.6132,-5.5579,-5.5326,-5.4865,-5.4269,-5.3898,-5.32,-5.2431,-5.2451,-5.2462,-5.2462,-5.2462,-5.3049,-5.3857,-5.4357,-5.4741,-5.5126,-5.5549,0.0,0.0,0.0,-5.4664,-5.4511,-5.5434,-5.6626,-5.7973,-5.9665,-6.1358,-6.2858,-6.3666,-6.4936,-6.5897,-6.5897,-6.5897,-6.5897,-6.5897,-6.5897,-6.5897,-6.5897,-6.5897,-6.5897,-6.5897,-6.5897,-6.5897,-6.5897,-6.5897,-6.5897,-6.5897,-6.5923,-6.53,-6.3729,-6.3675,-6.3132,-6.1666,-6.1671,-6.1704,-6.1719,-6.1719,-6.1719,-6.1719,-6.1719,-6.1719,-6.1719,-6.1719,-6.1719,-6.1719,-6.1719,-6.1719,-6.1719,-6.1719,-6.1719,-6.1719,-6.1719,-6.1719,-6.1719,-6.1719,-6.1719,-6.1719,-6.1719,-6.1719,-6.1719,0.0,0.0,0.0,0.0,0.0,0.0,0.0,0.0,0.0,0.0,0.0,0.0,0.0,0.0,0.0,0.0,-5.1303,-5.1143,-5.1814,-5.2645,-5.3188,-5.3346,-5.357,-5.3776,-5.3907,-5.3981,-5.4016,-5.4123,-5.4193,-5.433,-5.4495,-5.4629,-5.4645,-5.4597,-5.5474,-5.5655,-5.5237,-5.4594,-5.4238,-5.4024,-5.3451,-5.2692,-5.1923,-5.2154,-5.2231,-5.2192,-5.1962,-5.2462,-5.328,-5.3703,-5.3972,-5.428,-5.4895,-5.4664,0.0,0.0,0.0,-5.351,-5.5011,-5.6011,-5.7099,-5.8781,-6.0473,-6.205,-6.3089,-6.4474,-6.5551,-6.5551,-6.5551,-6.5513,-6.5282,-6.559,-6.5897,-6.5897,-6.5897,-6.5897,-6.5897,-6.5897,-6.5897,-6.5897,-6.5897,-6.5897,-6.5897,-6.5897,-6.5353,-6.4028,-6.3785,-6.3168,-6.1974,-6.1783,-6.1699,-6.1719,-6.1719,-6.1719,-6.1719,-6.1719,-6.1719,-6.1719,-6.1719,-6.1719,-6.1719,-6.1719,-6.1719,-6.1719,-6.1719,-6.1719,-6.1719,-6.1719,-6.1719,-6.1719,-6.1719,-6.1719,-6.1719,-6.1719,-6.1719,-6.1719,0.0,0.0,0.0,0.0,0.0,0.0,0.0,0.0,0.0,0.0,0.0,0.0,-5.3203,-5.2537,-5.2083,-5.2083,-5.1482,-5.1136,-5.1231,-5.2066,-5.2587,-5.2734,-5.3533,0.0,-5.4262,-5.4262,-5.443,-5.4761,-5.4761,-5.4851,-5.5047,-5.5116,-5.5183,-5.5236,-5.5273,-5.5326,-5.5435,-5.4698,-5.3947,-5.3269,-5.3241,-5.2692,-5.2,-5.2818,-5.3126,-5.301,-5.2192,-5.2462,-5.3087,-5.2308,-5.2577,-5.328,-5.3318,-5.3318,-5.328,0.0,0.0,0.0,-5.4318,-5.5164,-5.6203,-5.7934,-5.9627,-6.1281,-6.2935,-6.4012,-6.4666,-6.4666,-6.4666,-6.4436,-6.3589,-6.4782,-6.5897,-6.5897,-6.5897,-6.5897,-6.5897,-6.5897,-6.5897,-6.5897,-6.5897,-6.5897,-6.5897,-6.5897,-6.5623,-6.4879,-6.4134,-6.3401,-6.275,-6.2092,-6.1699,-6.1719,-6.1719,-6.1719,-6.1719,-6.1719,-6.1719,-6.1719,-6.1719,-6.1719,-6.1719,-6.1719,-6.1719,-6.1719,-6.1719,-6.1719,-6.1719,-6.1719,-6.1719,-6.1719,-6.1719,-6.1719,-6.1719,-6.1719,-6.1719,-6.1719,0.0,0.0,0.0,0.0,0.0,0.0,0.0,0.0,0.0,0.0,0.0,0.0,0.0,-5.234,-5.1583,-5.1583,-5.0917,-5.0633,-5.0787,-5.1585,-5.2432,-5.3236,-5.3569,-5.4078,-5.4791,-5.4305,-5.4112,-5.4224,-5.3769,-5.3874,-5.4511,-5.4537,-5.4879,-5.5473,-5.5413,-5.5449,-5.5504,-5.4765,-5.4297,-5.3972,-5.3433,-5.301,-5.2779,-5.3087,-5.3203,-5.3164,-5.2856,-5.2577,-5.2385,-5.2654,-5.2577,-5.2462,-5.301,-5.2818,-5.2269,-5.1741,-5.1972,-5.2538,-5.3433,-5.428,-5.5318,-5.7049,-5.8742,-6.0281,-6.1435,-6.2781,-6.3782,-6.3782,-6.3782,-6.3666,-6.3346,-6.4282,-6.5051,-6.5051,-6.5551,-6.5897,-6.5897,-6.5897,-6.5897,-6.5897,-6.5897,-6.5897,-6.5897,-6.5897,-6.5599,-6.4876,-6.4667,-6.4046,-6.2864,-6.259,-6.2244,-6.1718,-6.1718,-6.1719,-6.1719,-6.1719,-6.1719,-6.1719,-6.1719,-6.1719,-6.1719,-6.1719,-6.1719,-6.1719,-6.1719,-6.1719,-6.1719,-6.1719,-6.1719,-6.1719,-6.1719,-6.1719,-6.1719,-6.1719,-6.1719,-6.1719,0.0,0.0,0.0,0.0,0.0,-5.323,-5.323,-5.3339,-5.3404,-5.3481,0.0,0.0,0.0,0.0,-5.1295,-5.0787,-5.0277,-5.0071,-5.0342,-5.1126,-5.2092,-5.3238,-5.3608,-5.4224,-5.5183,-5.4422,-5.4002,-5.4052,-5.3286,-5.323,-5.3863,-5.3863,-5.4215,-5.4792,-5.5066,-5.5335,-5.5572,-5.4808,-5.4511,-5.4434,-5.3857,-5.3626,-5.3664,-5.3933,-5.4049,-5.401,-5.3741,-5.328,-5.2818,-5.3087,-5.2615,-5.2,-5.2577,-5.2202,-5.1395,-5.0866,-5.1087,-5.1702,-5.2549,-5.3395,-5.4472,-5.6137,-5.7627,-5.8973,-6.0089,-6.1435,-6.2474,-6.2474,-6.2704,-6.282,-6.2512,-6.3166,-6.3858,-6.4128,-6.4897,-6.5474,-6.5474,-6.5705,-6.5897,-6.5897,-6.5897,-6.5897,-6.5897,-6.5897,-6.5714,-6.528,-6.5074,-6.445,-6.3268,-6.3006,-6.2514,-6.1717,-6.1718,-6.1719,-6.1719,-6.1719,-6.1719,-6.1719,-6.1719,-6.1719,-6.1719,-6.1719,-6.1719,-6.1719,-6.1719,-6.1719,-6.1719,-6.1719,-6.1719,-6.1719,-6.1719,-6.1719,-6.1719,-6.1719,-6.1719,-6.1719,0.0,0.0,-5.3188,-5.3225,-5.3293,-5.3318,-5.3318,-5.3484,-5.3661,-5.3794,0.0,0.0,0.0,0.0,0.0,-4.9768,-4.9631,-4.9703,-4.9817,-5.0681,-5.1661,-5.2666,-5.3582,-5.4485,-5.5389,-5.4623,-5.4261,-5.4348,-5.3492,-5.3102,-5.3164,-5.3164,-5.3164,-5.3241,-5.4087,-5.4895,-5.5588,-5.4857,-5.4511,-5.4511,-5.4511,-5.4549,-5.4626,-5.5395,-5.5703,-5.5588,-5.4818,-5.4511,-5.4357,-5.351,-5.2654,-5.1923,-5.1923,-5.1356,-5.0712,-5.0712,-5.0712,-5.0894,0.0,0.0,0.0,-5.5241,-5.6329,-5.7407,-5.9011,-6.0089,-6.0742,-6.0742,-6.1435,-6.1793,-6.0935,-6.1473,-6.232,-6.3089,-6.3974,-6.4589,-6.4589,-6.532,-6.5859,-6.5897,-6.5897,-6.5897,-6.5897,-6.5897,-6.5946,-6.608,-6.5422,-6.4729,-6.4037,-6.3265,-6.251,-6.1719,-6.1719,-6.1719,-6.1719,-6.1719,-6.1719,-6.1719,-6.1719,-6.1719,-6.1719,-6.1719,-6.1719,-6.1719,-6.1719,-6.1719,-6.1719,-6.1719,-6.1719,-6.1719,-6.1719,-6.1719,-6.1719,-6.1719,-6.1719,-6.1719,0.0,-5.3256,-5.3318,-5.3444,-5.3504,-5.3563,-5.3719,-5.3907,-5.4072,0.0,0.0,0.0,-5.4591,-5.3762,-5.2617,-5.1052,-5.09,-5.0723,-5.0274,-5.0488,-5.1323,-5.2904,-5.3234,-5.4073,-5.5588,-5.482,-5.415,-5.3518,-5.2672,-5.2259,-5.2269,-5.2269,-5.2577,-5.3203,-5.3433,-5.3664,-5.3972,-5.4934,-5.5011,-5.4549,-5.5126,-5.5357,-5.5395,-5.5626,-5.5703,-5.5665,-5.5434,-5.4972,-5.4472,-5.4203,-5.3549,-5.2731,-5.2115,-5.1356,-5.0712,-5.0712,-5.0712,-5.102,-5.2472,0.0,0.0,0.0,0.0,0.0,-5.678,-5.7896,-5.9165,-5.9742,-6.005,-6.0319,-6.0742,-6.1012,-6.1243,-6.1473,-6.2704,-6.3897,-6.4512,-6.482,-6.5205,-6.582,-6.5897,-6.5897,-6.5897,-6.5897,-6.5947,-6.6005,-6.5381,-6.4679,-6.3909,-6.2715,-6.1938,-6.1719,-6.1719,-6.1719,-6.1719,-6.1719,-6.1719,-6.1719,-6.1719,-6.1719,-6.1719,-6.1719,-6.1719,-6.1719,-6.1719,-6.1719,-6.1719,-6.1719,-6.1719,-6.1719,-6.1719,-6.1719,-6.1719,-6.1719,-6.1719,-6.1719,-5.3383,-5.3481,-5.3524,-5.3699,-5.3795,-5.3925,-5.4034,-5.43,-5.4463,0.0,0.0,0.0,-5.458,-5.4204,-5.3455,-5.2191,-5.177,-5.1396,-5.1015,-5.067,-5.1135,-5.2536,-5.2969,-5.3787,-5.5164,-5.4741,-5.4087,-5.3203,-5.2308,-5.1731,-5.1395,-5.1395,-5.1664,-5.2164,-5.251,-5.2472,-5.2279,-5.3933,-5.4395,-5.4049,-5.4857,-5.5203,-5.5241,-5.5549,-5.5703,-5.5703,-5.5703,-5.5395,-5.5011,-5.5011,-5.4434,-5.3549,-5.2269,-5.1587,-5.1202,-5.1202,-5.1202,-5.1471,-5.2856,-5.3472,-5.378,-5.3933,0.0,0.0,-5.5318,-5.6242,-5.7434,-5.828,-5.8742,-5.9165,-5.9665,-6.0012,-6.0242,-6.0242,-6.1396,-6.2551,-6.3435,-6.4166,-6.4782,-6.5282,-6.5667,-6.5897,-6.5897,-6.5897,-6.5935,-6.5996,-6.534,-6.4485,-6.3435,-6.2311,-6.1709,-6.1719,-6.1719,-6.1719,-6.1719,-6.1719,-6.1719,-6.1719,-6.1719,-6.1719,-6.1719,-6.1719,-6.1719,-6.1719,-6.1719,-6.1719,-6.1719,-6.1719,-6.1719,-6.1719,-6.1719,-6.1719,-6.1719,-6.1719,-6.1719,-6.1719,0.0,-5.3757,-5.3907,-5.3999,-5.4193,-5.4364,-5.4397,-5.4654,-5.4918,0.0,-5.5143,-5.5021,-5.4417,-5.4353,-5.3993,-5.308,-5.2363,-5.1896,-5.1708,-5.1017,-5.0998,-5.1846,-5.2654,-5.351,-5.4472,-5.4395,-5.3972,-5.3203,-5.2308,-5.151,-5.0712,-5.0712,-5.0712,-5.075,-5.1471,-5.1356,-5.0789,-5.2279,-5.2933,-5.301,-5.4087,-5.4511,-5.4587,-5.5395,-5.5703,-5.5703,-5.5703,-5.5703,-5.5703,-5.5703,-5.5164,-5.4241,-5.2692,-5.2115,-5.2038,-5.2038,-5.2038,-5.2231,-5.3126,-5.3895,-5.4318,-5.3549,-5.3972,0.0,-5.4511,-5.5126,-5.5934,-5.683,-5.7627,-5.8204,-5.828,-5.8896,-5.9358,-5.9358,-6.0089,-6.0973,-6.1947,-6.3358,-6.4397,-6.4589,-6.5282,-6.5782,-6.5897,-6.5897,-6.5884,-6.583,-6.5087,-6.4069,-6.275,-6.2067,-6.1708,-6.1719,-6.1719,-6.1719,-6.1719,-6.1719,-6.1719,-6.1719,-6.1719,-6.1719,-6.1719,-6.1719,-6.1719,-6.1719,-6.1719,-6.1719,-6.1719,-6.1719,-6.1719,-6.1719,-6.1719,-6.1719,-6.1719,-6.1719,-6.1719,-6.1719,-5.4035,-5.4161,-5.4279,-5.4576,-5.467,-5.4776,-5.4966,-5.513,-5.5223,-5.5301,-5.5425,-5.5493,-5.5418,-5.5429,-5.4814,-5.3287,-5.3018,-5.2364,-5.1,-5.0769,-5.1038,-5.1846,-5.2038,-5.2895,-5.4472,-5.3818,-5.3356,-5.3203,-5.2308,-5.151,-5.0712,-5.0712,-5.0712,-5.0712,-5.0856,-5.0866,-5.0712,-5.1058,-5.1202,-5.1395,-5.3626,-5.4511,-5.4587,-5.5395,-5.5703,-5.5703,-5.5703,-5.5703,-5.5703,-5.5703,-5.5164,-5.4434,-5.4087,-5.351,-5.2972,-5.2972,-5.2972,-5.3126,-5.401,-5.4357,-5.4472,-5.428,-5.4857,0.0,-5.4664,-5.5126,-5.5934,-5.683,-5.7137,-5.7473,-5.8165,-5.8434,-5.855,-5.855,-5.9204,-6.0281,-6.187,-6.237,-6.3089,-6.4436,-6.4743,-6.5128,-6.582,-6.5897,-6.5602,-6.491,-6.3709,-6.2624,-6.1861,-6.1746,-6.1702,-6.1719,-6.1719,-6.1719,-6.1719,-6.1719,-6.1719,-6.1719,-6.1719,-6.1719,-6.1719,-6.1719,-6.1719,-6.1719,-6.1719,-6.1719,-6.1719,-6.1719,-6.1719,-6.1719,-6.1719,-6.1719,-6.1719,-6.1719,-6.1719,-6.1719,-5.443,-5.4597,-5.4738,-5.4976,-5.5037,-5.5119,-5.5275,-5.5376,-5.5449,-5.5511,-5.5604,-5.5671,-5.5703,-5.5703,-5.5357,-5.4511,-5.3664,-5.2856,-5.201,-5.1164,-5.0894,-5.1279,-5.1692,-5.2308,-5.3203,-5.3203,-5.301,-5.2538,-5.2115,-5.151,-5.0712,-5.0712,-5.0712,-5.0712,-5.0712,-5.0712,-5.0712,-5.0712,-5.0712,-5.0866,-5.2549,-5.3472,-5.3933,-5.478,-5.5357,-5.5703,-5.5703,-5.5724,-5.5756,-5.5776,-5.5497,-5.5052,-5.4629,-5.4185,-5.3857,-5.3857,-5.3857,-5.4049,-5.4857,-5.5088,-5.5011,-5.4587,-5.478,0.0,0.0,-5.4818,-5.5318,-5.6175,-5.6022,-5.5895,-5.6319,-5.6742,-5.7011,-5.7011,-5.8088,-5.9204,-6.0089,-6.1293,-6.2409,-6.3243,-6.3705,-6.4128,-6.4551,-6.4589,-6.4292,-6.3571,-6.2887,-6.2249,-6.1627,-6.1666,-6.1699,-6.1719,-6.1719,-6.1719,-6.1719,-6.1719,-6.1719,-6.1719,-6.1719,-6.1719,-6.1719,-6.1719,-6.1719,-6.1719,-6.1719,-6.1719,-6.1719,-6.1719,-6.1719,-6.1719,-6.1719,-6.1719,-6.1719,-6.1719,-6.1719,-6.1719,-5.4571,-5.4876,-5.514,-5.5249,-5.5351,-5.5425,-5.5476,-5.5531,-5.5638,-5.5638,-5.5682,-5.5703,-5.5703,-5.5703,-5.5626,-5.5472,-5.4241,-5.3395,-5.3203,-5.1933,-5.1087,-5.0933,-5.1548,-5.1885,-5.1885,-5.2433,-5.2472,-5.1885,-5.1731,-5.1356,-5.0712,-5.0712,-5.0712,-5.0712,-5.0712,-5.0712,-5.0712,-5.0712,-5.0712,-5.075,-5.1395,-5.2279,-5.3328,-5.4377,-5.5158,-5.5756,-5.5766,-5.5797,-5.5847,-5.5914,-5.5856,-5.5701,-5.4969,-5.4785,-5.4773,-5.4762,-5.4762,-5.4878,-5.5532,-5.5724,-5.557,-5.4927,-5.4762,-5.4762,0.0,0.0,0.0,-5.5318,-5.4818,-5.4241,-5.4241,-5.478,-5.528,-5.5434,-5.678,-5.7857,-5.805,-5.9973,-6.1447,-6.1601,-6.232,-6.2897,-6.3051,-6.3089,-6.2876,-6.2414,-6.2331,-6.2055,-6.1627,-6.1666,-6.1699,-6.1719,-6.1719,-6.1719,-6.1719,-6.1719,-6.1719,-6.1719,-6.1719,-6.1719,-6.1719,-6.1719,-6.1719,-6.1719,-6.1719,-6.1719,-6.1719,-6.1719,-6.1719,-6.1719,-6.1719,-6.1719,-6.1719,-6.1719,-6.1719,-6.1719,-5.3938,-5.4753,-5.5389,-5.552,-5.5581,-5.5615,-5.5671,-5.5692,-5.5692,-5.5692,-5.5703,-5.5703,-5.5703,-5.5703,-5.5395,-5.4703,-5.4472,-5.401,-5.3241,-5.301,-5.2587,-5.1808,-5.1846,-5.1885,-5.1885,-5.1318,-5.1279,-5.1885,-5.1202,-5.0789,-5.0712,-5.0712,-5.0712,-5.0712,-5.0712,-5.0712,-5.0712,-5.0712,-5.0712,-5.0712,-5.0789,-5.1809,-5.3465,-5.5055,-5.576,-5.5875,-5.5921,-5.5977,-5.5986,-5.5995,-5.5921,-5.5884,-5.5768,-5.5731,-5.5721,-5.5681,-5.5671,-5.5671,-5.5748,-5.5787,-5.5797,-5.576,-5.5701,-5.5671,-5.5671,0.0,-5.4511,-5.4626,0.0,-5.3356,-5.3356,0.0,0.0,-5.4511,-5.5395,-5.628,-5.706,-5.805,-5.9011,-5.9704,-6.055,-6.1396,-6.2178,-6.2255,-6.227,-6.2375,-6.175,-6.1401,-6.1588,-6.1666,-6.1699,-6.1719,-6.1719,-6.1719,-6.1719,-6.1719,-6.1719,-6.1719,-6.1719,-6.1719,-6.1719,-6.1719,-6.1719,-6.1719,-6.1719,-6.1719,-6.1719,-6.1719,-6.1719,-6.1719,-6.1719,-6.1719,-6.1719,-6.1719,-6.1719,-6.1719,-5.3315,-5.3786,-5.41,-5.4188,-5.4633,-5.4989,-5.5011,-5.5395,-5.5703,-5.5703,-5.5703,-5.5703,-5.5703,-5.5703,-5.5549,-5.5241,-5.478,-5.4357,-5.3972,-5.3472,-5.3049,-5.2654,-5.2154,-5.1885,-5.1885,-5.1125,-5.0866,-5.1202,-5.0866,-5.0712,-5.0712,-5.0712,-5.0712,-5.0712,-5.0712,-5.0712,-5.0712,-5.0712,-5.0683,-5.0789,-5.179,-5.2684,-5.3486,-5.4101,-5.5025,-5.5952,-5.6087,-5.6117,-5.6124,-5.6146,-5.6132,-5.6087,-5.604,-5.599,-5.5938,-5.5932,-5.5904,-5.5876,-5.5876,-5.5856,-5.5875,-5.5895,-5.548,-5.5055,-5.5055,-5.4359,-5.3741,-5.3741,0.0,0.0,0.0,0.0,0.0,0.0,-5.3703,-5.4395,-5.4741,-5.5549,-5.678,-5.8588,-5.9127,-5.9473,-5.9858,-5.9896,-5.9958,-6.0132,-6.0317,-6.0546,-6.0847,-6.1392,-6.1699,-6.1719,-6.1719,-6.1719,-6.1719,-6.1719,-6.1719,-6.1719,-6.1719,-6.1719,-6.1719,-6.1719,-6.1719,-6.1719,-6.1719,-6.1719,-6.1719,-6.1719,-6.1719,-6.1719,-6.1719,-6.1719,-6.1719,-6.1719,-6.1719,-6.1719,-5.2333,-5.2822,-5.3151,-5.3192,-5.3703,-5.4203,-5.4472,-5.5164,-5.5703,-5.5703,-5.5703,-5.5703,-5.5703,-5.5703,-5.5703,-5.5703,-5.5164,-5.4818,-5.4818,-5.4241,-5.378,-5.3587,-5.2972,-5.2385,-5.1923,-5.1318,-5.0933,-5.0712,-5.0712,-5.0712,-5.0712,-5.0712,-5.0712,-5.0712,-5.0933,-5.101,-5.1048,-5.1299,-5.1414,-5.1538,-5.2838,-5.3589,-5.3938,-5.4065,-5.4955,-5.6128,-5.6224,-5.6253,-5.6253,-5.6308,-5.6292,-5.6257,-5.6201,-5.6153,-5.6071,-5.6056,-5.6024,-5.599,-5.5982,-5.5977,-5.5902,-5.5671,-5.5084,-5.4487,-5.4236,-5.3484,-5.2933,-5.3164,-5.25,0.0,0.0,0.0,-5.2269,-5.2269,0.0,-5.3203,-5.3203,-5.3741,-5.4934,-5.7011,-5.7665,-5.805,-5.828,-5.8319,-5.8379,-5.8479,-5.9155,-5.9653,-5.9911,-6.0612,-6.1113,-6.1328,-6.1328,-6.1445,-6.1719,-6.1719,-6.1562,-6.1328,-6.1328,-6.1211,-6.1015,-6.1015,-6.1015,-6.1015,-6.125,-6.1289,-6.125,-6.1562,-6.1719,-6.1719,-6.1719,-6.1719,-6.1719,-6.1719,-6.1719,-6.1719,-5.0779,-5.2087,-5.3192,-5.3203,-5.3241,-5.3549,-5.4357,-5.5164,-5.5703,-5.5703,-5.5703,-5.5703,-5.5703,-5.5703,-5.5703,-5.5703,-5.5665,-5.5665,-5.5665,-5.5626,-5.528,-5.4472,-5.4434,-5.3626,-5.1923,-5.1885,-5.1471,-5.0712,-5.0712,-5.0712,-5.0712,-5.0712,-5.0712,-5.075,-5.151,-5.1846,-5.1933,-5.2839,-5.3234,-5.3213,-5.3434,-5.4093,-5.503,-5.5896,-5.6281,-5.6386,-5.6386,-5.64,-5.6397,-5.6418,-5.6398,-5.6381,-5.6393,-5.6329,-5.6292,-5.6226,-5.6207,-5.6201,-5.6199,-5.6124,-5.5901,-5.5125,-5.4807,-5.4464,-5.3569,-5.2627,-5.2192,-5.3049,-5.25,-5.2154,-5.301,-5.3164,-5.3164,-5.3164,-5.3164,0.0,0.0,-5.3241,-5.3587,-5.4511,-5.6049,-5.7357,-5.8204,-5.8319,-5.8379,-5.8479,-5.8574,-5.8759,-5.9014,-5.9129,-5.9553,-6.043,-6.043,-6.0859,-6.168,-6.1719,-6.1289,-6.043,-6.043,-6.0039,-5.9297,-5.9297,-5.9297,-5.9336,-6.0117,-6.0273,-6.0156,-6.125,-6.1719,-6.1719,-6.1719,-6.1719,-6.1719,-6.1719,-6.1719,-6.1719,-5.0712,-5.1174,-5.1548,-5.1548,-5.201,-5.2818,-5.428,-5.5164,-5.5703,-5.5703,-5.5703,-5.5703,-5.5703,-5.5703,-5.5703,-5.5703,-5.5703,-5.5703,-5.5703,-5.5703,-5.5588,-5.5318,-5.478,-5.4203,-5.3626,-5.25,-5.1769,-5.151,-5.151,-5.1202,-5.0712,-5.1241,-5.1202,-5.0712,-5.0971,-5.1395,-5.1933,-5.23,-5.2809,-5.3442,-5.4226,-5.5127,-5.5969,-5.6238,-5.641,-5.6471,-5.6475,-5.6487,-5.6487,-5.6482,-5.648,-5.6472,-5.6485,-5.6432,-5.6422,-5.6351,-5.6324,-5.6334,-5.6324,-5.6275,-5.6168,-5.5838,-5.4876,-5.4018,-5.4246,-5.3133,-5.2269,-5.3167,-5.308,-5.2964,-5.3273,-5.3311,-5.3148,-5.2493,-5.2406,-5.2204,0.0,-5.201,-5.2654,-5.3549,-5.4664,-5.5665,-5.6511,-5.6588,-5.6645,-5.6845,-5.745,-5.7904,-5.8116,-5.8738,-5.9278,-5.9609,-5.9609,-5.9765,-6.0039,-6.0039,-5.9883,-5.9609,-5.9609,-5.9453,-5.9219,-5.9219,-5.9375,-5.9726,-5.9648,-6.0195,-6.1133,-6.1523,-6.1719,-6.1719,-6.1719,-6.1719,-6.1719,-6.1719,-6.1719,-6.1719,-5.0712,-5.0712,-5.0712,-5.0712,-5.1625,-5.2741,-5.3857,-5.4972,-5.5703,-5.5703,-5.5703,-5.5703,-5.5703,-5.5703,-5.5703,-5.5703,-5.5703,-5.5703,-5.5703,-5.5703,-5.5703,-5.5703,-5.5203,-5.478,-5.4511,-5.3395,-5.2654,-5.2346,-5.2346,-5.1933,-5.1125,-5.1654,-5.1471,-5.0712,-5.101,-5.1587,-5.2395,-5.2801,-5.349,-5.4405,-5.5239,-5.5929,-5.643,-5.647,-5.6516,-5.6526,-5.6549,-5.6554,-5.6554,-5.6551,-5.655,-5.6549,-5.6534,-5.6528,-5.6526,-5.6475,-5.6455,-5.6439,-5.6432,-5.639,-5.6295,-5.5919,-5.4956,-5.4142,-5.4343,-5.3476,-5.2879,-5.3718,-5.3902,-5.3971,-5.4244,-5.4273,-5.3908,-5.2637,-5.2473,-5.203,0.0,-5.1164,-5.1779,-5.2626,-5.351,-5.4357,-5.5203,-5.528,-5.5478,-5.5929,-5.6551,-5.7042,-5.724,-5.7835,-5.8341,-5.871,-5.875,-5.8906,-5.9219,-5.9219,-5.9023,-5.875,-5.875,-5.8594,-5.8281,-5.8281,-5.8476,-5.8789,-5.8437,-5.9101,-6.0547,-6.1015,-6.1406,-6.1719,-6.1719,-6.1719,-6.1719,-6.1719,-6.1719,-6.1719,-5.0712,-5.075,-5.0789,-5.0827,-5.2125,-5.3203,-5.328,-5.4664,-5.5703,-5.5703,-5.5703,-5.5703,-5.5703,-5.5703,-5.5703,-5.5703,-5.5703,-5.5703,-5.5703,-5.5703,-5.5703,-5.5703,-5.5703,-5.5318,-5.4587,-5.4511,-5.4087,-5.328,-5.328,-5.2818,-5.1885,-5.1923,-5.151,-5.075,-5.151,-5.2356,-5.3251,-5.4226,-5.5161,-5.6056,-5.6377,-5.6514,-5.6507,-5.6597,-5.6599,-5.66,-5.6601,-5.6601,-5.6601,-5.66,-5.6599,-5.6599,-5.6595,-5.6594,-5.6593,-5.6507,-5.6506,-5.6502,-5.6493,-5.6511,-5.629,-5.5376,-5.5078,-5.4803,-5.3991,-5.3741,-5.3913,-5.4715,-5.4855,-5.5102,-5.5775,-5.5912,-5.5343,-5.3581,-5.3244,-5.257,-5.0943,-5.0712,-5.0971,-5.1731,-5.2587,-5.3433,-5.4357,-5.4434,-5.4852,-5.5768,-5.5946,-5.6123,-5.6381,-5.6458,-5.6893,-5.781,-5.7851,-5.8242,-5.9062,-5.9062,-5.8672,-5.7851,-5.7851,-5.7383,-5.6601,-5.6601,-5.6601,-5.6601,-5.6601,-5.7265,-5.8398,-5.9765,-6.0859,-6.164,-6.168,-6.1719,-6.1719,-6.1719,-6.1719,-6.1719,-5.0827,-5.1164,-5.1818,-5.2433,-5.2895,-5.3433,-5.4087,-5.5049,-5.5703,-5.5703,-5.5703,-5.5703,-5.5703,-5.5703,-5.5703,-5.5703,-5.5703,-5.5703,-5.5703,-5.5703,-5.5703,-5.5703,-5.5703,-5.5588,-5.5395,-5.4818,-5.4395,-5.4164,-5.4164,-5.3395,-5.1923,-5.2538,-5.2087,-5.0712,-5.0933,-5.1847,-5.3273,-5.3588,-5.4745,-5.6295,-5.6461,-5.6545,-5.6597,-5.6601,-5.6601,-5.6601,-5.6601,-5.6601,-5.6601,-5.6601,-5.6601,-5.6601,-5.6601,-5.6601,-5.6601,-5.6561,-5.656,-5.6557,-5.6556,-5.6546,-5.645,-5.6204,-5.5639,-5.5255,-5.5628,-5.5176,-5.4957,-5.5758,-5.5901,-5.5961,-5.6121,-5.6117,-5.5513,-5.3662,-5.2232,-5.1222,-5.075,-5.0712,-5.0789,-5.0971,-5.1202,-5.1933,-5.3395,-5.3549,-5.3927,-5.4928,-5.5078,-5.5514,-5.6342,-5.6449,-5.6612,-5.6911,-5.6914,-5.7031,-5.7265,-5.7265,-5.7148,-5.6914,-5.6914,-5.6836,-5.6601,-5.6601,-5.6601,-5.6601,-5.6601,-5.7265,-5.8359,-5.918,-6.0,-6.0781,-6.1445,-6.1719,-6.1719,-6.1719,-6.1719,-6.1719,-5.1318,-5.1895,-5.2731,-5.3626,-5.378,-5.3933,-5.4434,-5.5164,-5.5703,-5.5703,-5.5703,-5.5703,-5.5703,-5.5703,-5.5703,-5.5703,-5.5703,-5.5703,-5.5703,-5.5703,-5.5703,-5.5703,-5.5703,-5.5703,-5.5703,-5.5241,-5.5011,-5.5011,-5.4664,-5.3818,-5.2462,0.0,0.0,-5.0702,-5.0702,-5.1664,-5.3397,-5.4281,-5.5357,-5.6432,-5.6489,-5.6554,0.0,-5.6601,-5.6601,-5.6601,-5.6601,-5.6601,-5.6601,-5.6601,-5.6601,-5.6601,-5.6601,-5.6601,-5.6601,-5.6601,-5.6601,-5.6601,-5.6601,-5.6558,-5.6551,-5.6548,-5.6147,-5.5897,-5.6341,-5.6056,-5.5847,-5.6281,-5.6386,-5.6359,-5.6253,-5.6239,-5.5617,-5.373,-5.2248,-5.1154,-5.0741,-5.0702,-5.0693,-5.0712,-5.0712,-5.1058,-5.201,-5.2433,-5.306,-5.4023,-5.4542,-5.5091,-5.5696,-5.623,-5.6526,-5.6554,-5.656,-5.6601,-5.6601,-5.66,-5.66,-5.6601,-5.6601,-5.6601,-5.6601,-5.6601,-5.6601,-5.6601,-5.6601,-5.7383,-5.8711,-5.9062,-5.9883,-6.1015,-6.1523,-6.1719,-6.1719,-6.1719,-6.1719,-6.1719,-5.2231,-5.2856,-5.3626,-5.4511,-5.4664,-5.4664,-5.4664,-5.5241,-5.5703,-5.5703,-5.5703,-5.5703,-5.5703,-5.5703,-5.5703,-5.5703,-5.5703,-5.5703,-5.5703,-5.5703,-5.5703,-5.5703,-5.5703,-5.5703,-5.5703,-5.5703,-5.5703,-5.5703,-5.4895,-5.4049,-5.3164,0.0,0.0,-5.0701,-5.071,-5.1747,-5.3567,-5.5514,-5.6377,-5.6514,-5.6499,-5.6557,-5.6601,-5.6601,-5.6601,-5.6601,-5.6601,-5.6601,-5.6601,-5.6601,-5.6601,-5.6601,-5.6601,-5.6601,-5.6601,-5.6601,-5.6601,-5.6601,-5.6601,-5.6601,-5.66,-5.66,-5.6556,-5.6508,-5.6507,-5.6501,-5.6491,-5.6519,-5.6506,-5.6482,-5.6342,-5.6241,-5.5598,-5.3948,-5.2915,-5.1987,-5.1162,-5.096,-5.0894,-5.0875,-5.076,0.0,-5.0712,-5.1318,-5.2145,-5.3051,-5.4044,-5.4699,-5.4893,-5.5892,-5.648,-5.6502,-5.6556,-5.6599,-5.6599,-5.6596,-5.6596,-5.6599,-5.6599,-5.6601,-5.6601,-5.6601,-5.6601,-5.6601,-5.6719,-5.7617,-5.9062,-5.9258,-6.0273,-6.1719,-6.1719,-6.1719,-6.1719,-6.1719,-6.1719,-6.1719,-5.4049,-5.4164,-5.4511,-5.5357,-5.5472,-5.5472,-5.5472,-5.5588,-5.5703,-5.5703,-5.5703,-5.5703,-5.5703,-5.5703,-5.5703,-5.5703,-5.5703,-5.5703,-5.5703,-5.5703,-5.5703,-5.5703,-5.5703,-5.5703,-5.5703,-5.5703,-5.5703,-5.5703,-5.4895,-5.4049,-5.3164,-5.2308,-5.1453,-5.0701,-5.0747,-5.1834,-5.3786,-5.5589,-5.6449,-5.6487,-5.6553,-5.66,-5.6601,-5.6601,-5.6601,-5.6601,-5.6601,-5.6601,-5.6601,-5.6601,-5.6601,-5.6601,-5.6601,-5.6601,-5.6601,-5.6601,-5.6601,-5.6601,-5.6601,-5.6601,-5.6601,-5.6601,-5.6601,-5.6562,-5.6598,-5.6597,-5.6595,-5.6589,-5.6587,-5.6577,-5.6461,-5.5784,-5.5118,-5.4717,-5.387,-5.3182,-5.3017,-5.2318,-5.1842,-5.178,-5.1154,-5.0712,-5.0712,-5.0827,-5.127,-5.2165,-5.3168,-5.4056,-5.4854,-5.5879,-5.643,-5.6502,-5.6556,-5.6599,-5.6599,-5.6596,-5.6596,-5.6599,-5.6599,-5.6601,-5.6601,-5.6601,-5.6601,-5.664,-5.7344,-5.7851,-5.8242,-5.9609,-6.0781,-6.1719,-6.1719,-6.1719,-6.1719,-6.1719,-6.1719,-6.1719,-5.4511,-5.4857,-5.5241,-5.5626,-5.5703,-5.5703,-5.5703,-5.5703,-5.5703,-5.5703,-5.5703,-5.5703,-5.5703,-5.5703,-5.5703,-5.5703,-5.5703,-5.5703,-5.5703,-5.5703,-5.5703,-5.5703,-5.5703,-5.5703,-5.5703,-5.5703,-5.5703,-5.5703,-5.4434,-5.3626,-5.3164,-5.1876,-5.1125,-5.0859,-5.1865,-5.284,-5.3857,-5.5662,-5.6484,-5.6545,-5.6597,-5.6601,-5.6601,-5.6601,-5.6601,-5.6601,-5.6601,-5.6601,-5.6601,-5.6601,-5.6601,-5.6601,-5.6601,-5.6601,-5.6601,-5.6601,-5.6601,-5.6601,-5.6601,-5.6601,-5.6601,-5.6601,-5.6601,-5.6601,-5.6601,-5.6601,-5.6601,-5.66,-5.6598,-5.6591,-5.6516,-5.6094,-5.5584,-5.5075,-5.4588,-5.4103,-5.3621,-5.315,-5.2655,-5.2112,-5.167,-5.1218,-5.075,-5.0702,-5.0866,-5.1279,-5.2696,-5.3693,-5.4207,-5.5623,-5.641,-5.6487,-5.6585,-5.6592,-5.6592,-5.6585,-5.6588,-5.6597,-5.6597,-5.6834,-5.7265,-5.7265,-5.7539,-5.7969,-5.8398,-5.8828,-5.9297,-6.0547,-6.1328,-6.1719,-6.1719,-6.1719,-6.1719,-6.1719,-6.1719,-6.1719,-5.4741,-5.528,-5.5703,-5.5703,-5.5703,-5.5703,-5.5703,-5.5703,-5.5703,-5.5703,-5.5703,-5.5703,-5.5703,-5.5703,-5.5703,-5.5703,-5.5703,-5.5703,-5.5703,-5.5703,-5.5703,-5.5703,-5.5703,-5.5703,-5.5703,-5.5703,-5.5703,-5.5703,-5.4203,-5.3395,-5.3184,-5.1693,-5.1099,-5.1277,-5.2991,-5.3888,-5.4216,-5.5821,-5.6546,-5.6595,-5.6599,-5.6601,-5.6601,-5.6601,-5.6601,-5.6601,-5.6601,-5.6601,-5.6601,-5.6601,-5.6601,-5.6601,-5.6601,-5.6601,-5.6601,-5.6601,-5.6601,-5.6601,-5.6601,-5.6601,-5.6601,-5.6601,-5.6601,-5.6601,-5.6601,-5.6601,-5.6601,-5.6601,-5.6601,-5.6595,-5.6528,-5.6488,-5.6215,-5.5528,-5.5371,-5.5047,-5.4296,-5.4058,-5.3564,-5.2546,-5.2252,-5.1777,-5.0815,-5.0729,-5.0729,-5.0729,-5.2279,-5.3336,-5.3605,-5.521,-5.6234,-5.65,-5.6567,-5.658,-5.6582,-5.6573,-5.6619,-5.6595,-5.6868,-5.7302,-5.8008,-5.8242,-5.8672,-5.9219,-5.9375,-5.9922,-6.0742,-6.1406,-6.1719,-6.1719,-6.1719,-6.1719,-6.1719,-6.1719,-6.1719,-6.1719,-5.5588,-5.5665,-5.5703,-5.5703,-5.5703,-5.5703,-5.5703,-5.5703,-5.5703,-5.5703,-5.5703,-5.5703,-5.5703,-5.5703,-5.5703,-5.5703,-5.5703,-5.5703,-5.5703,-5.5703,-5.5703,-5.5703,-5.5703,-5.5703,-5.5703,-5.5703,-5.5703,-5.5703,-5.4818,-5.4003,-5.3282,-5.2396,-5.2058,-5.2323,-5.3403,-5.4333,-5.5148,-5.616,-5.6598,-5.6599,-5.6601,-5.6601,-5.6601,-5.6601,-5.6601,-5.6601,-5.6601,-5.6601,-5.6601,-5.6601,-5.6601,-5.6601,-5.6601,-5.6601,-5.6601,-5.6601,-5.6601,-5.6601,-5.6601,-5.6601,-5.6601,-5.6601,-5.6601,-5.6601,-5.6601,-5.6601,-5.6601,-5.6601,-5.6601,-5.6598,-5.6592,-5.6536,-5.6477,-5.6386,-5.6354,-5.632,-5.6143,-5.5478,-5.4597,-5.3566,-5.2743,-5.1896,-5.0957,-5.0872,-5.0872,-5.0872,-5.1771,-5.2709,-5.3566,-5.4611,-5.5592,-5.6485,-5.6516,-5.6495,-5.6504,-5.658,-5.6588,-5.6599,-5.7653,-5.8163,-5.8281,-5.9336,-5.957,-5.9258,-5.9961,-6.0781,-6.1562,-6.168,-6.1719,-6.1719,-6.1719,-6.1719,-6.1719,-6.1719,-6.1719,-6.1719,-5.5703,-5.5703,-5.5703,-5.5703,-5.5703,-5.5703,-5.5703,-5.5703,-5.5703,-5.5703,-5.5703,-5.5703,-5.5703,-5.5703,-5.5703,-5.5703,-5.5703,-5.5703,-5.5703,-5.5703,-5.5703,-5.5703,-5.5703,-5.5703,-5.5703,-5.5703,-5.5703,-5.5703,-5.4895,-5.4349,-5.3986,-5.324,-5.3,-5.3286,-5.4258,-5.4888,-5.53,-5.6209,-5.6601,-5.6601,-5.6601,-5.6601,-5.6601,-5.6601,-5.6601,-5.6601,-5.6601,-5.6601,-5.6601,-5.6601,-5.6601,-5.6601,-5.6601,-5.6601,-5.6601,-5.6601,-5.6601,-5.6601,-5.6601,-5.6601,-5.6601,-5.6601,-5.6601,-5.6601,-5.6601,-5.6601,-5.6601,-5.6601,-5.6601,-5.6599,-5.6597,-5.6588,-5.6575,-5.6571,-5.6548,-5.6482,-5.6464,-5.6164,-5.538,-5.3897,-5.3408,-5.2615,-5.1121,-5.0968,-5.0945,-5.0921,-5.171,-5.2632,-5.3605,-5.4525,-5.5458,-5.641,-5.6488,-5.6514,-5.6495,-5.6579,-5.6589,-5.6599,-5.7576,-5.8319,-5.8867,-5.9805,-6.039,-6.0703,-6.1055,-6.1367,-6.1719,-6.1719,-6.1719,-6.1719,-6.1719,-6.1719,-6.1719,-6.1719,-6.1719,-6.1719,-5.5703,-5.5703,-5.5703,-5.5703,-5.5703,-5.5703,-5.5703,-5.5703,-5.5703,-5.5703,-5.5703,-5.5703,-5.5703,-5.5703,-5.5703,-5.5703,-5.5703,-5.5703,-5.5703,-5.5703,-5.5703,-5.5703,-5.5703,-5.5703,-5.5703,-5.5703,-5.5714,-5.5735,-5.5158,-5.4785,-5.4573,-5.3832,-5.3775,-5.4258,-5.4925,-5.5418,-5.5701,-5.6328,-5.6601,-5.6601,-5.6601,-5.6601,-5.6601,-5.6601,-5.6601,-5.6601,-5.6601,-5.6601,-5.6601,-5.6601,-5.6601,-5.6601,-5.6601,-5.6601,-5.6601,-5.6601,-5.6601,-5.6601,-5.6601,-5.6601,-5.6601,-5.6601,-5.6601,-5.6601,-5.6601,-5.6601,-5.6601,-5.6601,-5.6601,-5.66,-5.66,-5.6596,-5.6588,-5.6588,-5.6577,-5.6521,-5.6511,-5.6494,-5.5918,-5.439,-5.3978,-5.3195,-5.1605,-5.1212,-5.1009,-5.0944,-5.1742,-5.2647,-5.3644,-5.4517,-5.5447,-5.6386,-5.6461,-5.6497,-5.6493,-5.658,-5.6593,-5.66,-5.7733,-5.8671,-5.9453,-6.0351,-6.1133,-6.1719,-6.1719,-6.1719,-6.1719,-6.1719,-6.1719,-6.1719,-6.1719,-6.1719,-6.1719,-6.1719,-6.1719,-6.1719,-5.5703,-5.5703,-5.5703,-5.5703,-5.5703,-5.5703,-5.5703,-5.5703,-5.5703,-5.5703,-5.5703,-5.5703,-5.5703,-5.5703,-5.5703,-5.5703,-5.5703,-5.5703,-5.5703,-5.5703,-5.5703,-5.5703,-5.5703,-5.5703,-5.5703,-5.5703,-5.5735,-5.5797,-5.5797,-5.5431,-5.477,-5.4119,-5.4277,-5.5187,-5.5257,-5.5776,-5.656,-5.6601,-5.6601,-5.6601,-5.6601,-5.6601,-5.6601,-5.6601,-5.6601,-5.6601,-5.6601,-5.6601,-5.6601,-5.6601,-5.6601,-5.6601,-5.6601,-5.6601,-5.6601,-5.6601,-5.6601,-5.6601,-5.6601,-5.6601,-5.6601,-5.6601,-5.6601,-5.6601,-5.6601,-5.6601,-5.6601,-5.6601,-5.6601,-5.6601,-5.6601,-5.6601,-5.6599,-5.6599,-5.6596,-5.6592,-5.6592,-5.654,-5.6172,-5.5304,-5.4414,-5.3549,-5.2587,-5.1696,-5.113,-5.1023,-5.1794,-5.2707,-5.3644,-5.4531,-5.5419,-5.6386,-5.6484,-5.6491,-5.6502,-5.6589,-5.6597,-5.6601,-5.8359,-5.9453,-6.0039,-6.1172,-6.168,-6.1719,-6.1719,-6.1719,-6.1719,-6.1719,-6.1719,-6.1719,-6.1719,-6.1719,-6.1719,-6.1719,-6.1719,-6.1719,-5.5703,-5.5703,-5.5703,-5.5703,-5.5703,-5.5703,-5.5703,-5.5703,-5.5703,-5.5703,-5.5703,-5.5703,-5.5703,-5.5703,-5.5703,-5.5703,-5.5703,-5.5703,-5.5703,-5.5703,-5.5703,-5.5703,-5.5703,-5.5703,-5.5703,-5.5703,-5.5735,-5.5797,-5.5827,-5.5849,-5.5819,-5.5632,-5.5756,-5.6107,-5.6163,-5.6326,-5.6601,-5.6601,-5.6601,-5.6601,-5.6601,-5.6601,-5.6601,-5.6601,-5.6601,-5.6601,-5.6601,-5.6601,-5.6601,-5.6601,-5.6601,-5.6601,-5.6601,-5.6601,-5.6601,-5.6601,-5.6601,-5.6601,-5.6601,-5.6601,-5.6601,-5.6601,-5.6601,-5.6601,-5.6601,-5.6601,-5.6601,-5.6601,-5.6601,-5.6601,-5.6601,-5.6601,-5.6599,-5.6599,-5.6596,-5.6593,-5.6593,-5.6585,-5.6222,-5.5355,-5.4987,-5.4453,-5.3553,-5.316,-5.2962,-5.2919,-5.3682,-5.3987,-5.3649,-5.4459,-5.539,-5.6363,-5.6453,-5.65,-5.6502,-5.6555,-5.66,-5.6601,-5.8359,-5.9883,-6.1172,-6.1523,-6.1719,-6.1719,-6.1719,-6.1719,-6.1719,-6.1719,-6.1719,-6.1719,-6.1719,-6.1719,-6.1719,-6.1719,-6.1719,-6.1719,-5.5703,-5.5703,-5.5703,-5.5703,-5.5703,-5.5703,-5.5703,-5.5703,-5.5703,-5.5703,-5.5703,-5.5703,-5.5703,-5.5703,-5.5703,-5.5703,-5.5703,-5.5703,-5.5703,-5.6011,-5.6214,-5.6214,-5.6511,-5.6665,-5.6665,-5.6686,-5.6547,-5.6309,-5.6145,-5.6336,-5.6816,-5.6875,-5.7157,-5.7528,-5.7575,-5.7382,-5.7109,-5.7109,-5.6914,-5.6601,-5.6601,-5.6601,-5.6601,-5.6601,-5.6601,-5.6601,-5.6601,-5.6601,-5.6601,-5.6601,-5.6601,-5.6601,-5.6601,-5.6601,-5.6601,-5.6601,-5.6601,-5.6601,-5.6601,-5.6601,-5.6601,-5.6601,-5.6601,-5.6601,-5.6601,-5.6601,-5.6601,-5.6601,-5.6601,-5.6601,-5.6601,-5.6601,-5.6601,-5.6601,-5.6599,-5.6598,-5.6598,-5.6594,-5.6394,-5.5843,-5.5445,-5.5001,-5.4474,-5.405,-5.3822,-5.3831,-5.4596,-5.478,-5.42,-5.4977,-5.5747,-5.6437,-5.6475,-5.6516,-5.6551,-5.6597,-5.6601,-5.6601,-5.8359,-6.0078,-6.1719,-6.1719,-6.1719,-6.1719,-6.1719,-6.1719,-6.1719,-6.1719,-6.1719,-6.1719,-6.1719,-6.1719,-6.1719,-6.1719,-6.1719,-6.1719,-5.5703,-5.5703,-5.5703,-5.5703,-5.5703,-5.5703,-5.5703,-5.5703,-5.5703,-5.5703,-5.5703,-5.5703,-5.5703,-5.5703,-5.5703,-5.578,-5.5742,-5.5742,-5.578,-5.656,-5.7022,-5.7099,-5.7857,-5.8319,-5.828,-5.8308,-5.7978,-5.7312,-5.675,-5.694,-5.7814,-5.7869,-5.8353,-5.9216,-5.9218,-5.875,-5.8008,-5.8008,-5.7539,-5.6797,-5.6797,-5.6797,-5.6797,-5.6797,-5.6797,-5.6797,-5.6797,-5.6797,-5.6758,-5.6719,-5.668,-5.668,-5.6601,-5.6601,-5.6601,-5.6601,-5.6601,-5.6601,-5.6601,-5.6601,-5.6601,-5.6601,-5.6601,-5.6601,-5.6601,-5.6601,-5.6601,-5.6601,-5.6601,-5.6601,-5.6601,-5.6601,-5.6601,-5.6601,-5.6601,-5.6601,-5.6601,-5.6601,-5.6599,-5.6599,-5.5894,-5.5381,-5.5375,-5.4615,-5.4084,-5.4096,-5.4757,-5.5199,-5.5199,-5.5916,-5.6381,-5.6506,-5.6511,-5.6534,-5.6599,-5.6599,-5.6679,-5.6797,-5.8476,-6.0117,-6.1719,-6.1719,-6.1719,-6.1719,-6.1719,-6.1719,-6.1719,-6.1719,-6.1719,-6.1719,-6.1719,-6.1719,-6.1719,-6.1719,-6.1719,-6.1719,-5.5703,-5.5703,-5.5703,-5.5703,-5.5703,-5.5703,-5.5703,-5.5703,-5.5703,-5.5703,-5.5703,-5.5703,-5.5703,-5.5703,-5.5972,-5.6637,-5.6088,-5.5972,-5.6637,-5.6907,-5.7291,-5.7973,-5.8204,-5.8303,-5.8319,-5.8333,-5.8374,-5.8404,-5.8364,-5.8499,-5.8772,-5.8854,-5.8981,-5.9216,-5.9218,-5.9101,-5.8906,-5.8906,-5.8789,-5.8594,-5.8594,-5.8594,-5.8594,-5.8594,-5.8594,-5.8594,-5.8594,-5.8594,-5.8476,-5.7812,-5.7578,-5.7461,-5.6797,-5.6601,-5.6601,-5.6601,-5.6601,-5.6601,-5.6601,-5.6601,-5.6601,-5.6601,-5.6601,-5.6601,-5.6601,-5.6601,-5.6601,-5.6601,-5.6601,-5.6601,-5.6601,-5.6601,-5.6601,-5.6601,-5.6601,-5.6601,-5.6601,-5.6601,-5.6599,-5.6599,-5.64,-5.628,-5.6278,-5.6035,-5.587,-5.5866,-5.6045,-5.6157,-5.6167,-5.636,-5.6475,-5.6509,-5.6536,-5.6592,-5.6599,-5.6601,-5.7265,-5.8594,-5.9648,-6.0664,-6.1719,-6.1719,-6.1719,-6.1719,-6.1719,-6.1719,-6.1719,-6.1719,-6.1719,-6.1719,-6.1719,-6.1719,-6.1719,-6.1719,-6.1719,-6.1719,-5.5703,-5.5703,-5.5703,-5.5703,-5.5703,-5.5703,-5.5703,-5.5703,-5.5703,-5.5703,-5.5703,-5.5857,-5.6252,-5.6291,-5.6626,-5.7511,-5.678,-5.6665,-5.755,-5.7934,-5.8357,-5.8819,-5.9242,-5.9469,-5.9485,-5.9531,-5.9547,-5.9431,-5.9131,-5.9237,-5.9699,-5.9721,-5.996,-6.0351,-6.0351,-6.0117,-5.9765,-5.9765,-5.9531,-5.9219,-5.9219,-5.9219,-5.9219,-5.9219,-5.9219,-5.9219,-5.9219,-5.9219,-5.914,-5.8633,-5.8476,-5.8398,-5.793,-5.7773,-5.7773,-5.7773,-5.7226,-5.6601,-5.6601,-5.6601,-5.6601,-5.6601,-5.6601,-5.6601,-5.6601,-5.6601,-5.6601,-5.6601,-5.6601,-5.6601,-5.6601,-5.6601,-5.6601,-5.6601,-5.6601,-5.6601,-5.6601,-5.6601,-5.6601,-5.6601,-5.66,-5.6599,-5.6599,-5.6556,-5.6553,-5.6553,-5.6546,-5.6543,-5.6548,-5.6551,-5.6549,-5.654,-5.6592,-5.6598,-5.6601,-5.6992,-5.8047,-5.9765,-6.0195,-6.0859,-6.1719,-6.1719,-6.1719,-6.1719,-6.1719,-6.1719,-6.1719,-6.1719,-6.1719,-6.1719,-6.1719,-6.1719,-6.1719,-6.1719,-6.1719,-6.1758,-5.5703,-5.5703,-5.5703,-5.5703,-5.5703,-5.5703,-5.5703,-5.5703,-5.5742,-5.5857,-5.5895,-5.6242,-5.7099,-5.7214,-5.755,-5.8396,-5.778,-5.7703,-5.8434,-5.9127,-5.955,-5.9704,-6.0408,-6.0866,-6.0894,-6.1012,-6.0856,-6.0409,-5.9719,-5.9812,-6.0617,-6.0585,-6.0976,-6.1719,-6.1719,-6.1289,-6.0586,-6.0586,-6.0195,-5.957,-5.957,-5.957,-5.957,-5.957,-5.957,-5.957,-5.957,-5.957,-5.957,-5.9414,-5.9375,-5.9375,-5.9258,-5.9219,-5.9219,-5.9219,-5.8164,-5.6953,-5.6836,-5.6719,-5.6601,-5.6601,-5.6719,-5.6797,-5.6797,-5.6914,-5.6992,-5.6992,-5.6992,-5.6953,-5.6836,-5.6797,-5.6758,-5.6601,-5.6601,-5.6601,-5.6601,-5.6601,-5.6601,-5.6601,-5.6601,-5.6601,-5.6601,-5.6601,-5.66,-5.66,-5.6597,-5.6595,-5.6595,-5.6599,-5.6678,-5.6834,-5.6873,-5.6913,-5.6992,-5.7851,-5.8984,-6.039,-6.0547,-6.0976,-6.1719,-6.1719,-6.1719,-6.1719,-6.1719,-6.1719,-6.1719,-6.1719,-6.1719,-6.1719,-6.1719,-6.1719,-6.1719,-6.1719,-6.1797,-6.1992,-5.5703,-5.5703,-5.5703,-5.5703,-5.5703,-5.5703,-5.5703,-5.5703,-5.5972,-5.6714,-5.6791,-5.7137,-5.8011,-5.8088,-5.8434,-5.9242,-5.9204,-5.9165,-5.9319,-5.9435,-5.9819,-6.055,-6.0789,-6.0905,-6.0972,-6.1268,-6.1412,-6.1396,-6.1317,-6.1348,-6.1514,-6.1483,-6.1562,-6.1719,-6.1719,-6.1601,-6.1484,-6.1484,-6.1445,-6.1328,-6.1328,-6.1328,-6.1328,-6.1328,-6.1328,-6.1328,-6.1328,-6.1328,-6.1211,-6.0469,-6.0195,-6.0117,-5.9414,-5.9219,-5.9219,-5.9219,-5.9023,-5.8633,-5.789,-5.7148,-5.6601,-5.6601,-5.7148,-5.7695,-5.7695,-5.8281,-5.8789,-5.8789,-5.8789,-5.8555,-5.7812,-5.7695,-5.7461,-5.6719,-5.6601,-5.6601,-5.6601,-5.6601,-5.6601,-5.6601,-5.6601,-5.6601,-5.6601,-5.6601,-5.6601,-5.6601,-5.6601,-5.6601,-5.6601,-5.6601,-5.7031,-5.8008,-5.8047,-5.8281,-5.8789,-5.9609,-6.0156,-6.039,-6.1133,-6.1562,-6.1719,-6.1719,-6.1719,-6.1719,-6.1719,-6.1719,-6.1719,-6.1719,-6.1719,-6.1719,-6.1719,-6.1719,-6.1719,-6.1719,-6.2187,-6.2812,-5.5703,-5.5703,-5.5703,-5.5703,-5.5703,-5.5703,-5.5703,-5.6088,-5.656,-5.6945,-5.7407,-5.8011,-5.8858,-5.8934,-5.9281,-6.0127,-6.0204,-6.0204,-6.0204,-6.0204,-6.0396,-6.0781,-6.0877,-6.0969,-6.1086,-6.1388,-6.1528,-6.1603,-6.1674,-6.1702,-6.1709,-6.1718,-6.1719,-6.1719,-6.1719,-6.1719,-6.1719,-6.1719,-6.1719,-6.1719,-6.1719,-6.1719,-6.1719,-6.1719,-6.1719,-6.1719,-6.1719,-6.1719,-6.164,-6.125,-6.1094,-6.1055,-6.0664,-6.0547,-6.0547,-6.0547,-5.9922,-5.9101,-5.8711,-5.832,-5.8008,-5.8008,-5.8281,-5.8594,-5.8594,-5.8906,-5.9219,-5.9219,-5.9219,-5.9062,-5.8672,-5.8203,-5.7773,-5.7383,-5.6914,-5.6601,-5.6601,-5.6601,-5.6601,-5.6601,-5.6601,-5.6601,-5.6601,-5.6601,-5.6601,-5.6601,-5.6601,-5.6875,-5.7461,-5.7812,-5.8242,-5.8789,-5.8789,-5.914,-5.9844,-6.0195,-6.0625,-6.1094,-6.1523,-6.1719,-6.1719,-6.1718,-6.1718,-6.1718,-6.1715,-6.1712,-6.1712,-6.1712,-6.1712,-6.1713,-6.1717,-6.1718,-6.1757,-6.2225,-6.2655,-6.3124,-5.5703,-5.5703,-5.5703,-5.5703,-5.5857,-5.6011,-5.6011,-5.6742,-5.7368,-5.7561,-5.8165,-5.8896,-5.9704,-5.9819,-6.0089,-6.0742,-6.0781,-6.0781,-6.0781,-6.0781,-6.0781,-6.0781,-6.0883,-6.106,-6.1252,-6.1402,-6.1544,-6.1612,-6.1679,-6.1704,-6.1709,-6.1718,-6.1719,-6.1719,-6.1719,-6.1719,-6.1719,-6.1719,-6.1719,-6.1719,-6.1719,-6.1719,-6.1719,-6.1719,-6.1719,-6.1719,-6.1719,-6.1719,-6.1719,-6.1719,-6.1719,-6.1719,-6.1719,-6.1719,-6.1719,-6.1719,-6.0781,-5.9726,-5.9531,-5.9336,-5.9219,-5.9219,-5.9336,-5.9492,-5.9492,-5.9648,-5.9765,-5.9765,-5.9765,-5.9765,-5.9765,-5.9062,-5.8437,-5.8242,-5.7461,-5.6914,-5.6914,-5.6719,-5.6601,-5.6601,-5.6601,-5.6601,-5.6601,-5.6601,-5.6601,-5.6601,-5.6601,-5.7148,-5.8437,-5.9062,-5.9414,-5.9492,-5.9492,-5.9883,-6.0703,-6.0703,-6.1055,-6.1719,-6.1719,-6.1719,-6.1719,-6.1718,-6.1716,-6.1715,-6.1663,-6.1692,-6.169,-6.169,-6.1692,-6.1696,-6.1672,-6.1833,-6.2066,-6.277,-6.3237,-6.3783,-5.5703,-5.5703,-5.5703,-5.5703,-5.6368,-5.6907,-5.6907,-5.7627,-5.8473,-5.9204,-5.9358,-5.9742,-6.0589,-6.0704,-6.0742,-6.0781,-6.0781,-6.0781,-6.0781,-6.0781,-6.0781,-6.0781,-6.099,-6.1199,-6.1373,-6.1468,-6.1547,-6.1595,-6.1653,-6.1708,-6.1709,-6.1718,-6.1719,-6.1719,-6.1719,-6.1719,-6.1719,-6.1719,-6.1719,-6.1719,-6.1719,-6.1719,-6.1719,-6.1719,-6.1719,-6.1719,-6.1719,-6.1719,-6.1719,-6.1719,-6.1719,-6.1719,-6.1719,-6.1719,-6.1719,-6.1719,-6.1601,-6.1328,-6.0547,-5.9765,-5.9219,-5.9219,-5.9765,-6.0312,-6.0312,-6.0937,-6.1523,-6.1523,-6.1523,-6.1523,-6.1523,-6.0781,-5.9961,-5.9219,-5.8359,-5.7812,-5.7812,-5.7109,-5.6601,-5.6601,-5.6601,-5.6601,-5.6601,-5.6601,-5.6601,-5.6601,-5.6601,-5.7344,-5.9023,-5.9648,-6.0039,-6.0312,-6.0312,-6.0742,-6.1601,-6.1601,-6.164,-6.1719,-6.1719,-6.1719,-6.1719,-6.1718,-6.1715,-6.1709,-6.1614,-6.1596,-6.1624,-6.1624,-6.1593,-6.1605,-6.1665,-6.2178,-6.292,-6.2998,-6.397,-6.5329,-5.5703,-5.5703,-5.5857,-5.6406,-5.6791,-5.7176,-5.7703,-5.8511,-5.9165,-5.9473,-5.9973,-6.0435,-6.0742,-6.0781,-6.0781,-6.0781,-6.0781,-6.0781,-6.0781,-6.0781,-6.0843,-6.0877,-6.099,-6.1116,-6.1268,-6.1439,-6.1529,-6.1615,-6.169,-6.1709,-6.1709,-6.1718,-6.1719,-6.1719,-6.1719,-6.1719,-6.1758,-6.2265,-6.25,-6.2539,-6.3086,-6.332,-6.332,-6.332,-6.332,-6.332,-6.332,-6.332,-6.332,-6.332,-6.332,-6.3203,-6.2695,-6.25,-6.2383,-6.1875,-6.1719,-6.164,-6.1289,-6.0976,-6.0742,-6.0742,-6.0976,-6.1211,-6.1211,-6.1445,-6.1719,-6.1719,-6.1719,-6.1719,-6.1719,-6.1445,-6.1094,-6.0781,-5.9883,-5.9101,-5.875,-5.8437,-5.8203,-5.8203,-5.8203,-5.8086,-5.7695,-5.7656,-5.7344,-5.664,-5.7617,-5.8945,-6.0664,-6.0937,-6.1094,-6.1211,-6.1211,-6.1367,-6.1719,-6.1719,-6.1718,-6.1718,-6.1718,-6.1717,-6.1715,-6.1705,-6.1694,-6.1642,-6.1552,-6.1547,-6.1525,-6.1525,-6.1539,-6.1608,-6.2203,-6.2652,-6.3047,-6.4091,-6.4899,-6.5503,-5.5703,-5.5703,-5.5972,-5.6868,-5.7253,-5.7703,-5.855,-5.9396,-5.9896,-5.9896,-6.0435,-6.0781,-6.0781,-6.0781,-6.0781,-6.0781,-6.0781,-6.0781,-6.0781,-6.0781,-6.0816,-6.0911,-6.0941,-6.107,-6.1195,-6.1396,-6.1505,-6.1552,-6.1642,-6.1707,-6.1709,-6.1718,-6.1719,-6.1719,-6.1992,-6.2109,-6.2187,-6.3047,-6.3398,-6.3476,-6.4062,-6.4297,-6.4297,-6.4297,-6.4297,-6.4297,-6.4297,-6.4297,-6.4297,-6.4297,-6.4297,-6.4219,-6.3594,-6.3203,-6.2812,-6.1953,-6.1719,-6.1719,-6.1719,-6.1719,-6.1719,-6.1719,-6.1719,-6.1719,-6.1719,-6.1719,-6.1719,-6.1719,-6.1719,-6.1719,-6.1719,-6.1719,-6.1719,-6.1719,-6.1055,-6.039,-6.0039,-5.9531,-5.914,-5.8945,-5.8906,-5.8828,-5.8594,-5.8086,-5.7656,-5.7422,-5.9023,-6.0508,-6.164,-6.1719,-6.1719,-6.1719,-6.1719,-6.1719,-6.1719,-6.1719,-6.1718,-6.1717,-6.1717,-6.1714,-6.1705,-6.169,-6.1824,-6.1989,-6.1909,-6.2034,-6.2264,-6.2264,-6.2289,-6.2369,-6.3029,-6.3409,-6.3803,-6.4922,-6.5514,-6.5779,-5.5703,-5.5703,-5.5972,-5.6868,-5.7742,-5.8588,-5.9396,-6.0242,-6.0781,-6.0781,-6.0781,-6.0781,-6.0781,-6.0781,-6.0781,-6.0781,-6.0781,-6.0781,-6.0781,-6.0781,-6.0816,-6.0911,-6.0941,-6.1051,-6.1182,-6.1394,-6.1512,-6.1529,-6.1668,-6.1702,-6.1709,-6.1718,-6.1719,-6.1758,-6.2617,-6.3008,-6.3086,-6.3945,-6.4297,-6.4297,-6.4336,-6.4336,-6.4336,-6.4336,-6.4336,-6.4336,-6.4336,-6.4336,-6.4336,-6.4336,-6.4336,-6.4336,-6.4297,-6.3711,-6.2851,-6.1953,-6.1719,-6.1719,-6.1719,-6.1719,-6.1719,-6.1719,-6.1719,-6.1719,-6.1719,-6.1719,-6.1719,-6.1719,-6.1719,-6.1719,-6.1719,-6.1719,-6.1719,-6.1719,-6.1719,-6.1719,-6.1719,-6.0273,-5.8984,-5.8398,-5.832,-5.8555,-5.914,-5.7656,-5.7344,-5.9101,-6.0742,-6.1719,-6.1719,-6.1719,-6.1719,-6.1719,-6.1719,-6.1719,-6.1719,-6.1719,-6.1718,-6.1717,-6.1716,-6.1712,-6.1697,-6.1725,-6.2161,-6.2882,-6.2758,-6.3145,-6.3898,-6.3898,-6.392,-6.4007,-6.4099,-6.4582,-6.53,-6.53,-6.5784,-6.6384,-5.5703,-5.6214,-5.6907,-5.7742,-5.8588,-5.9435,-6.0281,-6.0627,-6.0781,-6.0781,-6.0781,-6.0781,-6.0781,-6.0781,-6.0781,-6.0781,-6.0781,-6.0781,-6.0781,-6.0781,-6.0793,-6.0843,-6.0883,-6.098,-6.1051,-6.1787,-6.2251,-6.2401,-6.3094,-6.3492,-6.3506,-6.3515,-6.3515,-6.3555,-6.3789,-6.3906,-6.3984,-6.4844,-6.5195,-6.5273,-6.5898,-6.6133,-6.6133,-6.6133,-6.6133,-6.6133,-6.6133,-6.6133,-6.6133,-6.6133,-6.6133,-6.6015,-6.539,-6.4609,-6.3789,-6.3086,-6.289,-6.2734,-6.1914,-6.1719,-6.1719,-6.1719,-6.1719,-6.1719,-6.1719,-6.1719,-6.1719,-6.1719,-6.1719,-6.1719,-6.1719,-6.1719,-6.1719,-6.1719,-6.1719,-6.1719,-6.1719,-6.1289,-6.0898,-6.0702,-6.0702,-6.0779,-6.0928,-6.0497,-6.0378,-6.084,-6.1348,-6.166,-6.1699,-6.1699,-6.1699,-6.1699,-6.1705,-6.1708,-6.1708,-6.1717,-6.1718,-6.1711,-6.1708,-6.2004,-6.2551,-6.2481,-6.2893,-6.3663,-6.3585,-6.3612,-6.377,-6.377,-6.3796,-6.3914,-6.4497,-6.4908,-6.5226,-6.5754,-6.6075,-6.6235,-5.6742,-5.7165,-5.778,-5.8627,-5.9165,-5.9781,-6.0666,-6.0781,-6.0781,-6.0781,-6.0781,-6.0781,-6.0781,-6.0781,-6.0781,-6.0781,-6.0781,-6.0935,-6.1281,-6.132,-6.1473,-6.1781,-6.1816,-6.1731,-6.1432,-6.2478,-6.3107,-6.3223,-6.3885,-6.4223,-6.4283,-6.4295,-6.4297,-6.4336,-6.4648,-6.4805,-6.4883,-6.5742,-6.6094,-6.6172,-6.668,-6.6914,-6.6914,-6.6914,-6.6914,-6.6914,-6.6914,-6.6914,-6.6914,-6.6914,-6.6914,-6.6758,-6.5859,-6.5234,-6.4648,-6.3672,-6.3398,-6.3164,-6.1992,-6.1719,-6.2031,-6.3398,-6.2734,-6.1719,-6.1719,-6.2773,-6.375,-6.375,-6.3203,-6.2539,-6.1836,-6.1719,-6.1719,-6.1719,-6.1719,-6.1719,-6.1718,-6.1718,-6.1718,-6.1715,-6.1712,-6.1708,-6.1694,-6.1688,-6.164,-6.1588,-6.1585,-6.1624,-6.1663,-6.1663,-6.1663,-6.1663,-6.1674,-6.1837,-6.2152,-6.2171,-6.2175,-6.2207,-6.2197,-6.2593,-6.3384,-6.3307,-6.3702,-6.4411,-6.4388,-6.4507,-6.4715,-6.4715,-6.4733,-6.4829,-6.5342,-6.5535,-6.5574,-6.6003,-6.6155,-6.6119,-5.8319,-5.8357,-5.8627,-5.9358,-5.955,-5.9896,-6.0666,-6.0781,-6.0781,-6.0781,-6.0781,-6.0781,-6.0781,-6.0858,-6.0935,-6.0935,-6.0973,-6.1358,-6.2178,-6.2216,-6.2512,-6.3281,-6.3346,-6.3075,-6.2325,-6.3362,-6.392,-6.4015,-6.4276,-6.4442,-6.4509,-6.4529,-6.4531,-6.457,-6.5351,-6.5703,-6.5781,-6.6562,-6.6914,-6.6914,-6.6914,-6.6914,-6.6914,-6.6914,-6.6914,-6.6914,-6.6914,-6.6914,-6.6914,-6.6914,-6.6914,-6.6758,-6.5976,-6.5703,-6.5469,-6.4101,-6.3711,-6.3476,-6.2461,-6.2148,-6.293,-6.6094,-6.4492,-6.2148,-6.2148,-6.4609,-6.6914,-6.6914,-6.5625,-6.4062,-6.2461,-6.1914,-6.1719,-6.1719,-6.1719,-6.1718,-6.1717,-6.1716,-6.1714,-6.1707,-6.1699,-6.1688,-6.1671,-6.1615,-6.1517,-6.146,-6.1537,-6.1576,-6.1576,-6.1576,-6.1576,-6.1576,-6.1658,-6.2056,-6.285,-6.2971,-6.3023,-6.312,-6.3026,-6.3444,-6.4198,-6.4124,-6.451,-6.5217,-6.5213,-6.5595,-6.6303,-6.6293,-6.6293,-6.6293,-6.6284,-6.6244,-6.6155,-6.6102,-6.6052,-6.5996,-5.8319,-5.8819,-5.9281,-5.9473,-6.005,-6.0589,-6.0781,-6.0781,-6.0781,-6.0781,-6.0781,-6.0781,-6.0781,-6.1408,-6.1831,-6.1831,-6.2397,-6.2858,-6.3051,-6.3051,-6.3128,-6.3269,-6.3935,-6.4243,-6.4063,-6.4387,-6.4676,-6.4838,-6.5662,-6.6124,-6.6266,-6.6322,-6.6327,-6.6328,-6.6523,-6.6601,-6.664,-6.6836,-6.6914,-6.6914,-6.6914,-6.6914,-6.6914,-6.6914,-6.6914,-6.6914,-6.6914,-6.6914,-6.6914,-6.6914,-6.6914,-6.6875,-6.668,-6.6601,-6.6562,-6.625,-6.6133,-6.6094,-6.5859,-6.5781,-6.5937,-6.6719,-6.6328,-6.5781,-6.5781,-6.6367,-6.6914,-6.6914,-6.6601,-6.6211,-6.5859,-6.3555,-6.1719,-6.1719,-6.1719,-6.1718,-6.1717,-6.1714,-6.1704,-6.1718,-6.1702,-6.1666,-6.1627,-6.1355,-6.1207,-6.1172,-6.125,-6.1289,-6.1289,-6.1289,-6.1289,-6.1289,-6.2005,-6.2465,-6.2666,-6.3369,-6.3828,-6.3943,-6.3865,-6.4226,-6.4941,-6.4846,-6.5231,-6.6021,-6.5974,-6.6061,-6.6205,-6.6155,-6.6134,-6.6134,-6.6085,-6.6079,-6.6055,-6.5946,-6.5947,-6.5923,-5.9473,-5.9819,-6.0127,-6.0127,-6.0512,-6.0781,-6.0781,-6.0781,-6.0781,-6.0781,-6.0781,-6.0973,-6.1358,-6.1831,-6.2255,-6.2627,-6.3051,-6.3462,-6.3897,-6.3935,-6.4128,-6.4512,-6.4974,-6.5205,-6.5205,-6.5338,-6.5448,-6.5605,-6.6264,-6.6668,-6.6745,-6.6817,-6.6868,-6.6911,-6.6911,-6.6912,-6.6913,-6.6913,-6.6913,-6.6913,-6.6913,-6.6913,-6.6911,-6.6913,-6.6913,-6.6913,-6.6914,-6.6914,-6.6913,-6.6913,-6.6912,-6.6908,-6.6909,-6.6909,-6.6909,-6.6909,-6.6911,-6.6913,-6.6913,-6.6914,-6.6914,-6.6914,-6.6913,-6.6914,-6.6914,-6.6914,-6.6914,-6.6914,-6.6914,-6.6758,-6.6367,-6.4805,-6.3281,-6.246,-6.1952,-6.1716,-6.1702,-6.1694,-6.1676,-6.1654,-6.1586,-6.145,-6.1246,-6.1151,-6.1087,-6.1044,-6.1113,-6.1152,-6.1152,-6.1152,-6.1346,-6.1772,-6.225,-6.2895,-6.3735,-6.4241,-6.4705,-6.5181,-6.483,-6.5012,-6.5732,-6.5622,-6.5819,-6.6264,-6.6165,-6.6165,-6.6185,-6.6123,-6.6102,-6.6091,-6.6017,-6.6008,-6.5996,-6.596,-6.5972,-6.5946,-6.0781,-6.0781,-6.0781,-6.0781,-6.0781,-6.0781,-6.0781,-6.0781,-6.0858,-6.1012,-6.1012,-6.1358,-6.2204,-6.2447,-6.2858,-6.3666,-6.3743,-6.4051,-6.4782,-6.482,-6.5128,-6.5859,-6.5897,-6.5897,-6.5897,-6.5972,-6.6074,-6.6216,-6.6461,-6.6613,-6.6693,-6.6745,-6.6811,-6.686,-6.6859,-6.6863,-6.6869,-6.687,-6.687,-6.6869,-6.691,-6.6907,-6.6902,-6.6908,-6.691,-6.6911,-6.7108,-6.7146,-6.7064,-6.6948,-6.6862,-6.6885,-6.6887,-6.6885,-6.6885,-6.6887,-6.6898,-6.6868,-6.6869,-6.6872,-6.6873,-6.687,-6.6869,-6.687,-6.6873,-6.6874,-6.6914,-6.6914,-6.6874,-6.6679,-6.5937,-6.5663,-6.5115,-6.3667,-6.2572,-6.186,-6.1738,-6.1687,-6.1654,-6.1596,-6.1415,-6.1179,-6.0838,-6.0932,-6.1041,-6.0954,-6.1022,-6.1099,-6.1254,-6.1254,-6.1679,-6.2529,-6.2694,-6.3497,-6.4929,-6.5093,-6.5548,-6.6253,-6.5627,-6.5674,-6.629,-6.6215,-6.6165,-6.6165,-6.6102,-6.6102,-6.6155,-6.6091,-6.6069,-6.6097,-6.5993,-6.5996,-6.6008,-6.6032,-6.6029,-6.6036,-6.0781,-6.0781,-6.0781,-6.0781,-6.0781,-6.0781,-6.0781,-6.0781,-6.105,-6.1831,-6.1908,-6.2243,-6.3051,-6.382,-6.4628,-6.5474,-6.5551,-6.559,-6.5705,-6.5705,-6.5782,-6.5897,-6.5897,-6.5897,-6.5897,-6.5972,-6.6063,-6.6195,-6.6364,-6.6496,-6.6605,-6.6677,-6.6759,-6.68,-6.6748,-6.6751,-6.6805,-6.6815,-6.6813,-6.6805,-6.686,-6.6901,-6.6895,-6.6902,-6.6905,-6.7021,-6.7952,-6.8141,-6.782,-6.7088,-6.6802,-6.6817,-6.6817,-6.6847,-6.6915,-6.6892,-6.6859,-6.679,-6.6722,-6.6766,-6.6807,-6.6805,-6.6805,-6.6805,-6.6807,-6.6857,-6.6906,-6.6906,-6.6863,-6.6781,-6.6664,-6.6032,-6.5438,-6.5202,-6.3787,-6.2476,-6.1807,-6.1655,-6.159,-6.1451,-6.11,-6.0848,-6.0807,-6.0832,-6.0856,-6.0839,-6.0839,-6.1185,-6.1917,-6.1955,-6.2329,-6.3137,-6.3966,-6.4502,-6.4744,-6.5484,-6.5931,-6.6058,-6.5953,-6.6039,-6.6273,-6.6112,-6.6058,-6.6102,-6.604,-6.6017,-6.6024,-6.6017,-6.6032,-6.602,-6.5947,-6.5947,-6.602,-6.6074,-6.6112,-6.6165,-6.0781,-6.0781,-6.0781,-6.0781,-6.0781,-6.0781,-6.0781,-6.1204,-6.1678,-6.2062,-6.2474,-6.3089,-6.3935,-6.4782,-6.5474,-6.5859,-6.5897,-6.5897,-6.5897,-6.5897,-6.5897,-6.5897,-6.5897,-6.5897,-6.5897,-6.5935,-6.6008,-6.6085,-6.6245,-6.6422,-6.653,-6.6561,-6.6613,-6.6619,-6.6649,-6.6663,-6.6697,-6.6783,-6.6826,-6.6869,-6.6844,-6.684,-6.6826,-6.6853,-6.6856,-6.7045,-6.8493,-6.8327,-6.7372,-6.6939,-6.6785,-6.6808,-6.6791,-6.6735,-6.6696,-6.6669,-6.6678,-6.6646,-6.6654,-6.6674,-6.6688,-6.6705,-6.6697,-6.6693,-6.6629,-6.6677,-6.6705,-6.6753,-6.6759,-6.6753,-6.6742,-6.6424,-6.5982,-6.5453,-6.4739,-6.3604,-6.1849,-6.1538,-6.1383,-6.1104,-6.0896,-6.0804,-6.079,-6.123,-6.1543,-6.1524,-6.1935,-6.2358,-6.2743,-6.2781,-6.3166,-6.4012,-6.4422,-6.4869,-6.537,-6.5741,-6.5982,-6.6001,-6.6001,-6.6047,-6.6123,-6.6052,-6.6029,-6.6047,-6.599,-6.6001,-6.6058,-6.6108,-6.6119,-6.6108,-6.6085,-6.6091,-6.6175,-6.6187,-6.6292,-6.6355]},{"header":{"parameterUnit":"m.s-1","parameterCategory":1,"la1":30.6,"la2":28.766,"lo1":-90.7593,"lo2":-88.6598,"dy":0.0162,"dx":0.0183,"nx":116,"ny":114,"refTime":"2024-04-01T00:00:00:Z","depth":0,"parameterNumber":3,"parameterNumberName":"V-component_of_WINDS"},"data":[0.0,0.0,0.0,0.0,0.0,0.0,0.0,0.0,0.0,0.0,0.0,0.0,0.0,0.0,0.0,0.0,0.0,0.0,0.0,0.0,0.0,0.0,0.0,0.0,0.0,0.0,0.0,0.0,0.0,0.0,0.0,0.0,0.0,0.0,0.0,0.0,0.0,0.0,0.0,0.0,0.0,0.0,0.0,0.0,0.0,0.0,0.0,0.0,0.0,0.0,0.0,0.0,0.0,0.0,0.0,0.0,0.0,0.0,0.0,0.0,0.0,0.0,0.0,0.0,0.0,0.0,0.0,0.0,0.0,0.0,0.0,0.0,0.0,0.0,0.0,0.0,0.0,0.0,0.0,0.0,0.0,0.0,0.0,0.0,0.0,0.0,0.0,0.0,0.0,0.0,0.0,0.0,0.0,0.0,0.0,0.0,0.0,0.0,0.0,0.0,0.0,0.0,0.0,0.0,0.0,0.0,0.0,0.0,0.0,0.0,0.0,0.0,0.0,0.0,0.0,0.0,0.0,0.0,0.0,0.0,0.0,0.0,0.0,0.0,0.0,0.0,0.0,0.0,0.0,0.0,0.0,0.0,0.0,0.0,0.0,0.0,0.0,0.0,0.0,0.0,0.0,0.0,0.0,0.0,0.0,0.0,0.0,0.0,0.0,0.0,0.0,0.0,0.0,0.0,0.0,0.0,0.0,0.0,0.0,0.0,0.0,0.0,0.0,0.0,0.0,0.0,0.0,0.0,0.0,0.0,0.0,0.0,0.0,0.0,0.0,0.0,0.0,0.0,0.0,0.0,0.0,0.0,0.0,0.0,0.0,0.0,0.0,0.0,0.0,0.0,0.0,0.0,0.0,0.0,0.0,0.0,0.0,0.0,0.0,0.0,0.0,0.0,0.0,0.0,0.0,0.0,0.0,0.0,0.0,0.0,0.0,0.0,0.0,0.0,0.0,0.0,0.0,0.0,0.0,0.0,0.0,0.0,0.0,0.0,0.0,0.0,0.0,0.0,0.0,0.0,0.0,0.0,0.0,0.0,0.0,0.0,0.0,0.0,0.0,0.0,0.0,0.0,0.0,0.0,0.0,0.0,0.0,0.0,0.0,0.0,0.0,0.0,0.0,0.0,0.0,0.0,0.0,0.0,0.0,0.0,0.0,0.0,0.0,0.0,0.0,0.0,0.0,0.0,0.0,0.0,0.0,0.0,0.0,0.0,0.0,0.0,0.0,0.0,0.0,0.0,0.0,0.0,0.0,0.0,0.0,0.0,0.0,0.0,0.0,0.0,0.0,0.0,0.0,0.0,0.0,0.0,0.0,0.0,0.0,0.0,0.0,0.0,0.0,0.0,0.0,0.0,0.0,0.0,0.0,0.0,0.0,0.0,0.0,0.0,0.0,0.0,0.0,0.0,0.0,0.0,0.0,0.0,0.0,0.0,0.0,0.0,0.0,0.0,0.0,0.0,0.0,0.0,0.0,0.0,0.0,0.0,0.0,0.0,0.0,0.0,0.0,0.0,0.0,0.0,0.0,0.0,0.0,0.0,0.0,0.0,0.0,0.0,0.0,0.0,0.0,0.0,0.0,0.0,0.0,0.0,0.0,0.0,0.0,0.0,0.0,0.0,0.0,0.0,0.0,0.0,0.0,0.0,0.0,0.0,0.0,0.0,0.0,0.0,0.0,0.0,0.0,0.0,0.0,0.0,0.0,0.0,0.0,0.0,0.0,0.0,0.0,0.0,0.0,0.0,0.0,0.0,0.0,0.0,0.0,0.0,0.0,0.0,0.0,0.0,0.0,0.0,0.0,0.0,0.0,0.0,0.0,0.0,0.0,0.0,0.0,0.0,0.0,0.0,0.0,0.0,0.0,0.0,0.0,0.0,0.0,0.0,0.0,0.0,0.0,0.0,0.0,0.0,0.0,0.0,0.0,0.0,0.0,0.0,0.0,0.0,0.0,0.0,0.0,0.0,0.0,0.0,0.0,0.0,0.0,0.0,0.0,0.0,0.0,0.0,0.0,0.0,0.0,0.0,0.0,0.0,0.0,0.0,0.0,0.0,0.0,0.0,0.0,0.0,0.0,0.0,0.0,0.0,0.0,0.0,0.0,0.0,0.0,0.0,0.0,0.0,0.0,0.0,0.0,0.0,0.0,0.0,0.0,0.0,0.0,0.0,0.0,0.0,0.0,0.0,0.0,0.0,0.0,0.0,0.0,0.0,0.0,0.0,0.0,0.0,0.0,0.0,0.0,0.0,0.0,0.0,0.0,0.0,0.0,0.0,0.0,0.0,0.0,0.0,0.0,0.0,0.0,0.0,0.0,0.0,0.0,0.0,0.0,0.0,0.0,0.0,0.0,0.0,0.0,0.0,0.0,0.0,0.0,0.0,0.0,0.0,0.0,0.0,0.0,0.0,0.0,0.0,0.0,0.0,0.0,0.0,0.0,0.0,0.0,0.0,0.0,0.0,0.0,0.0,0.0,0.0,0.0,0.0,0.0,0.0,0.0,0.0,0.0,0.0,0.0,0.0,0.0,0.0,0.0,0.0,0.0,0.0,0.0,0.0,0.0,0.0,0.0,0.0,0.0,0.0,0.0,0.0,0.0,0.0,0.0,0.0,0.0,0.0,0.0,0.0,0.0,0.0,0.0,0.0,0.0,0.0,0.0,0.0,0.0,0.0,0.0,0.0,0.0,0.0,0.0,0.0,0.0,0.0,0.0,0.0,0.0,0.0,0.0,0.0,0.0,0.0,0.0,0.0,0.0,0.0,0.0,0.0,0.0,0.0,0.0,0.0,0.0,0.0,0.0,0.0,0.0,0.0,0.0,0.0,0.0,0.0,0.0,0.0,0.0,0.0,0.0,0.0,0.0,0.0,0.0,0.0,0.0,0.0,0.0,0.0,0.0,0.0,0.0,0.0,0.0,0.0,0.0,0.0,0.0,0.0,0.0,0.0,0.0,0.0,0.0,0.0,0.0,0.0,0.0,0.0,0.0,0.0,0.0,0.0,0.0,0.0,0.0,0.0,0.0,0.0,0.0,0.0,0.0,0.0,0.0,0.0,0.0,0.0,0.0,0.0,0.0,0.0,0.0,0.0,0.0,0.0,0.0,0.0,0.0,0.0,0.0,0.0,0.0,0.0,0.0,0.0,0.0,0.0,0.0,0.0,0.0,0.0,0.0,0.0,0.0,0.0,0.0,0.0,0.0,0.0,0.0,0.0,0.0,0.0,0.0,0.0,0.0,0.0,0.0,0.0,0.0,0.0,0.0,0.0,0.0,0.0,0.0,0.0,0.0,0.0,0.0,0.0,0.0,0.0,0.0,0.0,0.0,0.0,0.0,0.0,0.0,0.0,0.0,0.0,0.0,0.0,0.0,0.0,0.0,0.0,0.0,0.0,0.0,0.0,0.0,0.0,0.0,0.0,0.0,0.0,0.0,0.0,0.0,0.0,0.0,0.0,0.0,0.0,0.0,0.0,0.0,0.0,0.0,0.0,0.0,0.0,0.0,0.0,0.0,0.0,0.0,0.0,0.0,0.0,0.0,0.0,0.0,0.0,0.0,0.0,0.0,0.0,0.0,0.0,0.0,0.0,0.0,0.0,0.0,0.0,0.0,0.0,0.0,0.0,0.0,0.0,0.0,0.0,0.0,0.0,0.0,0.0,0.0,0.0,0.0,0.0,0.0,0.0,0.0,0.0,0.0,0.0,0.0,0.0,0.0,0.0,0.0,0.0,0.0,0.0,0.0,0.0,0.0,0.0,0.0,0.0,0.0,0.0,0.0,0.0,0.0,0.0,0.0,0.0,0.0,0.0,0.0,0.0,0.0,0.0,0.0,0.0,0.0,0.0,0.0,0.0,0.0,0.0,0.0,0.0,0.0,0.0,0.0,0.0,0.0,0.0,0.0,0.0,0.0,0.0,0.0,0.0,0.0,0.0,0.0,0.0,0.0,0.0,0.0,0.0,0.0,0.0,0.0,0.0,0.0,0.0,0.0,0.0,0.0,0.0,0.0,0.0,0.0,0.0,0.0,0.0,0.0,0.0,0.0,0.0,0.0,0.0,0.0,0.0,0.0,0.0,0.0,0.0,0.0,0.0,0.0,0.0,0.0,0.0,0.0,0.0,0.0,0.0,0.0,0.0,0.0,0.0,0.0,0.0,0.0,0.0,0.0,0.0,0.0,0.0,0.0,0.0,0.0,0.0,0.0,0.0,0.0,0.0,0.0,0.0,0.0,0.0,0.0,0.0,0.0,0.0,0.0,0.0,0.0,0.0,0.0,0.0,0.0,0.0,0.0,0.0,0.0,0.0,0.0,0.0,0.0,0.0,0.0,0.0,0.0,0.0,0.0,0.0,0.0,0.0,0.0,0.0,0.0,0.0,0.0,0.0,0.0,0.0,0.0,0.0,0.0,0.0,0.0,0.0,0.0,0.0,0.0,0.0,0.0,0.0,0.0,0.0,0.0,0.0,0.0,0.0,0.0,0.0,0.0,0.0,0.0,0.0,0.0,0.0,0.0,0.0,0.0,0.0,0.0,0.0,0.0,0.0,0.0,0.0,0.0,0.0,0.0,0.0,0.0,0.0,0.0,0.0,0.0,0.0,0.0,0.0,0.0,0.0,0.0,0.0,0.0,0.0,0.0,0.0,0.0,0.0,0.0,0.0,0.0,0.0,0.0,0.0,0.0,0.0,0.0,0.0,0.0,0.0,0.0,0.0,0.0,0.0,0.0,0.0,0.0,0.0,0.0,0.0,0.0,0.0,0.0,0.0,0.0,0.0,0.0,0.0,0.0,0.0,0.0,0.0,0.0,0.0,0.0,0.0,0.0,0.0,0.0,0.0,0.0,0.0,0.0,0.0,0.0,0.0,0.0,0.0,0.0,0.0,0.0,0.0,0.0,0.0,0.0,0.0,0.0,0.0,0.0,0.0,0.0,0.0,0.0,0.0,0.0,0.0,0.0,0.0,0.0,0.0,0.0,0.0,0.0,0.0,0.0,0.0,0.0,0.0,0.0,0.0,0.0,0.0,0.0,0.0,0.0,0.0,0.0,0.0,0.0,0.0,0.0,0.0,0.0,0.0,0.0,0.0,0.0,0.0,0.0,0.0,0.0,0.0,0.0,0.0,0.0,0.0,0.0,0.0,0.0,0.0,0.0,0.0,0.0,0.0,0.0,0.0,0.0,0.0,0.0,0.0,0.0,0.0,0.0,0.0,0.0,0.0,0.0,0.0,0.0,0.0,0.0,0.0,0.0,0.0,0.0,0.0,0.0,0.0,0.0,0.0,0.0,0.0,0.0,0.0,0.0,0.0,0.0,0.0,0.0,0.0,0.0,0.0,0.0,0.0,0.0,0.0,0.0,0.0,0.0,0.0,0.0,0.0,0.0,0.0,0.0,0.0,0.0,0.0,0.0,0.0,0.0,0.0,0.0,0.0,0.0,0.0,0.0,0.0,0.0,0.0,0.0,0.0,0.0,0.0,0.0,0.0,0.0,0.0,0.0,0.0,0.0,0.0,0.0,0.0,0.0,0.0,0.0,0.0,0.0,0.0,0.0,0.0,0.0,0.0,0.0,0.0,0.0,0.0,0.0,0.0,0.0,0.0,0.0,0.0,0.0,0.0,0.0,0.0,0.0,0.0,0.0,0.0,0.0,0.0,0.0,0.0,0.0,0.0,0.0,0.0,0.0,0.0,0.0,0.0,0.0,0.0,0.0,0.0,0.0,0.0,0.0,0.0,0.0,0.0,0.0,0.0,0.0,0.0,0.0,0.0,0.0,0.0,0.0,0.0,0.0,0.0,0.0,0.0,0.0,0.0,0.0,0.0,0.0,0.0,0.0,0.0,0.0,0.0,0.0,0.0,0.0,0.0,0.0,0.0,0.0,0.0,0.0,0.0,0.0,0.0,0.0,0.0,0.0,0.0,0.0,0.0,0.0,0.0,0.0,0.0,0.0,0.0,0.0,0.0,0.0,0.0,0.0,0.0,0.0,0.0,0.0,0.0,0.0,0.0,0.0,0.0,0.0,0.0,0.0,0.0,0.0,0.0,0.0,0.0,0.0,0.0,0.0,0.0,0.0,0.0,0.0,0.0,0.0,0.0,0.0,0.0,0.0,0.0,-0.388,-0.4892,0.0,0.0,0.0,0.0,0.0,0.0,0.0,0.0,0.0,0.0,0.0,0.0,0.0,0.0,0.0,0.0,0.0,0.0,0.0,0.0,0.0,0.0,0.0,-2.6901,-2.6921,-2.698,-2.6705,-2.6399,-2.6055,0.0,0.0,0.0,0.0,0.0,-2.0524,-1.9204,-1.818,-1.747,-1.7117,-1.6994,-1.7114,-1.682,-1.6366,-1.5818,0.0,0.0,0.0,0.0,0.0,0.0,0.0,0.0,0.0,0.0,0.0,0.0,0.0,0.0,0.0,0.0,0.0,0.0,0.0,0.0,0.0,0.0,0.0,0.0,0.0,0.0,0.0,0.0,0.0,0.0,0.0,0.0,0.0,0.0,0.0,0.0,0.0,0.0,0.0,0.0,0.0,0.0,0.0,0.0,0.0,0.0,0.0,0.0,0.0,0.0,0.0,0.0,0.0,0.0,0.0,0.0,0.0,0.0,0.0,0.0,0.0,0.0,0.0,0.0,0.0,0.0,0.0,0.0,0.0,0.0,-0.2473,-0.348,0.0,0.0,0.0,0.0,0.0,0.0,0.0,0.0,0.0,0.0,0.0,0.0,0.0,0.0,0.0,0.0,0.0,0.0,0.0,0.0,0.0,-2.6001,-2.6581,-2.649,-2.6588,-2.703,-2.701,-2.6875,-2.6523,-2.6426,0.0,0.0,-2.3497,-2.2137,-2.0498,-1.9195,-1.8282,-1.7664,-1.7565,-1.7661,-1.7889,-1.7889,-1.7502,-1.6857,-1.6643,0.0,0.0,0.0,0.0,0.0,0.0,0.0,0.0,0.0,0.0,0.0,0.0,0.0,0.0,0.0,0.0,0.0,0.0,0.0,0.0,0.0,0.0,0.0,0.0,0.0,0.0,0.0,0.0,0.0,0.0,0.0,0.0,0.0,0.0,0.0,0.0,0.0,0.0,0.0,0.0,0.0,0.0,0.0,0.0,0.0,0.0,0.0,0.0,0.0,0.0,0.0,0.0,0.0,0.0,0.0,0.0,0.0,0.0,0.0,0.0,0.0,0.0,0.0,-0.0127,0.0,0.0,0.0,-0.0129,-0.0451,-0.1551,-0.2089,-0.2362,-0.2601,0.0,0.0,0.0,0.0,0.0,0.0,0.0,0.0,0.0,0.0,0.0,0.0,0.0,0.0,0.0,0.0,0.0,0.0,0.0,-2.553,-2.5893,-2.6233,-2.6549,-2.6804,-2.696,-2.6992,-2.6934,-2.6602,-2.5998,-2.517,-2.3913,-2.2482,-2.0864,-1.9941,-1.9155,-1.8358,-1.8547,-1.8838,-1.9189,-1.9189,-1.9122,-1.8975,-1.7876,-1.7088,-1.6513,0.0,0.0,0.0,0.0,0.0,0.0,0.0,0.0,0.0,0.0,0.0,0.0,0.0,0.0,0.0,0.0,0.0,0.0,0.0,0.0,0.0,0.0,0.0,0.0,0.0,0.0,0.0,0.0,0.0,0.0,0.0,0.0,0.0,0.0,0.0,0.0,0.0,0.0,0.0,0.0,0.0,-0.2712,-0.1849,0.0,0.0,0.0,0.0,0.0,0.0,0.0,0.0,0.0,0.0,0.0,0.0,0.0,-0.0127,-0.0128,-0.0064,-0.0064,-0.0064,0.0,0.0,0.0,0.0,0.0,-0.0065,-0.0257,0.0,-0.1665,-0.1707,0.0,0.0,0.0,0.0,0.0,0.0,0.0,0.0,0.0,0.0,0.0,0.0,0.0,0.0,0.0,0.0,0.0,0.0,0.0,0.0,0.0,-2.6628,-2.7222,-2.7815,-2.799,-2.7988,-2.7754,-2.6956,-2.6066,-2.5011,-2.3583,-2.2164,-2.0711,-1.9879,-1.9313,-1.9009,-1.9604,-1.9973,-2.0107,-2.0107,-2.0107,-2.0067,-1.9386,-1.8571,-1.7689,-1.7395,0.0,0.0,0.0,0.0,0.0,0.0,0.0,0.0,0.0,0.0,0.0,0.0,0.0,0.0,0.0,0.0,0.0,0.0,0.0,0.0,0.0,0.0,0.0,0.0,0.0,0.0,0.0,0.0,0.0,0.0,0.0,0.0,0.0,0.0,0.0,0.0,0.0,0.0,0.0,-0.2714,-0.1481,-0.0987,-0.0494,-0.0247,0.0,0.0,0.0,0.0,0.0,0.0,0.0,0.0,0.0,0.0,0.0,0.0,0.0,0.0,0.0,0.0,0.0,0.0,0.0,0.0,0.0,0.0,0.0,-0.0266,-0.066,-0.0645,-0.0697,-0.0811,0.0,0.0,0.0,0.0,-0.077,-0.0775,0.0,0.0,0.0,0.0,0.0,0.0,0.0,0.0,0.0,0.0,0.0,0.0,-2.6701,-2.7259,-2.7917,-2.8666,-2.8957,-2.8906,-2.8476,-2.7491,-2.6356,-2.5069,-2.3579,-2.2053,-2.0537,-1.9794,-1.9554,-1.9813,-2.0548,-2.0935,-2.1015,-2.1015,-2.1015,-2.1002,-2.0775,-1.9987,-1.8798,-1.8368,-1.7622,-1.6553,0.0,0.0,0.0,0.0,0.0,0.0,0.0,0.0,0.0,0.0,0.0,0.0,0.0,0.0,0.0,0.0,0.0,0.0,0.0,0.0,0.0,0.0,0.0,0.0,0.0,0.0,0.0,0.0,0.0,0.0,0.0,0.0,0.0,0.0,0.0,0.0,0.0,-0.1424,-0.0745,-0.0435,-0.0125,0.0,0.0,0.0,0.0,0.0,0.0,0.0,0.0,0.0,0.0,0.0,0.0,0.0,0.0,0.0,0.0,0.0,0.0,0.0,0.0,0.0,0.0,0.0,0.0,0.0,0.0,0.0,0.0,0.0,0.0,0.0,0.0,0.0,0.0,0.0,0.0,0.0,0.0,0.0,0.0,0.0,0.0,0.0,0.0,0.0,0.0,-2.6697,-2.7648,-2.8061,-2.8398,-2.8848,-2.9297,-2.9355,-2.8906,-2.8207,-2.7122,-2.5522,-2.421,-2.2642,-2.0629,-2.0085,-2.0194,-2.1015,-2.1349,-2.1722,-2.1924,-2.1924,-2.1924,-2.1924,-2.1911,-2.1096,-1.9693,-1.9118,-1.8343,-1.7435,-1.663,0.0,0.0,0.0,0.0,0.0,0.0,0.0,0.0,0.0,0.0,0.0,0.0,0.0,0.0,0.0,0.0,0.0,0.0,0.0,0.0,0.0,0.0,0.0,0.0,0.0,0.0,0.0,0.0,0.0,0.0,0.0,0.0,0.0,0.0,0.0,0.0,0.0,0.0,-0.0063,0.0,0.0,0.0,0.0,0.0,0.0,0.0,0.0,0.0,0.0,0.0,0.0,0.0,0.0,0.0,0.0,0.0,0.0,0.0,0.0,0.0,0.0,0.0,0.0,0.0,0.0,0.0,0.0,0.0,0.0,0.0,0.0,0.0,0.0,0.0,0.0,0.0,0.0,0.0,0.0,0.0,-2.664,-2.7041,-2.7066,-2.7094,-2.7209,-2.7327,-2.7558,-2.7959,-2.8694,-2.9277,-2.9707,-3.0156,-3.0117,-2.9394,-2.8074,-2.6803,-2.5522,-2.3753,-2.2078,-2.0697,-2.0645,-2.0882,-2.139,-2.1871,-2.2164,-2.2258,-2.2258,-2.2258,-2.2258,-2.2071,-2.1697,-2.1149,-2.0374,-1.9426,-1.8384,-1.7689,-1.6941,0.0,0.0,0.0,0.0,0.0,0.0,0.0,0.0,0.0,0.0,0.0,0.0,0.0,0.0,0.0,0.0,0.0,0.0,0.0,0.0,0.0,0.0,0.0,0.0,0.0,0.0,0.0,0.0,0.0,0.0,0.0,0.0,0.0,0.0,0.0,0.0,0.0,0.0,0.0,0.0,0.0,0.0,0.0,0.0,0.0,0.0,0.0,0.0,0.0,0.0,0.0,0.0,0.0,0.0,0.0,0.0,0.0,0.0,0.0,0.0,0.0,0.0,0.0,0.0,0.0,0.0,0.0,0.0,0.0,0.0,0.0,0.0,0.0,0.0,0.0,0.0,0.0,0.0,-2.6499,-2.6681,-2.7182,-2.7467,-2.7632,-2.7763,-2.8112,-2.8453,-2.8727,-2.9555,-3.0176,-3.0605,-3.0918,-3.0665,-2.9731,-2.8292,-2.6829,-2.5484,-2.336,-2.1862,-2.0999,-2.1299,-2.155,-2.1844,-2.2325,-2.2565,-2.2565,-2.2565,-2.2565,-2.2565,-2.2365,-2.2231,-2.2098,-2.151,-2.0588,-1.9466,-1.8878,-1.8103,-1.7248,0.0,0.0,0.0,0.0,0.0,0.0,0.0,0.0,0.0,0.0,0.0,0.0,0.0,0.0,0.0,0.0,0.0,0.0,0.0,0.0,0.0,0.0,0.0,0.0,0.0,0.0,0.0,0.0,0.0,0.0,0.0,0.0,0.0,0.0,-0.019,0.0,0.0,0.0,0.0,0.0,0.0,0.0,0.0,0.0,0.0,0.0,0.0,0.0,0.0,0.0,0.0,0.0,0.0,0.0,0.0,0.0,0.0,0.0,0.0,0.0,0.0,0.0,0.0,0.0,0.0,0.0,0.0,0.0,0.0,0.0,0.0,0.0,0.0,0.0,0.0,0.0,-2.6499,-2.6499,-2.6806,-2.7679,-2.7673,-2.8011,-2.9116,-2.9223,-2.945,-3.0031,-3.0571,-3.1074,-3.1465,-3.1523,-3.1034,-2.9872,-2.8842,-2.7355,-2.5338,-2.3245,-2.1934,-2.1642,-2.1905,-2.2138,-2.2432,-2.2726,-2.2928,-2.2928,-2.2928,-2.2928,-2.2928,-2.2928,-2.2699,-2.2432,-2.2432,-2.1777,-2.0681,-2.0094,-1.9332,-1.8477,0.0,0.0,0.0,0.0,0.0,0.0,0.0,0.0,0.0,0.0,0.0,0.0,0.0,0.0,0.0,0.0,0.0,0.0,0.0,0.0,0.0,0.0,0.0,0.0,0.0,0.0,0.0,0.0,0.0,0.0,0.0,0.0,0.0,-0.0569,-0.0192,0.0,0.0,0.0,0.0,0.0,0.0,0.0,0.0,0.0,0.0,0.0,0.0,0.0,0.0,0.0,0.0,0.0,0.0,0.0,0.0,0.0,0.0,0.0,0.0,0.0,0.0,0.0,0.0,0.0,0.0,0.0,0.0,0.0,0.0,0.0,0.0,0.0,0.0,0.0,0.0,-2.6499,-2.6499,-2.6499,-2.6737,-2.7471,-2.7758,-2.8087,-2.8721,-2.9171,-2.9528,-2.9783,-3.0715,-3.1269,-3.1074,-3.1621,-3.1229,-2.9391,-2.8446,-2.6729,-2.4067,-2.2924,-2.2328,-2.2176,-2.2284,-2.2445,-2.2739,-2.2819,-2.2928,-2.2928,-2.2928,-2.2928,-2.2928,-2.2928,-2.2819,-2.2739,-2.2739,-2.2432,-2.1884,-2.1309,-2.0535,-1.972,0.0,0.0,0.0,0.0,0.0,0.0,0.0,0.0,0.0,0.0,0.0,0.0,0.0,0.0,0.0,0.0,0.0,0.0,0.0,0.0,0.0,0.0,0.0,0.0,0.0,0.0,0.0,0.0,0.0,0.0,0.0,-0.1296,-0.0634,-0.0192,-0.0066,0.0,0.0,0.0,0.0,0.0,0.0,0.0,0.0,0.0,0.0,0.0,0.0,0.0,0.0,0.0,0.0,0.0,0.0,0.0,0.0,0.0,0.0,0.0,0.0,0.0,0.0,0.0,0.0,0.0,0.0,0.0,0.0,0.0,0.0,0.0,0.0,0.0,0.0,0.0,-2.6499,-2.6499,-2.6499,-2.6675,-2.6987,-2.7422,-2.7993,-2.8454,-2.8836,-2.9385,-2.9859,-2.9957,-3.0874,-3.1426,-3.1172,-3.1601,-3.1209,-2.9566,-2.7893,-2.5982,-2.378,-2.3194,-2.2734,-2.2405,-2.2672,-2.2886,-2.306,-2.306,-2.306,-2.306,-2.2926,-2.2928,-2.2928,-2.2928,-2.2928,-2.2928,-2.2928,-2.2766,-2.2579,-2.2298,-2.1577,-2.0762,-2.0601,-2.0174,-1.9554,-1.8976,-1.8071,-1.685,-1.5535,0.0,0.0,0.0,0.0,0.0,0.0,0.0,0.0,0.0,0.0,0.0,0.0,0.0,0.0,0.0,0.0,0.0,0.0,0.0,0.0,0.0,0.0,0.0,0.0,-0.0999,-0.0385,-0.0066,0.0,0.0,0.0,0.0,0.0,0.0,0.0,0.0,0.0,0.0,0.0,0.0,0.0,0.0,0.0,0.0,0.0,0.0,0.0,0.0,0.0,0.0,0.0,0.0,0.0,0.0,0.0,0.0,0.0,0.0,0.0,0.0,0.0,0.0,0.0,0.0,0.0,0.0,0.0,-2.6499,-2.6499,-2.6524,-2.6575,-2.6967,-2.7315,-2.7508,-2.8203,-2.8769,-2.9056,-2.965,-3.0084,-3.0279,-3.0894,-3.1348,-3.1309,-3.1387,-3.0993,-2.996,-2.7444,-2.5488,-2.419,-2.3804,-2.3306,-2.2565,-2.31,-2.338,-2.338,-2.338,-2.338,-2.3367,-2.3086,-2.3008,-2.2913,-2.2913,-2.2968,-2.2928,-2.2928,-2.2928,-2.2928,-2.2928,-2.2445,-2.1722,-2.1722,-2.1373,-2.0815,-2.0526,-1.9691,-1.8518,-1.7248,0.0,0.0,0.0,0.0,0.0,0.0,0.0,0.0,0.0,0.0,0.0,0.0,0.0,0.0,0.0,0.0,0.0,0.0,0.0,0.0,0.0,0.0,0.0,0.0,-0.0827,-0.0327,-0.0067,0.0,0.0,0.0,0.0,0.0,0.0,0.0,0.0,0.0,0.0,0.0,0.0,0.0,0.0,0.0,0.0,0.0,0.0,0.0,0.0,0.0,0.0,0.0,0.0,0.0,0.0,0.0,0.0,0.0,0.0,0.0,0.0,0.0,0.0,0.0,0.0,0.0,0.0,0.0,-2.6575,-2.6499,-2.6625,-2.7077,-2.7076,-2.7248,-2.7811,-2.7898,-2.8085,-2.8552,-2.8901,-2.9213,-2.9585,-3.0128,-3.0312,-2.998,-3.0605,-3.0507,-2.929,-2.7624,-2.6244,-2.521,-2.4567,-2.4037,-2.3571,-2.3621,-2.3688,-2.3688,-2.3688,-2.3688,-2.3688,-2.3621,-2.346,-2.3233,-2.3233,-2.31,-2.2928,-2.2928,-2.2928,-2.2928,-2.2928,-2.2619,-2.2258,-2.2258,-2.2031,-2.1697,-2.147,-2.099,-2.031,-1.8837,-1.7207,-1.5542,-1.3733,-1.2073,0.0,0.0,0.0,0.0,0.0,0.0,0.0,0.0,0.0,0.0,0.0,0.0,0.0,0.0,0.0,0.0,0.0,0.0,0.0,-0.0828,-0.0328,-0.0067,0.0,0.0,0.0,0.0,0.0,0.0,0.0,0.0,0.0,0.0,0.0,0.0,0.0,0.0,0.0,0.0,0.0,0.0,0.0,0.0,0.0,0.0,0.0,0.0,0.0,0.0,0.0,0.0,0.0,0.0,0.0,0.0,0.0,0.0,0.0,0.0,0.0,0.0,0.0,0.0,-2.7293,-2.7293,-2.7333,-2.7501,-2.7618,-2.7667,-2.7647,-2.7854,-2.7984,-2.8015,-2.8494,-2.8834,-2.9039,-2.9541,-2.9805,-2.9646,-3.0256,-3.0252,-2.931,-2.8526,-2.7371,-2.5758,-2.5257,-2.4638,-2.3839,-2.3915,-2.3981,-2.3981,-2.3981,-2.3981,-2.3981,-2.3834,-2.3688,-2.3541,-2.3394,-2.3247,-2.3086,-2.2926,-2.2928,-2.2928,-2.2928,-2.2779,-2.2645,-2.2645,-2.2552,-2.2405,-2.2325,-2.1912,-2.1332,-2.0048,-1.8559,-1.6945,-1.5021,-1.3349,-1.1866,0.0,0.0,0.0,0.0,0.0,0.0,0.0,0.0,0.0,0.0,0.0,0.0,0.0,0.0,-0.5516,-0.4159,0.0,-0.1656,-0.0853,-0.0333,0.0,0.0,0.0,0.0,0.0,0.0,0.0,0.0,0.0,0.0,0.0,0.0,0.0,0.0,0.0,0.0,0.0,0.0,0.0,0.0,0.0,0.0,0.0,0.0,0.0,0.0,0.0,0.0,0.0,0.0,0.0,0.0,0.0,0.0,0.0,0.0,0.0,0.0,0.0,0.0,0.0,-2.8249,-2.8349,-2.8287,-2.8002,-2.8087,-2.7999,-2.7435,-2.7649,-2.7767,-2.7369,-2.7875,-2.8287,-2.8358,-2.8834,-2.9141,-2.9316,-2.9889,-3.0058,-2.9757,-2.9531,-2.8511,-2.6645,-2.5952,-2.5158,-2.4085,-2.4241,-2.4289,-2.4289,-2.4289,-2.4289,-2.4289,-2.4048,-2.3915,-2.3848,-2.3607,-2.346,-2.3394,-2.3086,-2.2953,-2.2953,-2.2886,-2.2928,-2.2928,-2.2928,-2.2928,-2.2928,-2.2792,-2.2483,-2.1828,-2.0892,-1.9561,-1.7992,-1.6198,-1.4588,-1.3106,-1.2065,-1.1042,0.0,0.0,0.0,0.0,0.0,0.0,0.0,0.0,-0.9032,-0.8479,-0.795,-0.6832,-0.5624,-0.4264,-0.2966,-0.1838,-0.1081,-0.0408,0.0,0.0,0.0,0.0,0.0,0.0,0.0,0.0,0.0,0.0,0.0,0.0,0.0,0.0,0.0,0.0,0.0,0.0,0.0,0.0,0.0,0.0,0.0,0.0,0.0,0.0,0.0,0.0,0.0,0.0,0.0,0.0,0.0,0.0,0.0,0.0,0.0,0.0,0.0,0.0,0.0,0.0,-2.9245,-2.9096,-2.8599,-2.8079,-2.7717,-2.7532,-2.6889,-2.6451,-2.6526,-2.6431,-2.6596,-2.7121,-2.7246,-2.7598,-2.8359,-2.9219,-2.9911,-3.0432,-3.0247,-2.9594,-2.8433,-2.7023,-2.5927,-2.5057,-2.4716,-2.4596,-2.4596,-2.4596,-2.4596,-2.4583,-2.4556,-2.4396,-2.4155,-2.4115,-2.3955,-2.3701,-2.3407,-2.3273,-2.3247,-2.2979,-2.2928,-2.2928,-2.2928,-2.2928,-2.2832,-2.2565,-2.2378,-2.2204,-2.1254,-2.0213,-1.9084,-1.768,-1.5954,-1.4317,-1.3187,-1.1988,-1.0888,-1.0482,-0.9979,-0.9585,-0.9585,-0.968,-0.9808,0.0,-0.9669,-0.9336,-0.8781,-0.7605,-0.6198,-0.4513,-0.3007,-0.1757,-0.0834,-0.0282,0.0,0.0,0.0,0.0,0.0,0.0,0.0,0.0,0.0,0.0,0.0,0.0,0.0,0.0,0.0,0.0,0.0,0.0,0.0,0.0,0.0,0.0,0.0,0.0,0.0,0.0,0.0,0.0,0.0,0.0,0.0,0.0,0.0,0.0,0.0,0.0,0.0,0.0,0.0,0.0,0.0,0.0,-2.9302,-2.8993,-2.824,-2.7822,-2.7358,-2.6648,-2.6128,-2.5753,-2.5671,-2.5892,-2.6231,-2.6632,-2.6875,-2.7363,-2.8223,-2.9082,-2.9795,-3.0214,-3.0628,-3.0116,-2.8392,-2.7473,-2.6474,-2.5226,-2.4784,-2.4636,-2.4636,-2.4636,-2.4636,-2.4636,-2.4636,-2.4569,-2.4449,-2.4275,-2.4142,-2.4008,-2.3714,-2.3487,-2.3313,-2.318,-2.302,-2.2914,-2.2672,-2.2498,-2.2338,-2.2205,-2.2058,0.0,-2.0656,-1.9928,-1.9221,-1.7598,-1.6234,-1.4944,-1.3699,-1.2399,-1.1125,-1.0289,-0.9895,-0.9754,-0.9842,-0.9849,-0.993,-1.0148,-0.9929,-0.9589,-0.9215,-0.8269,-0.6967,-0.5548,-0.408,-0.2676,-0.1412,-0.0713,-0.0287,0.0,0.0,0.0,0.0,0.0,0.0,0.0,0.0,0.0,0.0,0.0,0.0,0.0,0.0,0.0,0.0,0.0,0.0,0.0,0.0,0.0,0.0,0.0,0.0,0.0,0.0,0.0,0.0,0.0,0.0,0.0,0.0,0.0,0.0,0.0,0.0,0.0,0.0,0.0,0.0,0.0,-2.8949,-2.8435,-2.7528,-2.708,-2.661,-2.5821,-2.5402,-2.5124,-2.5042,-2.5384,-2.5759,-2.6152,-2.6484,-2.7012,-2.7871,-2.873,-2.9524,-3.0212,-3.0674,-3.0362,-2.8936,-2.7916,-2.6794,-2.5593,-2.4931,-2.4636,-2.4636,-2.4636,-2.4636,-2.4636,-2.4636,-2.4636,-2.4623,-2.4422,-2.4329,-2.4302,-2.4008,-2.3728,-2.3447,-2.3367,-2.3086,-2.2712,-2.2498,-2.2138,-2.175,-2.175,-2.151,-2.1046,-1.997,-1.9385,-1.8802,-1.7127,-1.6073,-1.5127,-1.3649,-1.2275,-1.1063,-1.0046,-0.9849,-0.9849,-0.9957,-1.0017,-1.0154,-1.0304,-1.0139,-0.9922,-0.968,-0.8853,-0.7857,-0.6485,-0.509,-0.3614,-0.2207,-0.1291,-0.065,-0.0219,-0.0073,0.0,0.0,0.0,0.0,0.0,0.0,0.0,0.0,0.0,0.0,0.0,0.0,0.0,0.0,0.0,0.0,0.0,0.0,0.0,0.0,0.0,0.0,0.0,0.0,0.0,0.0,0.0,0.0,0.0,0.0,0.0,0.0,0.0,0.0,0.0,0.0,0.0,0.0,0.0,0.0,-2.7528,-2.6423,-2.5695,-2.5232,-2.5232,-2.4679,-2.4358,-2.4774,-2.4592,-2.4785,-2.5615,-2.5713,-2.6064,-2.6973,-2.7832,-2.9072,-3.0851,-3.0475,-3.0319,-3.0805,-2.8373,-2.6776,-2.6385,-2.5226,-2.4636,-2.4636,-2.4636,-2.4636,-2.4636,-2.4636,-2.4636,-2.4636,-2.4623,-2.4623,-2.4609,-2.4315,-2.4022,-2.3728,-2.3447,-2.2966,-2.2432,-2.2418,-2.1884,-2.1136,-2.1136,-2.0762,-2.0167,-1.9621,-1.88,-1.7809,-1.6596,-1.5643,-1.4688,-1.3128,-1.1649,-1.0514,-0.9924,-0.9869,-0.9984,-0.9984,-1.0161,-1.031,-1.0453,-1.0487,-1.0397,-1.022,-0.9582,-0.8611,-0.7238,-0.5815,-0.4426,-0.2995,-0.1879,-0.102,-0.0657,-0.0219,0.0,0.0,0.0,0.0,0.0,0.0,0.0,0.0,0.0,0.0,0.0,0.0,0.0,0.0,0.0,0.0,0.0,0.0,0.0,0.0,0.0,0.0,0.0,0.0,0.0,0.0,0.0,0.0,0.0,0.0,0.0,0.0,0.0,0.0,0.0,0.0,0.0,0.0,0.0,0.0,0.0,0.0,0.0,-2.5641,-2.5019,-2.4464,-2.4217,-2.4493,-2.5223,0.0,0.0,0.0,0.0,0.0,-2.7539,-2.8339,-2.9336,-2.9559,-2.9482,-2.906,-2.7504,-2.6269,-2.5398,-2.4552,-2.4062,-2.4062,-2.4249,-2.4342,-2.4356,-2.4543,-2.4636,-2.4636,-2.4636,-2.4529,-2.4342,-2.4249,-2.3928,-2.3447,-2.314,-2.2779,-2.2352,-2.1777,-2.1243,-2.0748,0.0,-1.9826,-1.9527,-1.8518,-1.7888,-1.7232,-1.5806,-1.4988,-1.4143,-1.2293,-1.1111,-1.0339,-1.0019,-0.995,-1.0038,-1.0297,-1.0385,-1.046,-1.0609,-1.0643,-1.059,-1.0578,-1.0187,-0.9491,-0.8335,-0.7203,-0.5901,-0.4206,-0.3034,-0.2114,-0.1458,-0.0802,-0.0365,-0.0365,-0.0146,0.0,0.0,0.0,0.0,0.0,0.0,0.0,0.0,0.0,0.0,0.0,0.0,0.0,0.0,0.0,0.0,0.0,0.0,0.0,0.0,0.0,0.0,0.0,0.0,0.0,0.0,0.0,0.0,0.0,0.0,0.0,0.0,0.0,0.0,0.0,0.0,0.0,0.0,0.0,0.0,0.0,0.0,0.0,0.0,0.0,0.0,0.0,0.0,0.0,0.0,0.0,0.0,-2.7931,-2.8499,-2.8698,-2.8595,-2.8108,-2.6745,-2.5606,-2.4749,-2.3925,-2.3447,-2.3447,-2.3741,-2.3888,-2.3901,-2.4195,-2.4329,-2.4329,-2.4329,-2.4168,-2.3888,-2.3888,-2.3541,-2.2979,-2.2779,-2.2405,-2.1884,-2.1323,-2.0802,0.0,-1.9479,-1.9145,-1.8928,-1.7811,-1.7152,-1.6472,-1.4897,-1.3777,-1.2704,-1.1463,-1.0708,-1.0169,-1.0025,-1.0065,-1.0256,-1.0446,-1.0534,-1.0602,-1.0697,-1.0717,-1.0717,-1.0717,-1.0452,-0.9952,-0.9227,-0.825,-0.7039,-0.5517,-0.4233,-0.3195,-0.2273,-0.1395,-0.0736,-0.0591,-0.0222,0.0,0.0,0.0,0.0,0.0,0.0,0.0,0.0,0.0,0.0,0.0,0.0,0.0,0.0,0.0,0.0,0.0,0.0,0.0,0.0,0.0,0.0,0.0,0.0,0.0,0.0,0.0,0.0,0.0,0.0,0.0,0.0,0.0,0.0,0.0,0.0,0.0,0.0,0.0,0.0,0.0,0.0,0.0,0.0,0.0,0.0,0.0,0.0,0.0,0.0,0.0,0.0,0.0,-2.843,-2.794,-2.7764,-2.798,-2.5977,-2.4749,-2.4395,-2.3311,-2.2834,-2.2834,-2.31,-2.326,-2.326,-2.3581,-2.3728,-2.3728,-2.3728,-2.3554,-2.326,-2.326,-2.2913,-2.2352,-2.2338,-2.183,-2.1082,-2.1056,-2.0521,-1.972,-1.9132,-1.8744,-1.8408,-1.7463,-1.6535,-1.5529,-1.404,-1.2192,-1.0525,-1.0755,-1.0429,-0.999,-1.0004,-1.0276,-1.0493,-1.05,-1.0616,-1.0717,-1.0717,-1.0717,-1.0711,-1.0711,-1.0439,-1.0101,-0.9769,-0.8867,-0.7835,-0.6839,-0.5524,-0.4258,-0.3259,-0.2007,-0.112,-0.068,-0.0227,0.0,0.0,0.0,0.0,0.0,0.0,0.0,0.0,0.0,0.0,0.0,0.0,0.0,0.0,0.0,0.0,0.0,0.0,0.0,0.0,0.0,0.0,0.0,0.0,0.0,0.0,0.0,0.0,0.0,0.0,0.0,0.0,0.0,0.0,0.0,0.0,0.0,0.0,0.0,0.0,0.0,0.0,0.0,0.0,0.0,0.0,0.0,0.0,0.0,0.0,0.0,0.0,0.0,-2.7663,-2.7253,-2.6717,-2.6188,-2.4531,-2.3304,-2.2694,-2.1937,-2.155,-2.155,-2.2071,-2.2325,-2.2338,-2.2859,-2.3169,-2.3169,-2.3169,-2.2806,-2.2325,-2.2325,-2.1977,-2.143,-2.1203,-2.0989,-2.0735,-2.0294,-2.0,-1.972,-1.9132,-1.8878,-1.8592,-1.7296,-1.5634,-1.4117,-1.3546,-1.2054,-1.0547,-1.0828,-1.0514,-1.0038,-1.0317,-1.0432,-1.0521,-1.0636,-1.069,-1.0717,-1.0717,-1.0629,-1.0548,-1.0548,-1.0402,-1.0232,-0.9941,-0.9546,-0.8906,-0.8006,-0.6985,-0.5825,-0.4443,-0.3069,-0.1885,-0.1135,-0.0454,0.0,0.0,0.0,0.0,0.0,0.0,0.0,0.0,0.0,0.0,0.0,0.0,0.0,0.0,0.0,0.0,0.0,0.0,0.0,0.0,0.0,0.0,0.0,0.0,0.0,0.0,0.0,0.0,0.0,0.0,0.0,0.0,0.0,0.0,0.0,0.0,0.0,0.0,0.0,0.0,0.0,0.0,0.0,0.0,0.0,0.0,0.0,0.0,0.0,0.0,0.0,0.0,0.0,0.0,-2.6719,-2.6021,-2.5069,-2.3495,-2.2345,-2.1698,-2.1032,-2.0722,-2.0722,-2.1189,-2.1416,-2.1416,-2.1884,-2.2098,-2.2098,-2.2098,-2.1844,-2.1416,-2.1416,-2.1149,0.0,0.0,-2.0401,-2.0254,-1.992,-1.972,-1.9546,-1.9092,-1.8668,-1.8173,-1.7189,-1.5569,-1.3884,-1.3184,-1.2012,-1.0851,-1.0911,-1.0573,-1.0276,-1.0446,-1.0541,-1.0616,-1.0697,-1.0717,-1.0704,-1.0636,-1.0555,-1.0473,-1.0412,-1.0337,-1.024,-1.0128,-0.9934,-0.9522,-0.8823,-0.7898,-0.6721,-0.5215,-0.3614,-0.2355,-0.1384,-0.0539,0.0,0.0,0.0,0.0,0.0,0.0,0.0,0.0,0.0,0.0,0.0,0.0,0.0,0.0,0.0,0.0,0.0,0.0,0.0,0.0,0.0,0.0,0.0,0.0,0.0,0.0,0.0,0.0,0.0,0.0,0.0,0.0,0.0,0.0,0.0,0.0,0.0,0.0,0.0,0.0,0.0,0.0,0.0,0.0,0.0,-2.7129,-2.7402,0.0,0.0,0.0,0.0,0.0,0.0,0.0,0.0,0.0,-2.4277,-2.2744,-2.1598,-2.1008,-2.0408,-2.012,-2.012,-2.0414,-2.0561,-2.0561,-2.0855,-2.0989,-2.0989,-2.0989,-2.0815,-2.0508,-2.0548,-2.0374,-2.0007,-2.0107,-1.996,-1.9746,0.0,0.0,-1.9332,-1.9078,-1.8472,-1.7685,-1.7228,-1.5934,-1.4272,-1.3102,-1.2082,-1.1236,-1.094,-1.0649,-1.0493,-1.0514,-1.0616,-1.0717,-1.0717,-1.0704,-1.0656,-1.0521,-1.046,-1.0399,-1.0276,-1.0236,-1.0229,-1.0249,-1.0115,-0.9907,-0.9379,-0.8523,-0.7345,-0.5755,-0.4155,-0.2676,-0.1485,-0.0628,-0.0079,0.0,0.0,0.0,0.0,0.0,0.0,0.0,0.0,0.0,0.0,0.0,0.0,0.0,0.0,0.0,0.0,0.0,0.0,0.0,0.0,0.0,0.0,0.0,0.0,0.0,0.0,0.0,0.0,0.0,0.0,0.0,0.0,0.0,0.0,0.0,0.0,0.0,0.0,0.0,0.0,0.0,0.0,0.0,0.0,-2.7773,-2.7734,0.0,0.0,0.0,0.0,0.0,0.0,0.0,0.0,0.0,0.0,-2.1762,-2.0657,-2.0089,-1.9695,-1.9519,-1.9519,-1.9813,-1.996,-1.996,-2.0254,-2.0388,-2.0388,-2.0388,-2.0094,-1.9613,-1.9853,-1.9639,-1.9172,-1.9426,-1.9492,-1.9439,-1.9439,0.0,0.0,-1.9305,-1.9021,-1.8564,-1.7686,-1.6138,-1.4351,-1.3508,-1.2366,-1.1258,-1.0998,-1.0732,-1.0521,-1.0649,-1.0697,-1.0717,-1.0717,-1.0622,-1.0527,-1.05,-1.0304,-1.0058,-1.0031,-0.9992,-0.9937,-1.0004,-1.0152,-1.0154,-0.9981,-0.9578,-0.8657,-0.6788,-0.5343,-0.3769,-0.1933,-0.1015,-0.0393,0.0,0.0,0.0,0.0,0.0,0.0,0.0,0.0,0.0,0.0,0.0,0.0,0.0,0.0,0.0,0.0,0.0,0.0,0.0,0.0,0.0,0.0,0.0,0.0,0.0,0.0,0.0,0.0,0.0,0.0,0.0,0.0,0.0,0.0,0.0,0.0,0.0,0.0,0.0,0.0,0.0,-2.791,-2.8476,-2.8906,-2.8965,-2.8887,-2.8652,-2.8613,-2.8481,0.0,0.0,0.0,0.0,0.0,0.0,0.0,0.0,0.0,-1.9809,-1.9533,-1.943,-1.943,0.0,-1.9573,-1.9573,-1.972,-1.9786,-1.9786,-1.9786,-1.9626,-1.943,-1.9519,-1.9412,-1.9172,-1.9363,-1.943,-1.943,0.0,0.0,0.0,0.0,-1.9185,-1.8765,-1.8006,-1.6783,-1.5434,-1.401,-1.3041,-1.22,-1.1374,-1.1002,-1.0819,-1.0704,-1.0717,-1.0717,-1.0717,-1.0602,-1.0473,-1.0399,-1.0209,-0.9963,-0.9883,-0.9869,-0.9842,-0.9856,-1.012,-1.0223,-1.0045,-0.9683,-0.8954,-0.7323,-0.5874,-0.4328,-0.2617,-0.155,-0.078,-0.0314,-0.0157,0.0,0.0,0.0,0.0,0.0,0.0,0.0,0.0,0.0,0.0,0.0,0.0,0.0,0.0,0.0,0.0,0.0,0.0,0.0,0.0,0.0,0.0,0.0,0.0,0.0,0.0,0.0,0.0,0.0,0.0,0.0,0.0,0.0,0.0,0.0,0.0,0.0,0.0,-2.7851,-2.8652,-2.9355,-2.9785,-3.0293,-3.0293,-2.9434,-2.9082,-2.868,0.0,0.0,0.0,0.0,0.0,0.0,0.0,0.0,0.0,0.0,0.0,0.0,-1.943,-1.943,0.0,0.0,0.0,0.0,0.0,-1.943,-1.939,-1.9279,-1.9345,-1.939,0.0,0.0,-1.943,-1.943,0.0,0.0,0.0,0.0,-1.9243,-1.8939,-1.8344,-1.7695,-1.6865,-1.498,-1.3979,-1.3175,-1.1841,-1.1395,-1.1205,-1.0909,-1.0717,-1.0717,-1.0717,-1.0582,-1.0419,-1.0304,-1.0134,-0.9903,-0.9842,-0.9822,-0.9822,-0.9822,-1.0046,-1.0149,-1.0038,-0.9722,-0.9093,-0.7902,-0.6509,-0.5066,-0.3431,-0.2146,-0.1233,-0.0623,-0.0234,0.0,0.0,0.0,0.0,0.0,0.0,0.0,0.0,0.0,0.0,0.0,0.0,0.0,0.0,0.0,0.0,0.0,0.0,0.0,0.0,0.0,0.0,0.0,0.0,0.0,0.0,0.0,0.0,0.0,0.0,0.0,0.0,0.0,0.0,0.0,0.0,0.0,0.0,-2.8672,-2.9531,-3.0234,-3.0703,-3.1484,-3.166,-3.0801,-2.9629,-2.8797,0.0,0.0,0.0,0.0,0.0,0.0,0.0,0.0,0.0,0.0,0.0,0.0,-1.943,-1.943,0.0,0.0,0.0,0.0,0.0,0.0,-1.9212,-1.8985,-1.9252,0.0,0.0,0.0,0.0,0.0,0.0,0.0,0.0,0.0,-1.9359,-1.9301,-1.8939,-1.8711,-1.8357,-1.6986,-1.5217,-1.3509,-1.2596,-1.1934,-1.1453,-1.1212,-1.0916,-1.0717,-1.0717,-1.0507,-1.0297,-1.0283,-1.0053,-0.9836,-0.9822,-0.9822,-0.9822,-0.9822,-0.9896,-1.0058,-1.0213,-1.0169,-0.9716,-0.8868,-0.7884,-0.6374,-0.424,-0.3011,-0.1819,-0.0684,-0.0228,0.0,0.0,0.0,0.0,0.0,0.0,0.0,0.0,0.0,0.0,0.0,0.0,0.0,0.0,0.0,0.0,0.0,0.0,0.0,0.0,0.0,0.0,0.0,0.0,0.0,0.0,0.0,0.0,0.0,0.0,0.0,0.0,0.0,0.0,0.0,0.0,0.0,0.0,-2.9141,-2.9824,-3.0449,-3.1172,-3.1797,-3.1934,-3.1328,-3.0393,-2.9315,-2.8048,0.0,0.0,0.0,0.0,0.0,0.0,0.0,0.0,0.0,0.0,-1.943,-1.943,-1.943,0.0,0.0,0.0,0.0,0.0,0.0,-1.9305,-1.9199,-1.9319,0.0,0.0,0.0,0.0,0.0,0.0,0.0,0.0,0.0,0.0,-1.9359,-1.8997,-1.8901,-1.8698,-1.7576,-1.6384,-1.5085,-1.3636,-1.2859,-1.2249,-1.154,-1.1176,-1.0916,-1.0717,-1.05,-1.0283,-1.0283,-1.0039,-0.9822,-0.9822,-0.9822,-0.9822,-0.9822,-0.9883,-1.01,-1.0256,-1.0202,-0.9948,-0.9601,-0.8661,-0.7535,-0.5991,-0.4396,-0.3074,-0.2116,-0.1059,-0.0228,0.0,0.0,0.0,0.0,0.0,0.0,0.0,0.0,0.0,0.0,0.0,0.0,0.0,0.0,0.0,0.0,0.0,0.0,0.0,0.0,0.0,0.0,0.0,0.0,0.0,0.0,0.0,0.0,0.0,0.0,0.0,0.0,0.0,0.0,0.0,0.0,-2.81,-2.9199,-2.9844,-3.0469,-3.123,-3.1816,-3.1992,-3.1443,-3.0757,-2.9521,-2.7581,-2.637,0.0,0.0,0.0,0.0,0.0,0.0,0.0,0.0,0.0,-1.947,-1.9492,-1.9492,-1.9492,0.0,0.0,-1.9511,-1.943,0.0,0.0,0.0,0.0,0.0,0.0,0.0,0.0,0.0,0.0,0.0,0.0,0.0,0.0,0.0,0.0,0.0,-1.8881,-1.8064,-1.7303,-1.6439,-1.4592,-1.3564,-1.2808,-1.1888,-1.1417,-1.1045,-1.0715,-1.0466,-1.027,-1.0222,-1.0012,-0.9822,-0.9822,-0.9822,-0.9822,-0.9822,-0.9849,-1.0046,-1.0249,-1.0194,-1.0193,-1.0147,-0.9369,-0.8373,-0.7422,-0.5602,-0.4071,-0.3214,-0.1577,-0.0451,0.0,0.0,0.0,0.0,0.0,0.0,0.0,0.0,0.0,0.0,0.0,0.0,0.0,0.0,0.0,0.0,0.0,0.0,0.0,0.0,0.0,0.0,0.0,0.0,0.0,0.0,0.0,0.0,0.0,0.0,0.0,0.0,0.0,0.0,0.0,0.0,-2.7949,-2.8789,-2.9648,-3.0371,-3.084,-3.1641,-3.1871,-3.1106,-3.0468,-2.9214,-2.7099,-2.5984,0.0,0.0,0.0,0.0,0.0,0.0,0.0,0.0,0.0,-1.9506,-1.98,-1.98,-1.98,-1.98,-1.98,-1.9639,-1.943,0.0,0.0,0.0,0.0,0.0,0.0,0.0,0.0,-1.943,0.0,0.0,0.0,0.0,0.0,0.0,0.0,0.0,0.0,0.0,-1.7948,-1.7174,-1.5387,-1.3934,-1.2792,-1.2146,-1.1531,-1.0948,-1.0558,-1.0385,-1.0243,-1.0024,-0.9869,-0.9822,-0.9822,-0.9822,-0.9822,-0.9822,-0.9822,-0.9924,-1.0229,-1.0283,-1.0357,-1.0597,-0.992,-0.9035,-0.8189,-0.6402,-0.4732,-0.3571,-0.1771,-0.0444,0.0,0.0,0.0,0.0,0.0,0.0,0.0,0.0,0.0,0.0,0.0,0.0,0.0,0.0,0.0,0.0,0.0,0.0,0.0,0.0,0.0,0.0,0.0,0.0,0.0,0.0,0.0,0.0,0.0,0.0,0.0,0.0,0.0,0.0,0.0,0.0,0.0,-2.8828,-2.9141,-2.9492,-2.9922,-3.0568,-3.0701,-2.9927,-2.9591,-2.8552,-2.6465,-2.5177,0.0,0.0,0.0,0.0,0.0,0.0,0.0,0.0,-1.9559,-1.9706,-1.98,-2.0,-2.0094,-2.0094,-1.9893,-1.9746,-1.9653,-1.9452,-1.943,0.0,0.0,0.0,0.0,0.0,-1.943,-1.943,0.0,0.0,0.0,0.0,0.0,0.0,0.0,0.0,0.0,0.0,0.0,0.0,-1.495,-1.3994,-1.3277,-1.2041,-1.1467,-1.1047,-1.0472,-1.0236,-1.0107,-0.9997,-0.9869,-0.9822,-0.9822,-0.9822,-0.9822,-0.9822,-0.9822,-0.9924,-1.0229,-1.0365,-1.0595,-1.0953,-1.0626,-1.0189,-0.9784,-0.7557,-0.5168,-0.2914,-0.1902,-0.0952,-0.0073,0.0,0.0,0.0,0.0,0.0,0.0,0.0,0.0,0.0,0.0,0.0,0.0,0.0,0.0,0.0,0.0,0.0,0.0,0.0,0.0,0.0,0.0,0.0,0.0,0.0,0.0,0.0,0.0,0.0,0.0,0.0,0.0,0.0,0.0,0.0,0.0,-2.8633,-2.8719,-2.8859,-2.9131,-2.9431,-2.941,-2.8853,-2.8396,-2.7401,-2.5616,-2.43,0.0,0.0,0.0,0.0,0.0,0.0,0.0,-1.943,-1.9653,-1.9907,-2.0134,-2.0414,-2.0561,-2.0561,-2.0374,-2.012,-1.9786,-1.9613,-1.9466,0.0,0.0,0.0,0.0,-1.943,-1.943,-1.943,0.0,0.0,0.0,0.0,0.0,0.0,0.0,0.0,0.0,0.0,0.0,0.0,0.0,-1.3639,-1.2969,-1.1695,-1.1175,-1.0881,-1.0321,-1.012,-0.997,-0.9916,-0.989,-0.9822,-0.9822,-0.9822,-0.9822,-0.9822,-0.9869,-0.9992,-1.0243,-1.0446,-1.0717,-1.1111,-1.0944,-1.0593,-0.9862,-0.7923,-0.5677,-0.3207,-0.2187,-0.1312,-0.0292,-0.0073,0.0,0.0,0.0,0.0,0.0,0.0,0.0,0.0,0.0,0.0,0.0,0.0,0.0,0.0,0.0,0.0,0.0,0.0,0.0,0.0,0.0,0.0,0.0,0.0,0.0,0.0,0.0,0.0,0.0,0.0,0.0,0.0,0.0,0.0,0.0,0.0,-2.8362,-2.8413,-2.8358,-2.8201,-2.8028,-2.7755,-2.6887,-2.5851,-2.461,-2.3381,0.0,0.0,0.0,0.0,0.0,0.0,0.0,-1.9457,-1.9679,-2.012,-2.0708,-2.1002,-2.1149,-2.1176,-2.1122,-2.0668,-1.9867,-1.9813,-1.9639,0.0,0.0,0.0,-1.943,-1.943,-1.943,0.0,0.0,0.0,0.0,0.0,0.0,0.0,0.0,0.0,0.0,0.0,0.0,0.0,0.0,0.0,0.0,0.0,-1.0714,-1.0404,-1.0094,-0.997,-0.9936,-0.9849,-0.9822,0.0,-0.9822,-0.9822,-0.9822,-0.9822,-0.9883,-1.01,-1.0256,-1.0527,-1.0826,-1.1118,-1.1021,-1.0321,-0.893,-0.7779,-0.6326,-0.4369,-0.2768,-0.1531,-0.0729,-0.0292,0.0,0.0,0.0,0.0,0.0,0.0,0.0,0.0,0.0,0.0,0.0,0.0,0.0,0.0,0.0,0.0,0.0,0.0,0.0,0.0,0.0,0.0,0.0,0.0,0.0,0.0,0.0,0.0,0.0,0.0,0.0,0.0,0.0,0.0,0.0,0.0,0.0,0.0,0.0,-2.6642,-2.6303,-2.6011,-2.5222,-2.4448,0.0,0.0,0.0,0.0,0.0,0.0,0.0,0.0,0.0,-1.9693,-1.9987,-2.0414,-2.1002,-2.1309,-2.1563,-2.1764,-2.1323,-2.0882,-2.0454,-2.0,-1.9639,0.0,0.0,-1.943,-1.943,-1.943,-1.943,0.0,0.0,0.0,0.0,-1.943,-1.943,0.0,0.0,0.0,0.0,0.0,0.0,0.0,0.0,-1.2053,-1.1277,-1.035,0.0,-1.0297,-0.9937,-0.9876,-0.9863,0.0,-0.9822,-0.9822,-0.9822,-0.9822,-0.9822,-0.9822,-0.9883,-1.01,-1.0256,-1.0527,-1.0826,-1.1118,-1.1325,-1.0999,-0.9735,-0.8863,-0.7412,-0.5168,-0.3787,-0.255,-0.1166,-0.0657,-0.0292,0.0,0.0,0.0,0.0,0.0,0.0,0.0,0.0,0.0,0.0,0.0,0.0,0.0,0.0,0.0,0.0,0.0,0.0,0.0,0.0,0.0,0.0,0.0,0.0,0.0,0.0,0.0,0.0,0.0,0.0,0.0,0.0,0.0,0.0,0.0,0.0,0.0,0.0,-2.5211,-2.4651,-2.4561,-2.3722,-2.3126,0.0,0.0,0.0,0.0,0.0,0.0,0.0,0.0,-1.984,-2.0,-2.0281,-2.0722,-2.1309,-2.1603,-2.1897,-2.2178,-2.1857,-2.1416,-2.0842,-2.012,-1.9639,-1.943,-1.943,-1.943,-1.943,-1.943,0.0,0.0,0.0,0.0,0.0,-1.943,-1.943,0.0,-1.9243,-1.8823,-1.8227,0.0,0.0,0.0,0.0,-1.145,-1.0664,-1.0004,-0.9943,-1.0004,-0.9822,-0.9822,-0.9822,-0.9822,-0.9822,-0.9822,-0.9822,-0.9822,-0.9842,-0.9849,-1.0053,-1.0202,-1.0351,-1.0683,-1.1029,-1.1328,-1.1518,-1.1332,-1.0534,-0.959,-0.8285,-0.6475,-0.4805,-0.3205,-0.1821,-0.1021,-0.0438,0.0,0.0,0.0,0.0,0.0,0.0,0.0,0.0,0.0,0.0,0.0,0.0,0.0,0.0,0.0,0.0,0.0,0.0,0.0,0.0,0.0,0.0,0.0,0.0,0.0,0.0,0.0,0.0,0.0,0.0,0.0,0.0,0.0,0.0,0.0,0.0,0.0,0.0,0.0,0.0,0.0,0.0,0.0,0.0,0.0,0.0,0.0,0.0,0.0,0.0,-2.0281,-2.0193,-2.0294,-2.0588,-2.1029,-2.1681,-2.1911,-2.2205,-2.2485,-2.2445,-2.1924,-2.1002,-2.0174,-1.9639,-1.943,-1.943,-1.943,-1.943,-1.943,0.0,0.0,0.0,0.0,0.0,0.0,0.0,0.0,-1.8939,-1.8344,-1.7525,-1.6349,0.0,0.0,0.0,0.0,0.0,-0.9883,-0.9822,-0.9829,-0.9849,-0.9856,-0.9856,-0.9856,0.0,-0.9822,-0.9822,-0.9822,-0.9869,-0.9957,-1.0175,-1.0337,-1.05,-1.0907,-1.1287,-1.1545,-1.1606,-1.1476,-1.1044,-1.0101,-0.9013,-0.7783,-0.5749,-0.386,-0.2478,-0.1386,-0.0584,0.0,0.0,0.0,0.0,0.0,0.0,0.0,0.0,0.0,0.0,0.0,0.0,0.0,0.0,0.0,0.0,0.0,0.0,0.0,0.0,0.0,0.0,0.0,0.0,0.0,0.0,0.0,0.0,0.0,0.0,0.0,0.0,0.0,0.0,0.0,0.0,0.0,0.0,0.0,0.0,0.0,0.0,0.0,0.0,0.0,0.0,0.0,0.0,0.0,-2.0975,-2.0494,-2.0347,-2.0601,-2.0895,-2.1323,-2.1924,-2.2205,-2.2498,-2.2792,-2.2539,-2.1817,-2.0722,-2.008,-1.9639,-1.943,-1.943,-1.943,-1.943,-1.943,0.0,0.0,0.0,0.0,0.0,0.0,0.0,0.0,-1.859,-1.7877,-1.6938,-1.5639,0.0,0.0,0.0,0.0,0.0,-0.9883,-0.9822,-0.9849,-0.9923,-0.995,-0.995,-0.995,-0.9856,-0.9822,-0.9822,-0.9822,-0.9869,-0.9957,-1.0175,-1.0371,-1.0643,-1.1063,-1.1369,-1.1416,-1.1538,-1.1476,-1.1044,-1.0606,-0.9735,-0.814,-0.6837,-0.5168,-0.2985,-0.204,-0.1166,-0.0073,0.0,0.0,0.0,0.0,0.0,0.0,0.0,0.0,0.0,0.0,0.0,0.0,0.0,0.0,0.0,0.0,0.0,0.0,0.0,0.0,0.0,0.0,0.0,0.0,0.0,0.0,0.0,0.0,0.0,0.0,0.0,0.0,0.0,0.0,0.0,0.0,0.0,0.0,0.0,0.0,0.0,0.0,0.0,0.0,0.0,0.0,0.0,-2.1109,-2.1109,-2.1002,-2.1015,-2.1212,-2.143,-2.1871,-2.2458,-2.2592,-2.2899,-2.334,-2.2712,-2.1964,-2.1186,-2.0374,-1.9867,-1.9586,-1.9439,-1.943,-1.943,0.0,0.0,0.0,0.0,0.0,0.0,0.0,0.0,0.0,0.0,-1.6997,-1.5983,-1.451,0.0,0.0,0.0,0.0,0.0,-0.9822,-0.9883,-0.9903,-0.997,-0.9984,-0.9984,-0.9984,-1.0059,-1.0066,-1.0066,-1.0066,-1.0114,-1.0263,-1.0412,-1.0643,-1.1023,-1.1328,-1.1538,-1.1619,-1.1687,-1.1662,-1.1444,-1.101,-1.0311,-0.9152,-0.7634,-0.5963,-0.4003,-0.255,-0.1312,-0.0365,-0.0146,0.0,0.0,0.0,0.0,0.0,0.0,0.0,0.0,0.0,0.0,0.0,0.0,0.0,0.0,0.0,0.0,0.0,0.0,0.0,0.0,0.0,0.0,0.0,0.0,0.0,0.0,0.0,0.0,0.0,0.0,0.0,0.0,0.0,0.0,0.0,0.0,0.0,0.0,0.0,0.0,0.0,0.0,0.0,0.0,0.0,-2.1002,-2.1042,-2.1109,-2.1456,-2.1681,-2.1614,-2.1977,-2.2418,-2.2928,-2.3075,-2.3273,-2.3647,-2.2806,-2.2111,-2.1574,-2.0695,-2.0134,-1.9786,-1.9559,-1.9484,-1.943,0.0,0.0,0.0,0.0,0.0,0.0,0.0,0.0,0.0,0.0,0.0,0.0,0.0,0.0,0.0,-1.0543,-1.0065,-0.9822,-0.9822,-0.9849,-0.9936,-0.9936,-0.999,-1.0038,-1.0038,-1.0222,-1.0324,-1.029,-1.0304,-1.0365,-1.0473,-1.067,-1.0948,-1.1328,-1.1518,-1.1667,-1.1809,-1.1803,-1.1796,-1.183,-1.1418,-1.0822,-0.9951,-0.8357,-0.6616,-0.4802,-0.2986,-0.1604,-0.0657,-0.0219,0.0,0.0,0.0,0.0,0.0,0.0,0.0,0.0,0.0,0.0,0.0,0.0,0.0,0.0,0.0,0.0,0.0,0.0,0.0,0.0,0.0,0.0,0.0,0.0,0.0,0.0,0.0,0.0,0.0,0.0,0.0,0.0,0.0,0.0,0.0,0.0,0.0,0.0,0.0,0.0,0.0,0.0,0.0,0.0,0.0,-2.0708,-2.0828,-2.1096,-2.1657,-2.183,-2.1628,-2.2432,-2.2887,-2.2928,-2.3434,-2.3581,-2.334,-2.2712,-2.2111,-2.1588,-2.0922,-2.0334,-1.98,-1.9773,-1.9613,-1.943,-1.943,0.0,0.0,0.0,0.0,0.0,0.0,0.0,0.0,0.0,0.0,0.0,0.0,0.0,-1.0785,-1.0429,-1.0065,-0.9822,-0.9822,-0.9829,-0.9836,-0.9836,-1.0053,-1.0263,-1.0263,-1.0371,-1.0439,-1.031,-1.0385,-1.048,-1.0487,-1.0839,-1.1185,-1.1362,-1.1518,-1.1667,-1.1809,-1.1714,-1.1681,-1.1816,-1.1635,-1.1109,-1.0023,-0.908,-0.7485,-0.4875,-0.3494,-0.2186,-0.0657,-0.0219,0.0,0.0,0.0,0.0,0.0,0.0,0.0,0.0,0.0,0.0,0.0,0.0,0.0,0.0,0.0,0.0,0.0,0.0,0.0,0.0,0.0,0.0,0.0,0.0,0.0,0.0,0.0,0.0,0.0,0.0,0.0,0.0,0.0,0.0,0.0,0.0,0.0,0.0,0.0,0.0,0.0,0.0,0.0,0.0,0.0,-2.0575,-2.0722,-2.0842,-2.1403,-2.175,-2.1817,-2.2699,-2.3247,-2.342,-2.3834,-2.3888,-2.3581,-2.2792,-2.2205,-2.179,-2.1015,-2.0454,-2.0054,-1.988,-1.9639,-1.9359,-1.9185,-1.9113,0.0,0.0,0.0,0.0,0.0,0.0,0.0,0.0,-1.3204,-1.2242,-1.1511,-1.0967,-1.0429,-1.0065,-0.9883,-0.9822,-0.9822,-0.9822,-0.9822,-0.9822,-1.0053,-1.0283,-1.0283,-1.0534,-1.0758,-1.0711,-1.0738,-1.0806,-1.0894,-1.105,-1.1246,-1.1491,-1.1653,-1.1769,-1.1823,-1.1782,-1.1769,-1.1823,-1.1708,-1.1332,-1.0678,-0.9441,-0.7991,-0.6253,-0.4146,-0.2404,-0.1312,-0.0434,0.0,0.0,0.0,0.0,0.0,0.0,0.0,0.0,0.0,0.0,0.0,0.0,0.0,0.0,0.0,0.0,0.0,0.0,0.0,0.0,0.0,0.0,0.0,0.0,0.0,0.0,0.0,0.0,0.0,0.0,0.0,0.0,0.0,0.0,0.0,0.0,0.0,0.0,0.0,0.0,0.0,0.0,0.0,0.0,-2.0094,-2.0294,-2.0481,-2.0668,-2.1149,-2.155,-2.1844,-2.2632,-2.3233,-2.3634,-2.3928,-2.3915,-2.3607,-2.2792,-2.2258,-2.1951,-2.1162,-2.0655,-2.0361,-2.0067,-1.9714,-1.9317,-1.892,-1.8648,0.0,0.0,0.0,0.0,0.0,0.0,0.0,0.0,-1.2062,-1.1269,-1.0785,-1.0429,-1.0126,-0.9883,-0.9822,-0.9822,-0.9822,-0.9822,-0.9836,-0.9883,-1.0086,-1.0304,-1.0399,-1.0731,-1.1002,-1.0887,-1.0914,-1.1063,-1.1206,-1.1233,-1.1321,-1.1579,-1.1701,-1.1782,-1.1823,-1.1789,-1.1782,-1.1823,-1.1708,-1.1476,-1.1044,-0.9735,-0.8357,-0.7123,-0.4584,-0.2695,-0.175,-0.0648,0.0,0.0,0.0,0.0,0.0,0.0,0.0,0.0,0.0,0.0,0.0,0.0,0.0,0.0,0.0,0.0,0.0,0.0,0.0,0.0,0.0,0.0,0.0,0.0,0.0,0.0,0.0,0.0,0.0,0.0,0.0,0.0,0.0,0.0,0.0,0.0,-1.98,0.0,0.0,0.0,0.0,0.0,0.0,0.0,-1.98,-1.98,-2.0054,-2.0641,-2.0949,-2.1243,-2.1601,-2.2124,-2.2712,-2.3327,-2.3621,-2.3607,-2.33,-2.2699,-2.2258,-2.1964,-2.1376,-2.0949,-2.0655,-2.0361,-1.9873,-1.9213,-1.8647,-1.8006,-1.7361,0.0,0.0,0.0,0.0,0.0,0.0,0.0,-1.0846,-1.0308,-1.0308,-1.0065,-0.9822,-0.9822,-0.9822,-0.9822,-0.9822,-0.9822,-0.9856,-0.995,-1.0168,-1.0358,-1.0656,-1.0948,-1.1124,-1.0982,-1.1063,-1.1212,-1.1362,-1.1389,-1.1443,-1.1592,-1.1619,-1.1667,-1.1809,-1.1708,-1.1674,-1.1809,-1.1708,-1.1476,-1.1044,-0.9957,-0.8652,-0.7123,-0.4802,-0.2986,-0.1749,-0.0648,0.0,0.0,0.0,0.0,0.0,0.0,0.0,0.0,0.0,0.0,0.0,0.0,0.0,0.0,0.0,0.0,0.0,0.0,0.0,0.0,0.0,0.0,0.0,0.0,0.0,0.0,0.0,0.0,0.0,0.0,0.0,0.0,0.0,0.0,0.0,-1.9479,-1.9679,0.0,0.0,0.0,0.0,0.0,0.0,0.0,-1.9492,-1.9693,-1.988,-2.0054,-2.0535,-2.0935,-2.1229,-2.1817,-2.2405,-2.3006,-2.3086,-2.2979,-2.2686,-2.2298,-2.2071,-2.1964,-2.159,-2.1256,-2.0949,-2.0209,-1.9585,-1.8928,-1.787,-1.7056,-1.6419,0.0,0.0,0.0,0.0,0.0,0.0,0.0,0.0,0.0,-0.9943,-0.9883,-0.9822,-0.9822,-0.9822,-0.9822,-0.9822,-0.9822,-0.9856,-0.995,-1.0168,-1.0358,-1.0656,-1.0948,-1.1179,-1.1246,-1.1294,-1.1335,-1.1382,-1.1389,-1.1443,-1.1592,-1.1619,-1.1633,-1.1674,-1.1647,-1.1633,-1.1681,-1.1647,-1.1548,-1.1404,-1.0173,-0.8868,-0.7851,-0.5093,-0.3119,-0.2157,-0.0781,0.0,0.0,0.0,0.0,0.0,0.0,0.0,0.0,0.0,0.0,0.0,0.0,0.0,0.0,0.0,0.0,0.0,0.0,0.0,0.0,0.0,0.0,0.0,0.0,0.0,0.0,0.0,0.0,0.0,0.0,0.0,0.0,0.0,0.0,0.0,0.0,-1.9519,-1.9626,0.0,0.0,0.0,0.0,0.0,0.0,-1.943,-1.9533,-1.9733,-1.996,-2.0307,-2.0695,-2.1096,-2.1456,-2.175,-2.2057,-2.2338,-2.2418,-2.2245,-2.2071,-2.1991,-2.1977,-2.1553,-2.1197,-2.0816,-1.9817,-1.8981,-1.82,-1.6973,-1.5924,-1.5035,0.0,0.0,0.0,0.0,0.0,0.0,0.0,0.0,0.0,-0.9822,-0.9822,-0.9822,-0.9822,-0.9822,-0.9822,-0.9822,-0.9863,-0.9889,-1.01,-1.0297,-1.0548,-1.0907,-1.1124,-1.1294,-1.145,-1.1484,-1.1484,-1.1484,-1.1484,-1.1511,-1.1606,-1.1619,-1.1619,-1.1619,-1.1619,-1.1619,-1.1619,-1.1619,-1.1619,-1.1619,-1.0317,-0.9157,-0.814,-0.5502,-0.3457,-0.2359,-0.0984,-0.0139,0.0,0.0,0.0,0.0,0.0,0.0,0.0,0.0,0.0,0.0,0.0,0.0,0.0,0.0,0.0,0.0,0.0,0.0,0.0,0.0,0.0,0.0,0.0,0.0,0.0,0.0,0.0,-1.9764,-1.9764,0.0,0.0,0.0,0.0,0.0,0.0,-1.943,-1.943,0.0,0.0,0.0,0.0,0.0,0.0,0.0,-1.943,-1.9613,-2.0174,-2.0241,-2.0521,-2.1056,-2.1069,-2.0922,-2.0641,-2.1456,-2.1871,-2.1871,-2.1897,-2.1924,-2.1872,-2.1215,-2.0747,-2.0373,-1.9125,-1.8058,-1.7109,-1.5904,-1.4679,-1.3426,-1.2475,0.0,0.0,0.0,0.0,0.0,0.0,0.0,0.0,-0.9822,-0.9822,-0.9822,-0.9822,-0.9822,-0.9822,-0.9822,-0.9869,-1.0024,-1.0243,-1.0521,-1.0873,-1.1294,-1.1402,-1.145,-1.1592,-1.1619,-1.1619,-1.1619,-1.1619,-1.1619,-1.1619,-1.1619,-1.1619,-1.1619,-1.1619,-1.1619,-1.1619,-1.1619,-1.1619,-1.1619,-1.0606,-0.9441,-0.8198,-0.5958,-0.3921,-0.2422,-0.1184,-0.0343,0.0,0.0,0.0,0.0,0.0,0.0,0.0,0.0,0.0,0.0,0.0,0.0,0.0,0.0,0.0,0.0,0.0,0.0,0.0,0.0,0.0,0.0,0.0,0.0,0.0,0.0,0.0,-1.9475,-1.9475,0.0,0.0,0.0,0.0,0.0,0.0,0.0,0.0,0.0,0.0,0.0,0.0,0.0,0.0,0.0,-1.943,-1.9533,-1.988,-2.0334,-2.0641,-2.0762,-2.0775,-2.0628,-2.0334,-2.0748,-2.0962,-2.0962,-2.1189,-2.1288,-2.1189,-2.0799,-2.0232,-1.9407,-1.7859,-1.6703,-1.5793,-1.43,-1.3255,-1.2414,-1.145,-1.0846,0.0,0.0,0.0,0.0,0.0,0.0,0.0,-0.9822,-0.9822,-0.9822,-0.9822,-0.9822,-0.9822,-0.9822,-0.9869,-1.0024,-1.0243,-1.0677,-1.1124,-1.1341,-1.1484,-1.1579,-1.1613,-1.1619,-1.1619,-1.1619,-1.1619,-1.1619,-1.1619,-1.1619,-1.1619,-1.1619,-1.1619,-1.1619,-1.1619,-1.1619,-1.1619,-1.1619,-1.0606,-0.9479,-0.8525,-0.6072,-0.4032,-0.2774,-0.1309,-0.0342,0.0,0.0,0.0,0.0,0.0,0.0,0.0,0.0,0.0,0.0,0.0,0.0,0.0,0.0,0.0,0.0,0.0,0.0,0.0,0.0,0.0,0.0,0.0,0.0,0.0,0.0,0.0,0.0,0.0,0.0,0.0,0.0,0.0,0.0,0.0,0.0,0.0,0.0,0.0,0.0,0.0,0.0,0.0,0.0,0.0,-1.9492,-1.9786,-2.0227,-2.0468,-2.0468,-2.0334,-2.0187,-2.0027,-2.004,-2.0187,-2.0468,-2.0721,-2.0679,-2.0374,-1.9861,-1.9048,-1.8011,-1.6382,-1.5176,-1.4309,-1.306,-1.2063,-1.1331,-1.0733,-1.0261,-0.9961,-0.978,0.0,0.0,0.0,0.0,0.0,0.0,0.0,-0.9822,-0.9822,-0.9822,-0.9822,-0.9822,-0.9985,-1.0229,-1.0527,-1.088,-1.1275,-1.1355,-1.1511,-1.1619,-1.1619,-1.1619,-1.1619,-1.1619,-1.1619,-1.1619,-1.1619,-1.1619,-1.1619,-1.1619,-1.1619,-1.1619,-1.1619,-1.1619,-1.1619,-1.1619,-1.0894,-0.9899,-0.8708,-0.6803,-0.4832,-0.2886,-0.1706,-0.0678,0.0,0.0,0.0,0.0,0.0,0.0,0.0,0.0,0.0,0.0,0.0,0.0,0.0,0.0,0.0,0.0,0.0,0.0,0.0,0.0,0.0,0.0,0.0,0.0,0.0,0.0,0.0,0.0,0.0,0.0,0.0,0.0,0.0,0.0,0.0,0.0,0.0,0.0,0.0,0.0,0.0,0.0,0.0,0.0,0.0,0.0,-1.9786,-2.008,-2.0153,-2.004,-1.986,-1.9654,-1.9483,-1.9245,-1.9305,-1.9732,-2.0133,-1.9964,-1.9349,-1.8641,-1.7582,-1.6328,-1.4779,-1.3653,-1.2731,-1.1891,-1.1069,-1.0458,-1.0103,-0.9808,-0.9571,-0.9571,-0.9659,-0.9781,-0.9781,0.0,0.0,0.0,0.0,-0.9822,-0.9822,-0.9822,-0.9822,-0.9822,-1.0046,-1.0385,-1.0739,-1.1036,-1.1275,-1.1355,-1.1511,-1.1619,-1.1619,-1.1619,-1.1619,-1.1619,-1.1619,-1.1619,-1.1619,-1.1619,-1.1619,-1.1619,-1.1619,-1.1619,-1.1619,-1.1619,-1.1619,-1.1619,-1.126,-1.0323,-0.8823,-0.7524,-0.5622,-0.3012,-0.2032,-0.1077,-0.0067,0.0,0.0,0.0,0.0,0.0,0.0,0.0,0.0,0.0,0.0,0.0,0.0,0.0,0.0,0.0,0.0,0.0,0.0,0.0,0.0,0.0,0.0,0.0,0.0,0.0,0.0,0.0,0.0,0.0,0.0,0.0,0.0,0.0,0.0,-1.943,-1.943,0.0,0.0,0.0,0.0,0.0,0.0,-1.943,0.0,0.0,-1.98,-2.008,-1.9986,-1.9423,-1.9384,-1.8944,-1.816,-1.8123,-1.8043,-1.7895,-1.874,-1.8751,-1.8016,-1.7123,-1.5866,-1.4392,-1.3321,-1.2249,-1.1296,-1.0584,-1.0193,-0.9932,-0.9641,-0.9473,-0.9408,-0.9408,-0.951,-0.9639,-0.9639,-0.972,0.0,0.0,0.0,-0.9822,-0.9822,-0.9822,-0.9822,-0.9822,-1.0046,-1.0358,-1.067,-1.0962,-1.1275,-1.1355,-1.1511,-1.1619,-1.1619,-1.1619,-1.1619,-1.1619,-1.1619,-1.1619,-1.1619,-1.1619,-1.1619,-1.1619,-1.1619,-1.1619,-1.1619,-1.1619,-1.1619,-1.1619,-1.126,-1.0429,-0.9051,-0.7622,-0.5739,-0.331,-0.2155,-0.1077,-0.0067,0.0,0.0,0.0,0.0,0.0,0.0,0.0,0.0,0.0,0.0,0.0,0.0,0.0,0.0,0.0,0.0,0.0,0.0,0.0,0.0,0.0,0.0,0.0,0.0,0.0,0.0,0.0,0.0,0.0,0.0,0.0,0.0,0.0,0.0,0.0,-1.943,0.0,0.0,0.0,-1.9118,-1.8971,-1.8888,-1.8863,-1.9153,-1.9122,-1.877,-1.8826,-1.872,-1.8298,-1.8109,-1.7811,-1.7408,-1.722,-1.6868,-1.6408,-1.664,-1.6694,-1.6507,-1.5544,-1.4321,-1.2959,-1.1949,-1.11,-1.0487,-0.9929,-0.962,-0.9481,-0.9367,-0.9309,-0.9309,-0.9309,-0.9354,-0.9496,-0.9585,-0.9652,-0.972,-0.9795,0.0,0.0,0.0,-0.9639,-0.9612,-0.9774,-0.9985,-1.0222,-1.0521,-1.0819,-1.1084,-1.1226,-1.145,-1.1619,-1.1619,-1.1619,-1.1619,-1.1619,-1.1619,-1.1619,-1.1619,-1.1619,-1.1619,-1.1619,-1.1619,-1.1619,-1.1619,-1.1619,-1.1619,-1.1619,-1.1476,-1.0708,-0.9098,-0.803,-0.6218,-0.3367,-0.2423,-0.1346,-0.0067,0.0,0.0,0.0,0.0,0.0,0.0,0.0,0.0,0.0,0.0,0.0,0.0,0.0,0.0,0.0,0.0,0.0,0.0,0.0,0.0,0.0,0.0,0.0,0.0,0.0,0.0,0.0,0.0,0.0,0.0,0.0,0.0,0.0,0.0,0.0,0.0,0.0,0.0,0.0,0.0,-1.8483,-1.8236,-1.8094,-1.832,-1.8184,-1.7591,-1.7535,-1.7408,-1.6997,-1.6762,-1.6514,-1.6161,-1.5924,-1.5451,-1.4857,-1.451,-1.4451,-1.4629,-1.3895,-1.2977,-1.1804,-1.0859,-1.0236,-0.9891,-0.9545,-0.935,-0.9214,-0.9255,-0.9268,-0.9262,-0.9221,-0.9309,-0.9395,-0.9469,-0.9517,-0.9571,-0.968,-0.9639,0.0,0.0,0.0,-0.9435,-0.97,-0.9876,-1.0004,-1.0365,-1.0663,-1.0941,-1.1124,-1.1369,-1.1558,-1.1558,-1.1558,-1.1552,-1.1511,-1.1565,-1.1619,-1.1619,-1.1619,-1.1619,-1.1619,-1.1619,-1.1619,-1.1619,-1.1619,-1.1619,-1.1619,-1.1619,-1.0863,-0.9212,-0.8398,-0.6639,-0.3451,-0.2562,-0.1548,-0.0067,0.0,0.0,0.0,0.0,0.0,0.0,0.0,0.0,0.0,0.0,0.0,0.0,0.0,0.0,0.0,0.0,0.0,0.0,0.0,0.0,0.0,0.0,0.0,0.0,0.0,0.0,0.0,0.0,0.0,0.0,0.0,0.0,0.0,0.0,0.0,0.0,-1.943,-1.8863,-1.8507,-1.8507,-1.7978,-1.7545,-1.7266,-1.7232,-1.7023,-1.669,-1.6623,0.0,-1.5688,-1.5688,-1.5095,-1.3844,-1.3844,-1.3485,-1.2835,-1.2535,-1.2234,-1.1993,-1.2191,-1.176,-1.0838,-1.0323,-0.9877,-0.9453,-0.9388,-0.935,-0.9228,-0.9313,-0.9367,-0.9347,-0.9262,-0.9309,-0.9361,-0.9282,-0.933,-0.9395,-0.9401,-0.9401,-0.9395,0.0,0.0,0.0,-0.9578,-0.9727,-0.991,-1.0215,-1.0514,-1.0806,-1.1097,-1.1287,-1.1402,-1.1402,-1.1402,-1.1362,-1.1212,-1.1423,-1.1619,-1.1619,-1.1619,-1.1619,-1.1619,-1.1619,-1.1619,-1.1619,-1.1619,-1.1619,-1.1619,-1.1619,-1.0908,-0.9335,-0.8443,-0.6664,-0.3563,-0.2643,-0.1548,-0.0067,0.0,0.0,0.0,0.0,0.0,0.0,0.0,0.0,0.0,0.0,0.0,0.0,0.0,0.0,0.0,0.0,0.0,0.0,0.0,0.0,0.0,0.0,0.0,0.0,0.0,0.0,0.0,0.0,0.0,0.0,0.0,0.0,0.0,0.0,0.0,0.0,0.0,-1.7767,-1.7322,-1.7322,-1.6851,-1.6208,-1.5588,-1.5648,-1.5407,-1.4576,-1.4542,-1.4301,-1.3725,-1.3414,-1.3054,-1.2581,-1.229,-1.2005,-1.1649,-1.153,-1.1228,-1.0846,-1.1148,-1.0967,-1.0475,-0.9965,-0.9696,-0.9517,-0.9422,-0.9347,-0.9306,-0.9361,-0.9381,-0.9374,-0.932,-0.933,-0.9296,-0.9344,-0.933,-0.9309,-0.9347,-0.9313,-0.9275,-0.9123,-0.9164,-0.9323,-0.9422,-0.9571,-0.9754,-1.0059,-1.0358,-1.0629,-1.0833,-1.107,-1.1246,-1.1246,-1.1246,-1.1226,-1.1241,-1.1335,-1.147,-1.147,-1.1558,-1.1619,-1.1619,-1.1619,-1.1619,-1.1619,-1.1619,-1.1619,-1.1619,-1.1619,-1.1051,-0.9623,-0.8585,-0.6873,-0.4258,-0.287,-0.163,-0.0337,-0.0135,0.0,0.0,0.0,0.0,0.0,0.0,0.0,0.0,0.0,0.0,0.0,0.0,0.0,0.0,0.0,0.0,0.0,0.0,0.0,0.0,0.0,0.0,0.0,0.0,0.0,0.0,0.0,0.0,-1.9243,-1.9243,-1.8823,-1.8519,-1.8415,0.0,0.0,0.0,0.0,-1.5927,-1.5588,-1.5251,-1.4713,-1.3902,-1.3998,-1.3715,-1.2843,-1.2808,-1.2581,-1.2234,-1.1878,-1.1602,-1.1366,-1.1023,-1.0709,-1.0531,-1.0531,-1.0354,-1.0032,-1.0268,-1.0318,-1.0112,-0.9726,-0.9612,-0.9598,-0.9496,-0.9456,-0.9462,-0.951,-0.953,-0.9523,-0.9476,-0.9395,-0.9313,-0.9361,-0.9337,-0.9228,-0.933,-0.9205,-0.9062,-0.8912,-0.9008,-0.9117,-0.9266,-0.9415,-0.9605,-0.9835,-1.0161,-1.0399,-1.0595,-1.0833,-1.1016,-1.1016,-1.1056,-1.1077,-1.1023,-1.1138,-1.126,-1.1307,-1.1443,-1.1545,-1.1545,-1.1586,-1.1619,-1.1619,-1.1619,-1.1619,-1.1619,-1.1619,-1.1071,-0.9829,-0.8784,-0.713,-0.4632,-0.3164,-0.1773,-0.0404,-0.0135,0.0,0.0,0.0,0.0,0.0,0.0,0.0,0.0,0.0,0.0,0.0,0.0,0.0,0.0,0.0,0.0,0.0,0.0,0.0,0.0,0.0,0.0,0.0,0.0,0.0,-1.9359,-1.9372,-1.9068,-1.8881,-1.8881,-1.8286,-1.776,-1.7479,0.0,0.0,0.0,0.0,0.0,-1.3335,-1.3241,-1.297,-1.2363,-1.2284,-1.2046,-1.1676,-1.1511,-1.1395,-1.1269,-1.1113,-1.0732,-1.0073,-0.9975,-0.9722,-0.9374,-0.9374,-0.9374,-0.9388,-0.9537,-0.968,-0.9802,-0.9673,-0.9612,-0.9612,-0.9612,-0.9618,-0.9632,-0.9768,-0.9822,-0.9802,-0.9666,-0.9612,-0.9585,-0.9435,-0.9344,-0.9214,-0.9214,-0.9055,-0.8885,-0.8885,-0.8885,-0.8974,0.0,0.0,0.0,-0.9741,-0.9869,-1.0058,-1.0405,-1.0595,-1.0711,-1.0711,-1.0833,-1.0826,-1.0744,-1.0839,-1.0989,-1.1124,-1.128,-1.1389,-1.1389,-1.1518,-1.1613,-1.1619,-1.1619,-1.1619,-1.1619,-1.1619,-1.1109,-1.0023,-0.9122,-0.7446,-0.4829,-0.3454,-0.191,-0.0067,0.0,0.0,0.0,0.0,0.0,0.0,0.0,0.0,0.0,0.0,0.0,0.0,0.0,0.0,0.0,0.0,0.0,0.0,0.0,0.0,0.0,0.0,0.0,0.0,0.0,-1.9055,-1.8881,-1.8402,-1.8227,-1.8052,-1.7584,-1.6997,-1.6467,0.0,0.0,0.0,-1.45,-1.3654,-1.2754,-1.1904,-1.1868,-1.1594,-1.0916,-1.0847,-1.0675,-1.0343,-1.0287,-1.0266,-1.024,-1.0098,-0.9853,-0.9617,-0.9465,-0.9332,-0.9275,-0.9275,-0.933,-0.9381,-0.9422,-0.9462,-0.9517,-0.9686,-0.97,-0.9618,-0.972,-0.9761,-0.9768,-0.9808,-0.9822,-0.9815,-0.9774,-0.9693,-0.9605,-0.9557,-0.9442,-0.9357,-0.9248,-0.9055,-0.8885,-0.8885,-0.8885,-0.8939,-0.9252,0.0,0.0,0.0,0.0,0.0,-1.0012,-1.0209,-1.0432,-1.0534,-1.0588,-1.0636,-1.0711,-1.0758,-1.0799,-1.0839,-1.1056,-1.1267,-1.1375,-1.143,-1.1497,-1.1606,-1.1619,-1.1619,-1.1619,-1.1619,-1.1332,-1.075,-0.9407,-0.787,-0.6295,-0.3493,-0.1351,-0.0067,0.0,0.0,0.0,0.0,0.0,0.0,0.0,0.0,0.0,0.0,0.0,0.0,0.0,0.0,0.0,0.0,0.0,0.0,0.0,0.0,0.0,0.0,0.0,0.0,-1.8577,-1.8415,-1.8169,-1.7642,-1.722,-1.6809,-1.6455,-1.5698,-1.4976,0.0,0.0,0.0,-1.2601,-1.2141,-1.1545,-1.0915,-1.0827,-1.0515,-1.0032,-0.9964,-0.9824,-0.9559,-0.9578,-0.9666,-0.9727,-0.9652,-0.9537,-0.9381,-0.9282,-0.918,-0.9062,-0.9062,-0.911,-0.9198,-0.9259,-0.9252,-0.9218,-0.951,-0.9591,-0.953,-0.9673,-0.9734,-0.9741,-0.9795,-0.9822,-0.9822,-0.9822,-0.9768,-0.97,-0.97,-0.9598,-0.9442,-0.9275,-0.9096,-0.9028,-0.9028,-0.9028,-0.9076,-0.932,-0.9429,-0.9483,-0.951,0.0,0.0,-0.9754,-0.9917,-1.0127,-1.0276,-1.0358,-1.0432,-1.0521,-1.0582,-1.0622,-1.0622,-1.0826,-1.1029,-1.1185,-1.1314,-1.1423,-1.1511,-1.1579,-1.1619,-1.1619,-1.1619,-1.1404,-1.1044,-0.9692,-0.7846,-0.548,-0.2993,-0.1077,-0.0067,0.0,0.0,0.0,0.0,0.0,0.0,0.0,0.0,0.0,0.0,0.0,0.0,0.0,0.0,0.0,0.0,0.0,0.0,0.0,0.0,0.0,0.0,0.0,0.0,0.0,-1.7467,-1.7126,-1.6703,-1.5924,-1.5332,-1.5213,-1.4262,-1.3375,0.0,-1.2414,-1.1695,-1.0948,-1.0873,-1.0679,-1.0258,-1.006,-0.9794,-0.9525,-0.9398,-0.9279,-0.92,-0.9344,-0.9435,-0.9605,-0.9591,-0.9517,-0.9381,-0.9282,-0.9083,-0.8885,-0.8885,-0.8885,-0.8892,-0.9076,-0.9055,-0.8898,-0.9218,-0.9334,-0.9347,-0.9537,-0.9612,-0.9625,-0.9768,-0.9822,-0.9822,-0.9822,-0.9822,-0.9822,-0.9822,-0.9727,-0.9564,-0.935,-0.9248,-0.9234,-0.9234,-0.9234,-0.9268,-0.9367,-0.9503,-0.9578,-0.9442,-0.9517,0.0,-0.9612,-0.972,-0.9863,-0.9957,-1.0161,-1.0263,-1.0276,-1.0385,-1.0466,-1.0466,-1.0595,-1.0751,-1.0853,-1.1172,-1.1355,-1.1389,-1.1511,-1.1599,-1.1619,-1.1619,-1.1469,-1.109,-0.98,-0.7371,-0.3563,-0.2303,-0.1144,-0.0067,0.0,0.0,0.0,0.0,0.0,0.0,0.0,0.0,0.0,0.0,0.0,0.0,0.0,0.0,0.0,0.0,0.0,0.0,0.0,0.0,0.0,0.0,0.0,0.0,-1.6585,-1.6172,-1.5628,-1.456,-1.4202,-1.3784,-1.3006,-1.2475,-1.2053,-1.1692,-1.1088,-1.0536,-1.0084,-1.0023,-0.9912,-0.9576,-0.9527,-0.941,-0.905,-0.9009,-0.9057,-0.92,-0.9234,-0.9327,-0.9605,-0.949,-0.9408,-0.9381,-0.9282,-0.9083,-0.8885,-0.8885,-0.8885,-0.8885,-0.8967,-0.8912,-0.8885,-0.8946,-0.9028,-0.9062,-0.9456,-0.9612,-0.9625,-0.9768,-0.9822,-0.9822,-0.9822,-0.9822,-0.9822,-0.9822,-0.9727,-0.9598,-0.9537,-0.9435,-0.934,-0.934,-0.934,-0.9367,-0.9523,-0.9585,-0.9605,-0.9571,-0.9673,0.0,-0.9639,-0.972,-0.9863,-0.9957,-1.0011,-1.0134,-1.0256,-1.0304,-1.0324,-1.0324,-1.0439,-1.0629,-1.084,-1.0927,-1.1124,-1.1362,-1.1416,-1.1484,-1.1606,-1.1619,-1.1494,-1.1372,-0.9237,-0.6582,-0.3377,-0.2493,-0.1414,-0.0067,0.0,0.0,0.0,0.0,0.0,0.0,0.0,0.0,0.0,0.0,0.0,0.0,0.0,0.0,0.0,0.0,0.0,0.0,0.0,0.0,0.0,0.0,0.0,0.0,-1.5095,-1.4629,-1.4093,-1.3135,-1.2706,-1.2346,-1.1812,-1.1329,-1.0967,-1.0853,-1.0368,-1.0004,-0.9822,-0.9822,-0.9761,-0.9612,-0.9462,-0.932,-0.9171,-0.9022,-0.8974,-0.9042,-0.9173,-0.9282,-0.9381,-0.9381,-0.9347,-0.9323,-0.9248,-0.9083,-0.8885,-0.8885,-0.8885,-0.8885,-0.8885,-0.8885,-0.8885,-0.8885,-0.8885,-0.8912,-0.9266,-0.9429,-0.951,-0.9659,-0.9761,-0.9822,-0.9822,-0.97,-0.9518,-0.9396,-0.9411,-0.946,-0.9387,-0.9432,-0.9496,-0.9496,-0.9496,-0.953,-0.9673,-0.9713,-0.97,-0.9625,-0.9659,0.0,0.0,-0.9666,-0.9754,-0.9842,-0.9815,-0.9856,-0.993,-1.0005,-1.0053,-1.0053,-1.0243,-1.0439,-1.0595,-1.0739,-1.0934,-1.1151,-1.1233,-1.1307,-1.1382,-1.1389,-1.1047,-1.014,-0.8628,-0.6405,-0.3365,-0.2558,-0.1548,-0.0067,0.0,0.0,0.0,0.0,0.0,0.0,0.0,0.0,0.0,0.0,0.0,0.0,0.0,0.0,0.0,0.0,0.0,0.0,0.0,0.0,0.0,0.0,0.0,0.0,-1.348,-1.3048,-1.2603,-1.1933,-1.145,-1.1088,-1.1035,-1.0543,-1.0186,-1.0186,-0.9943,-0.9822,-0.9822,-0.9822,-0.9808,-0.9781,-0.9564,-0.9415,-0.9381,-0.9157,-0.9008,-0.8981,-0.9089,-0.9207,-0.9207,-0.9245,-0.9252,-0.9207,-0.918,-0.9055,-0.8885,-0.8885,-0.8885,-0.8885,-0.8885,-0.8885,-0.8885,-0.8885,-0.8885,-0.8892,-0.9062,-0.9218,-0.9343,-0.9466,-0.954,-0.9518,-0.9457,-0.9275,-0.897,-0.8793,-0.8909,-0.9134,-0.9014,-0.9168,-0.9473,-0.9533,-0.9533,-0.9553,-0.9667,-0.97,-0.9674,-0.95,-0.9533,-0.9533,0.0,0.0,0.0,-0.9754,-0.9666,-0.9564,-0.9564,-0.9659,-0.9747,-0.9774,-1.0012,-1.0202,-1.0236,-1.0575,-1.0766,-1.0793,-1.0989,-1.109,-1.1118,-1.1124,-1.0522,-0.8911,-0.8068,-0.6385,-0.3365,-0.2558,-0.1548,-0.0067,0.0,0.0,0.0,0.0,0.0,0.0,0.0,0.0,0.0,0.0,0.0,0.0,0.0,0.0,0.0,0.0,0.0,0.0,0.0,0.0,0.0,0.0,0.0,0.0,-1.1711,-1.1638,-1.1269,-1.0604,-1.049,-1.0308,-1.0004,-0.9883,-0.9883,-0.9883,-0.9822,-0.9822,-0.9822,-0.9822,-0.9768,-0.9646,-0.9605,-0.9523,-0.9388,-0.9347,-0.9273,-0.9193,-0.92,-0.9207,-0.9207,-0.9049,-0.9042,-0.9207,-0.9028,-0.8898,-0.8885,-0.8885,-0.8885,-0.8885,-0.8885,-0.8885,-0.8885,-0.8885,-0.8885,-0.8885,-0.8898,-0.8961,-0.9007,-0.9213,-0.9019,-0.8538,-0.8233,-0.8116,-0.8055,-0.7994,-0.8233,-0.8477,-0.8459,-0.8702,-0.9012,-0.9255,-0.9316,-0.9316,-0.9329,-0.9335,-0.9275,-0.9019,-0.9134,-0.9316,-0.9316,0.0,-0.9612,-0.9632,0.0,-0.9408,-0.9408,0.0,0.0,-0.9612,-0.9768,-0.9924,-0.9997,-1.0236,-1.0405,-1.0527,-1.0677,-1.0826,-1.0894,-1.0907,-1.0351,-0.8905,-0.7993,-0.625,-0.3362,-0.2558,-0.1548,-0.0067,0.0,0.0,0.0,0.0,0.0,0.0,0.0,0.0,0.0,0.0,0.0,0.0,0.0,0.0,0.0,0.0,0.0,0.0,0.0,0.0,0.0,0.0,0.0,0.0,-1.0484,-1.0516,-1.0332,-0.986,-0.9818,-0.982,-0.97,-0.9768,-0.9822,-0.9822,-0.9822,-0.9822,-0.9822,-0.9822,-0.9795,-0.9741,-0.9659,-0.9585,-0.9517,-0.9429,-0.9354,-0.9344,-0.9255,-0.9207,-0.9207,-0.9015,-0.8912,-0.9028,-0.8912,-0.8885,-0.8885,-0.8885,-0.8885,-0.8885,-0.8885,-0.8885,-0.8885,-0.8885,-0.8823,-0.867,-0.8841,-0.8462,-0.7874,-0.8508,-0.8408,-0.7739,-0.7011,-0.6766,-0.6705,-0.6521,-0.6644,-0.7011,-0.7378,-0.7744,-0.8111,-0.8421,-0.8604,-0.8787,-0.8787,-0.8909,-0.9037,-0.8915,-0.9035,-0.9213,-0.9213,-0.9341,-0.9476,-0.9476,0.0,0.0,0.0,0.0,0.0,0.0,-0.9469,-0.9591,-0.9652,-0.9795,-1.0012,-1.0331,-1.0426,-1.0487,-1.0555,-1.0561,-0.9966,-0.8585,-0.7807,-0.6163,-0.3322,-0.2546,-0.1548,-0.0067,0.0,0.0,0.0,0.0,0.0,0.0,0.0,0.0,0.0,0.0,0.0,0.0,0.0,0.0,0.0,0.0,0.0,0.0,0.0,0.0,0.0,0.0,0.0,0.0,-0.9581,-0.973,-0.9671,-0.9439,-0.9469,-0.9557,-0.9605,-0.9727,-0.9822,-0.9822,-0.9822,-0.9822,-0.9822,-0.9822,-0.9822,-0.9822,-0.9727,-0.9666,-0.9666,-0.9564,-0.9483,-0.9449,-0.934,-0.9296,-0.9214,-0.9049,-0.8981,-0.8885,-0.8885,-0.8885,-0.8885,-0.8885,-0.8885,-0.8885,-0.8981,-0.8994,-0.9001,-0.893,-0.8719,-0.8451,-0.8487,-0.771,-0.6563,-0.7118,-0.693,-0.6333,-0.5414,-0.5107,-0.5107,-0.4926,-0.5111,-0.5479,-0.6031,-0.646,-0.6823,-0.7255,-0.75,-0.7744,-0.7805,-0.8116,-0.8355,-0.832,-0.854,-0.8813,-0.8894,-0.913,-0.9334,-0.9374,-0.9316,0.0,0.0,0.0,-0.9275,-0.9275,0.0,-0.9381,-0.9381,-0.9476,-0.9686,-1.0053,-1.0168,-1.0236,-1.0276,-1.0283,-0.9704,-0.8284,-0.7657,-0.6072,-0.3271,-0.2514,-0.1534,-0.0067,0.0,0.0,0.0,0.0,0.0,0.0,0.0,0.0,0.0,0.0,0.0,0.0,0.0,0.0,0.0,0.0,0.0,0.0,0.0,0.0,0.0,0.0,0.0,0.0,-0.8954,-0.9184,-0.9439,-0.9381,-0.9388,-0.9442,-0.9585,-0.9727,-0.9822,-0.9822,-0.9822,-0.9822,-0.9822,-0.9822,-0.9822,-0.9822,-0.9815,-0.9815,-0.9815,-0.9808,-0.9747,-0.9605,-0.9598,-0.9456,-0.9214,-0.9207,-0.9076,-0.8885,-0.8885,-0.8885,-0.8885,-0.8885,-0.8885,-0.8892,-0.9083,-0.92,-0.9157,-0.8961,-0.8729,-0.8369,-0.7688,-0.6582,-0.5178,-0.4706,-0.4306,-0.3943,-0.3325,-0.3079,-0.3141,-0.3451,-0.3758,-0.4004,-0.4376,-0.4681,-0.5111,-0.5786,-0.597,-0.6031,-0.6403,-0.6705,-0.6926,-0.683,-0.7459,-0.82,-0.8365,-0.8807,-0.9262,-0.9354,-0.9316,-0.9255,-0.9347,-0.9374,-0.9374,-0.9374,-0.9374,0.0,0.0,-0.9388,-0.9449,-0.9612,-0.9883,-1.0114,-1.0263,-1.0283,-0.9704,-0.8284,-0.7581,-0.5981,-0.3222,-0.2452,-0.1429,-0.0066,0.0,0.0,0.0,0.0,0.0,0.0,0.0,0.0,0.0,0.0,0.0,0.0,0.0,0.0,0.0,0.0,0.0,0.0,0.0,0.0,0.0,0.0,0.0,0.0,-0.8885,-0.8966,-0.9089,-0.9089,-0.9171,-0.9313,-0.9571,-0.9727,-0.9822,-0.9822,-0.9822,-0.9822,-0.9822,-0.9822,-0.9822,-0.9822,-0.9822,-0.9822,-0.9822,-0.9822,-0.9802,-0.9754,-0.9659,-0.9557,-0.9456,-0.9316,-0.9187,-0.9083,-0.9083,-0.9028,-0.8885,-0.9035,-0.9028,-0.8885,-0.8988,-0.9062,-0.9157,-0.8869,-0.8423,-0.763,-0.5759,-0.452,-0.373,-0.3809,-0.3574,-0.3207,-0.2342,-0.2034,-0.2034,-0.2157,-0.2219,-0.2404,-0.296,-0.3204,-0.3389,-0.3879,-0.4247,-0.4619,-0.4742,-0.5295,-0.5965,-0.6115,-0.6616,-0.7172,-0.7805,-0.8119,-0.8337,-0.8659,-0.8704,-0.8685,-0.8736,-0.8742,-0.8775,-0.8902,-0.8946,-0.897,0.0,-0.9171,-0.9344,-0.9442,-0.9639,-0.9815,-0.9964,-0.9978,-0.9416,-0.8116,-0.7436,-0.5894,-0.3173,-0.2436,-0.1488,-0.0065,0.0,0.0,0.0,0.0,0.0,0.0,0.0,0.0,0.0,0.0,0.0,0.0,0.0,0.0,0.0,0.0,0.0,0.0,0.0,0.0,0.0,0.0,0.0,0.0,-0.8885,-0.8885,-0.8885,-0.8885,-0.9103,-0.93,-0.9496,-0.9693,-0.9822,-0.9822,-0.9822,-0.9822,-0.9822,-0.9822,-0.9822,-0.9822,-0.9822,-0.9822,-0.9822,-0.9822,-0.9822,-0.9822,-0.9734,-0.9659,-0.9612,-0.9415,-0.9344,-0.9289,-0.9289,-0.9157,-0.9015,-0.9166,-0.9076,-0.8885,-0.8994,-0.9096,-0.9239,-0.8717,-0.8113,-0.7223,-0.459,-0.3115,-0.2464,-0.2466,-0.2282,-0.2036,-0.1234,-0.0987,-0.0987,-0.1111,-0.1172,-0.1234,-0.1789,-0.1974,-0.2036,-0.2342,-0.2773,-0.3081,-0.3204,-0.3881,-0.4616,-0.4892,-0.5534,-0.6169,-0.6793,-0.71,-0.7432,-0.7908,-0.7996,-0.8066,-0.8349,-0.8414,-0.8478,-0.8749,-0.8781,-0.8824,0.0,-0.9022,-0.913,-0.9279,-0.9435,-0.9585,-0.9734,-0.9747,-0.9284,-0.8172,-0.7382,-0.587,-0.3438,-0.2525,-0.1464,-0.0192,-0.0064,0.0,0.0,0.0,0.0,0.0,0.0,0.0,0.0,0.0,0.0,0.0,0.0,0.0,0.0,0.0,0.0,0.0,0.0,0.0,0.0,0.0,0.0,0.0,-0.8885,-0.8892,-0.8898,-0.8905,-0.9191,-0.9381,-0.9395,-0.9639,-0.9822,-0.9822,-0.9822,-0.9822,-0.9822,-0.9822,-0.9822,-0.9822,-0.9822,-0.9822,-0.9822,-0.9822,-0.9822,-0.9822,-0.9822,-0.9754,-0.9625,-0.9612,-0.9537,-0.9395,-0.9395,-0.9313,-0.9207,-0.9214,-0.9083,-0.8892,-0.9083,-0.9232,-0.933,-0.8467,-0.7752,-0.6945,-0.4066,-0.2344,-0.1356,-0.0741,-0.0494,-0.0432,-0.0123,0.0,-0.0062,-0.037,-0.0494,-0.0556,-0.0864,-0.0926,-0.0988,-0.1356,-0.1418,-0.1541,-0.1849,-0.2406,-0.295,-0.3205,-0.4153,-0.5096,-0.5377,-0.5886,-0.6441,-0.6961,-0.71,-0.7316,-0.8149,-0.8294,-0.8395,-0.8786,-0.891,-0.8915,-0.8925,-0.8885,-0.8988,-0.918,-0.9273,-0.9422,-0.9585,-0.9598,-0.9241,-0.8459,-0.749,-0.6023,-0.4004,-0.2712,-0.1552,-0.0505,-0.0189,0.0,0.0,0.0,0.0,0.0,0.0,0.0,0.0,0.0,0.0,0.0,0.0,0.0,0.0,0.0,0.0,0.0,0.0,0.0,0.0,0.0,0.0,0.0,-0.8905,-0.9022,-0.9137,-0.9245,-0.9327,-0.9422,-0.9537,-0.9707,-0.9822,-0.9822,-0.9822,-0.9822,-0.9822,-0.9822,-0.9822,-0.9822,-0.9822,-0.9822,-0.9822,-0.9822,-0.9822,-0.9822,-0.9822,-0.9802,-0.9768,-0.9666,-0.9591,-0.9551,-0.9551,-0.9415,-0.9214,-0.9323,-0.9184,-0.8885,-0.8981,-0.8967,-0.8975,-0.8248,-0.6722,-0.4616,-0.265,-0.1419,-0.0741,-0.0309,-0.0123,-0.0123,-0.0062,0.0,0.0,-0.0123,-0.0123,-0.0123,-0.0247,-0.0247,-0.0247,-0.037,-0.0555,-0.0802,-0.0864,-0.1357,-0.1971,-0.227,-0.2673,-0.3259,-0.4134,-0.4403,-0.4687,-0.5369,-0.5506,-0.5697,-0.6394,-0.6766,-0.7185,-0.802,-0.8565,-0.8917,-0.8892,-0.8885,-0.8898,-0.8988,-0.9028,-0.9157,-0.9415,-0.9442,-0.9085,-0.827,-0.7496,-0.6202,-0.4002,-0.2897,-0.1791,-0.0559,-0.0186,0.0,0.0,0.0,0.0,0.0,0.0,0.0,0.0,0.0,0.0,0.0,0.0,0.0,0.0,0.0,0.0,0.0,0.0,0.0,0.0,0.0,0.0,0.0,-0.9049,-0.915,-0.9357,-0.9456,-0.9483,-0.951,-0.9598,-0.9727,-0.9822,-0.9822,-0.9822,-0.9822,-0.9822,-0.9822,-0.9822,-0.9822,-0.9822,-0.9822,-0.9822,-0.9822,-0.9822,-0.9822,-0.9822,-0.9822,-0.9822,-0.9741,-0.97,-0.97,-0.9639,-0.949,-0.9309,0.0,0.0,-0.8712,-0.8712,-0.8646,-0.8457,-0.7267,-0.5452,-0.3204,-0.1973,-0.0987,0.0,-0.0062,0.0,0.0,0.0,0.0,0.0,0.0,0.0,0.0,0.0,0.0,0.0,0.0,-0.0123,-0.0309,-0.0309,-0.0679,-0.1111,-0.1296,-0.1654,-0.2135,-0.2706,-0.2938,-0.3171,-0.3751,-0.3943,-0.4312,-0.5107,-0.5663,-0.6337,-0.7551,-0.8217,-0.8618,-0.8719,-0.8712,-0.8768,-0.8885,-0.8885,-0.8946,-0.9171,-0.9245,-0.9058,-0.8496,-0.7665,-0.646,-0.475,-0.3316,-0.2036,-0.0987,-0.0494,-0.0247,-0.0247,-0.037,-0.037,-0.0247,-0.0247,-0.0123,0.0,0.0,0.0,0.0,0.0,0.0,0.0,0.0,0.0,0.0,0.0,0.0,0.0,0.0,0.0,0.0,-0.9268,-0.932,-0.9456,-0.9612,-0.9639,-0.9639,-0.9639,-0.9741,-0.9822,-0.9822,-0.9822,-0.9822,-0.9822,-0.9822,-0.9822,-0.9822,-0.9822,-0.9822,-0.9822,-0.9822,-0.9822,-0.9822,-0.9822,-0.9822,-0.9822,-0.9822,-0.9822,-0.9822,-0.968,-0.953,-0.9374,0.0,0.0,-0.8484,-0.8429,-0.8138,-0.7588,-0.5835,-0.4066,-0.2344,-0.1665,-0.0802,0.0,0.0,0.0,0.0,0.0,0.0,0.0,0.0,0.0,0.0,0.0,0.0,0.0,0.0,0.0,0.0,0.0,-0.0185,-0.0432,-0.0432,-0.0864,-0.1295,-0.1356,-0.1603,-0.1911,-0.2221,-0.2529,-0.3022,-0.4002,-0.4797,-0.5782,-0.7102,-0.7731,-0.8118,-0.8332,-0.8356,-0.8517,-0.8856,-0.8836,0.0,-0.8885,-0.9049,-0.9077,-0.8878,-0.7836,-0.6777,-0.5769,-0.3725,-0.2219,-0.1541,-0.0864,-0.0494,-0.0494,-0.0803,-0.0803,-0.0494,-0.0494,-0.0309,0.0,0.0,0.0,0.0,0.0,0.0,0.0,0.0,0.0,0.0,0.0,0.0,0.0,0.0,0.0,0.0,-0.953,-0.9551,-0.9612,-0.9761,-0.9781,-0.9781,-0.9781,-0.9802,-0.9822,-0.9822,-0.9822,-0.9822,-0.9822,-0.9822,-0.9822,-0.9822,-0.9822,-0.9822,-0.9822,-0.9822,-0.9822,-0.9822,-0.9822,-0.9822,-0.9822,-0.9822,-0.9822,-0.9822,-0.968,-0.953,-0.9374,-0.9282,-0.8957,-0.8484,-0.8208,-0.7285,-0.5831,-0.4131,-0.2897,-0.2034,-0.1049,-0.0432,0.0,0.0,0.0,0.0,0.0,0.0,0.0,0.0,0.0,0.0,0.0,0.0,0.0,0.0,0.0,0.0,0.0,-0.0062,-0.0062,-0.0062,-0.0185,-0.0308,-0.0617,-0.0741,-0.0864,-0.1173,-0.1296,-0.1667,-0.265,-0.4145,-0.5489,-0.6295,-0.6793,-0.7238,-0.7569,-0.7761,-0.8037,-0.8665,-0.8618,-0.8657,-0.8885,-0.8905,-0.8867,-0.8729,-0.7887,-0.6877,-0.5765,-0.3907,-0.2464,-0.1541,-0.0864,-0.0494,-0.0494,-0.0803,-0.0803,-0.0494,-0.0494,-0.0309,0.0,0.0,0.0,0.0,0.0,0.0,0.0,0.0,0.0,0.0,0.0,0.0,0.0,0.0,0.0,0.0,-0.9612,-0.9673,-0.9741,-0.9808,-0.9822,-0.9822,-0.9822,-0.9822,-0.9822,-0.9822,-0.9822,-0.9822,-0.9822,-0.9822,-0.9822,-0.9822,-0.9822,-0.9822,-0.9822,-0.9822,-0.9822,-0.9822,-0.9822,-0.9822,-0.9822,-0.9822,-0.9822,-0.9822,-0.9598,-0.9456,-0.9374,-0.903,-0.8555,-0.7998,-0.6771,-0.5495,-0.4239,-0.2978,-0.2096,-0.1419,-0.0741,-0.0309,0.0,0.0,0.0,0.0,0.0,0.0,0.0,0.0,0.0,0.0,0.0,0.0,0.0,0.0,0.0,0.0,0.0,0.0,0.0,0.0,0.0,-0.0062,-0.0185,-0.0247,-0.0309,-0.0432,-0.0617,-0.1111,-0.2282,-0.3615,-0.468,-0.5121,-0.5677,-0.6164,-0.6584,-0.6879,-0.7342,-0.8079,-0.8126,-0.8227,-0.8663,-0.8712,-0.8683,-0.8581,-0.7875,-0.695,-0.5937,-0.4195,-0.2895,-0.2034,-0.1358,-0.105,-0.105,-0.1358,-0.1235,-0.0741,-0.0741,-0.0496,0.0,0.0,0.0,0.0,0.0,0.0,0.0,0.0,0.0,0.0,0.0,0.0,0.0,0.0,0.0,0.0,-0.9652,-0.9747,-0.9822,-0.9822,-0.9822,-0.9822,-0.9822,-0.9822,-0.9822,-0.9822,-0.9822,-0.9822,-0.9822,-0.9822,-0.9822,-0.9822,-0.9822,-0.9822,-0.9822,-0.9822,-0.9822,-0.9822,-0.9822,-0.9822,-0.9822,-0.9822,-0.9822,-0.9822,-0.9557,-0.9415,-0.9258,-0.8708,-0.7979,-0.7036,-0.5161,-0.3827,-0.296,-0.2071,-0.1357,-0.0864,-0.0556,-0.0247,0.0,0.0,0.0,0.0,0.0,0.0,0.0,0.0,0.0,0.0,0.0,0.0,0.0,0.0,0.0,0.0,0.0,0.0,0.0,0.0,0.0,0.0,0.0,0.0,0.0,0.0,-0.0247,-0.0864,-0.1974,-0.2899,-0.3561,-0.3883,-0.4419,-0.4998,-0.5467,-0.5861,-0.6399,-0.7268,-0.7402,-0.768,-0.8276,-0.8318,-0.8318,-0.8318,-0.7755,-0.6963,-0.6048,-0.4466,-0.3255,-0.2652,-0.1975,-0.1543,-0.1482,-0.179,-0.1544,-0.0864,-0.0869,-0.0563,0.0,0.0,0.0,0.0,0.0,0.0,0.0,0.0,0.0,0.0,0.0,0.0,0.0,0.0,0.0,0.0,-0.9802,-0.9815,-0.9822,-0.9822,-0.9822,-0.9822,-0.9822,-0.9822,-0.9822,-0.9822,-0.9822,-0.9822,-0.9822,-0.9822,-0.9822,-0.9822,-0.9822,-0.9822,-0.9822,-0.9822,-0.9822,-0.9822,-0.9822,-0.9822,-0.9822,-0.9822,-0.9822,-0.9822,-0.9666,-0.934,-0.8916,-0.8533,-0.7374,-0.5557,-0.4027,-0.2966,-0.2287,-0.1164,-0.0617,-0.0494,-0.0185,0.0,0.0,0.0,0.0,0.0,0.0,0.0,0.0,0.0,0.0,0.0,0.0,0.0,0.0,0.0,0.0,0.0,0.0,0.0,0.0,0.0,0.0,0.0,0.0,0.0,0.0,0.0,-0.0247,-0.0617,-0.105,-0.1727,-0.2281,-0.2585,-0.32,-0.3753,-0.4049,-0.4549,-0.5197,-0.6044,-0.6359,-0.6832,-0.7616,-0.766,-0.766,-0.766,-0.7449,-0.6939,-0.6044,-0.4598,-0.3522,-0.296,-0.2282,-0.1788,-0.148,-0.1543,-0.1235,-0.0556,-0.0566,-0.0381,0.0,0.0,0.0,0.0,0.0,0.0,0.0,0.0,0.0,0.0,0.0,0.0,0.0,0.0,0.0,0.0,-0.9822,-0.9822,-0.9822,-0.9822,-0.9822,-0.9822,-0.9822,-0.9822,-0.9822,-0.9822,-0.9822,-0.9822,-0.9822,-0.9822,-0.9822,-0.9822,-0.9822,-0.9822,-0.9822,-0.9822,-0.9822,-0.9822,-0.9822,-0.9822,-0.9822,-0.9822,-0.9822,-0.9822,-0.968,-0.94,-0.8974,-0.8194,-0.6508,-0.4018,-0.2903,-0.1917,-0.1146,-0.0491,-0.0185,-0.0185,-0.0062,0.0,0.0,0.0,0.0,0.0,0.0,0.0,0.0,0.0,0.0,0.0,0.0,0.0,0.0,0.0,0.0,0.0,0.0,0.0,0.0,0.0,0.0,0.0,0.0,0.0,0.0,0.0,-0.0247,-0.0556,-0.0679,-0.1235,-0.1729,-0.1852,-0.2469,-0.3022,-0.333,-0.3743,-0.4298,-0.513,-0.5319,-0.5762,-0.673,-0.6993,-0.716,-0.7326,-0.7325,-0.6929,-0.6048,-0.513,-0.4304,-0.3574,-0.2899,-0.2344,-0.1788,-0.1605,-0.1173,-0.0494,-0.0502,-0.0318,0.0,0.0,0.0,0.0,0.0,0.0,0.0,0.0,0.0,0.0,0.0,0.0,0.0,0.0,0.0,0.0,-0.9822,-0.9822,-0.9822,-0.9822,-0.9822,-0.9822,-0.9822,-0.9822,-0.9822,-0.9822,-0.9822,-0.9822,-0.9822,-0.9822,-0.9822,-0.9822,-0.9822,-0.9822,-0.9822,-0.9822,-0.9822,-0.9822,-0.9822,-0.9822,-0.9822,-0.9822,-0.9761,-0.964,-0.954,-0.9168,-0.8522,-0.7087,-0.5178,-0.2903,-0.1978,-0.1149,-0.0425,-0.0123,0.0,0.0,0.0,0.0,0.0,0.0,0.0,0.0,0.0,0.0,0.0,0.0,0.0,0.0,0.0,0.0,0.0,0.0,0.0,0.0,0.0,0.0,0.0,0.0,0.0,0.0,0.0,0.0,0.0,0.0,-0.0185,-0.037,-0.037,-0.0803,-0.1235,-0.1235,-0.1667,-0.2159,-0.2406,-0.2775,-0.3298,-0.3923,-0.4189,-0.4654,-0.5652,-0.6005,-0.6376,-0.6877,-0.7099,-0.6814,-0.6053,-0.561,-0.4912,-0.3943,-0.3391,-0.2714,-0.1849,-0.1543,-0.0988,-0.037,-0.0378,-0.0256,0.0,0.0,0.0,0.0,0.0,0.0,0.0,0.0,0.0,0.0,0.0,0.0,0.0,0.0,0.0,0.0,-0.9822,-0.9822,-0.9822,-0.9822,-0.9822,-0.9822,-0.9822,-0.9822,-0.9822,-0.9822,-0.9822,-0.9822,-0.9822,-0.9822,-0.9822,-0.9822,-0.9822,-0.9822,-0.9822,-0.9822,-0.9822,-0.9822,-0.9822,-0.9822,-0.9822,-0.9822,-0.964,-0.9275,-0.9275,-0.8594,-0.715,-0.4854,-0.326,-0.2289,-0.1326,-0.073,-0.0494,-0.0123,0.0,0.0,0.0,0.0,0.0,0.0,0.0,0.0,0.0,0.0,0.0,0.0,0.0,0.0,0.0,0.0,0.0,0.0,0.0,0.0,0.0,0.0,0.0,0.0,0.0,0.0,0.0,0.0,0.0,0.0,0.0,0.0,0.0,-0.0309,-0.0494,-0.0494,-0.0803,-0.105,-0.105,-0.1604,-0.2084,-0.2294,-0.2911,-0.3627,-0.4427,-0.475,-0.5318,-0.6265,-0.6704,-0.6647,-0.6053,-0.5852,-0.5214,-0.3943,-0.364,-0.2837,-0.1541,-0.1173,-0.0679,0.0,0.0,0.0,0.0,0.0,0.0,0.0,0.0,0.0,0.0,0.0,0.0,0.0,0.0,0.0,0.0,0.0,0.0,0.0,-0.9822,-0.9822,-0.9822,-0.9822,-0.9822,-0.9822,-0.9822,-0.9822,-0.9822,-0.9822,-0.9822,-0.9822,-0.9822,-0.9822,-0.9822,-0.9822,-0.9822,-0.9822,-0.9822,-0.9822,-0.9822,-0.9822,-0.9822,-0.9822,-0.9822,-0.9822,-0.964,-0.9275,-0.9092,-0.7911,-0.5928,-0.4073,-0.2678,-0.1714,-0.098,-0.043,-0.0123,-0.0062,0.0,0.0,0.0,0.0,0.0,0.0,0.0,0.0,0.0,0.0,0.0,0.0,0.0,0.0,0.0,0.0,0.0,0.0,0.0,0.0,0.0,0.0,0.0,0.0,0.0,0.0,0.0,0.0,0.0,0.0,0.0,0.0,0.0,-0.0247,-0.0494,-0.0494,-0.0803,-0.0988,-0.0988,-0.1358,-0.1779,-0.1993,-0.2401,-0.2913,-0.3569,-0.4125,-0.4634,-0.5096,-0.5701,-0.6151,-0.635,-0.6145,-0.5516,-0.425,-0.3515,-0.2652,-0.1541,-0.0925,-0.0432,0.0,0.0,0.0,0.0,0.0,0.0,0.0,0.0,0.0,0.0,0.0,0.0,0.0,0.0,0.0,0.0,0.0,0.0,0.0,-0.9822,-0.9822,-0.9822,-0.9822,-0.9822,-0.9822,-0.9822,-0.9822,-0.9822,-0.9822,-0.9822,-0.9822,-0.9822,-0.9822,-0.9822,-0.9822,-0.9822,-0.9822,-0.9822,-0.9876,-0.9849,-0.9849,-0.9964,-0.9992,-0.9992,-0.9868,-0.9526,-0.9045,-0.7766,-0.6232,-0.4472,-0.2981,-0.1871,-0.113,-0.0565,-0.0188,0.0,0.0,0.0,0.0,0.0,0.0,0.0,0.0,0.0,0.0,0.0,0.0,0.0,0.0,0.0,0.0,0.0,0.0,0.0,0.0,0.0,0.0,0.0,0.0,0.0,0.0,0.0,0.0,0.0,0.0,0.0,0.0,0.0,0.0,0.0,-0.0185,-0.0309,-0.0309,-0.0494,-0.0617,-0.0617,-0.0926,-0.1169,-0.134,-0.1633,-0.2041,-0.2497,-0.3128,-0.3646,-0.4059,-0.4777,-0.5335,-0.5637,-0.5718,-0.5061,-0.3761,-0.3145,-0.2282,-0.1111,-0.0679,-0.0309,0.0,0.0,0.0,0.0,0.0,0.0,0.0,0.0,0.0,0.0,0.0,0.0,0.0,0.0,0.0,0.0,0.0,0.0,0.0,-0.9822,-0.9822,-0.9822,-0.9822,-0.9822,-0.9822,-0.9822,-0.9822,-0.9822,-0.9822,-0.9822,-0.9822,-0.9822,-0.9822,-0.9822,-0.9836,-0.9829,-0.9829,-0.9836,-0.9909,-0.999,-1.0004,-1.0202,-1.0283,-1.0276,-0.9888,-0.9248,-0.8438,-0.5652,-0.3857,-0.2967,-0.1579,-0.0828,-0.0517,-0.0129,0.0,0.0,0.0,0.0,0.0,0.0,0.0,0.0,0.0,0.0,0.0,0.0,0.0,0.0,0.0,0.0,0.0,0.0,0.0,0.0,0.0,0.0,0.0,0.0,0.0,0.0,0.0,0.0,0.0,0.0,0.0,0.0,0.0,0.0,0.0,0.0,0.0,0.0,0.0,0.0,0.0,0.0,-0.0309,-0.0494,-0.0494,-0.0732,-0.1027,-0.1329,-0.1907,-0.248,-0.3013,-0.3709,-0.4102,-0.4102,-0.4462,-0.4004,-0.2529,-0.2406,-0.1789,-0.0494,-0.0494,-0.0309,0.0,0.0,0.0,0.0,0.0,0.0,0.0,0.0,0.0,0.0,0.0,0.0,0.0,0.0,0.0,0.0,0.0,0.0,0.0,-0.9822,-0.9822,-0.9822,-0.9822,-0.9822,-0.9822,-0.9822,-0.9822,-0.9822,-0.9822,-0.9822,-0.9822,-0.9822,-0.9822,-0.9869,-0.9923,-0.989,-0.9869,-0.9923,-0.997,-1.0038,-1.0222,-1.0263,-1.0149,-0.9825,-0.95,-0.8464,-0.6719,-0.4721,-0.3322,-0.2566,-0.122,-0.0579,-0.0517,-0.0129,0.0,0.0,0.0,0.0,0.0,0.0,0.0,0.0,0.0,0.0,0.0,0.0,0.0,0.0,0.0,0.0,0.0,0.0,0.0,0.0,0.0,0.0,0.0,0.0,0.0,0.0,0.0,0.0,0.0,0.0,0.0,0.0,0.0,0.0,0.0,0.0,0.0,0.0,0.0,0.0,0.0,0.0,-0.0309,-0.0494,-0.0494,-0.08,-0.0982,-0.1105,-0.1467,-0.1768,-0.189,-0.2325,-0.2452,-0.2207,-0.2276,-0.2342,-0.2467,-0.1727,-0.105,-0.0494,-0.0247,-0.0062,0.0,0.0,0.0,0.0,0.0,0.0,0.0,0.0,0.0,0.0,0.0,0.0,0.0,0.0,0.0,0.0,0.0,0.0,0.0,-0.9822,-0.9822,-0.9822,-0.9822,-0.9822,-0.9822,-0.9822,-0.9822,-0.9822,-0.9822,-0.9822,-0.9849,-0.9856,-0.9862,-0.9985,-1.0141,-1.0012,-0.9992,-1.0148,-1.0215,-1.029,-1.0371,-1.0446,-1.0285,-0.9954,-0.9429,-0.7972,-0.5526,-0.3876,-0.2651,-0.1824,-0.0782,-0.0262,-0.0263,-0.0066,0.0,0.0,0.0,0.0,0.0,0.0,0.0,0.0,0.0,0.0,0.0,0.0,0.0,0.0,0.0,0.0,0.0,0.0,0.0,0.0,0.0,0.0,0.0,0.0,0.0,0.0,0.0,0.0,0.0,0.0,0.0,0.0,0.0,0.0,0.0,0.0,0.0,0.0,0.0,0.0,0.0,0.0,-0.0185,-0.0247,-0.0247,-0.0432,-0.0556,-0.0556,-0.0864,-0.1049,-0.1049,-0.1357,-0.1481,-0.1296,-0.1111,-0.1234,-0.1604,-0.105,-0.0617,-0.0247,-0.0062,0.0,0.0,0.0,0.0,0.0,0.0,0.0,0.0,0.0,0.0,0.0,0.0,0.0,0.0,0.0,0.0,0.0,0.0,0.0,0.0,-0.9822,-0.9822,-0.9822,-0.9822,-0.9822,-0.9822,-0.9822,-0.9822,-0.9829,-0.9849,-0.9856,-0.9917,-1.0004,-1.0024,-1.0148,-1.0297,-1.0188,-1.0175,-1.0304,-1.0426,-1.05,-1.0527,-1.0584,-1.0459,-1.0054,-0.905,-0.727,-0.4622,-0.3195,-0.1958,-0.0992,-0.033,0.0,0.0,0.0,0.0,0.0,0.0,0.0,0.0,0.0,0.0,0.0,0.0,0.0,0.0,0.0,0.0,0.0,0.0,0.0,0.0,0.0,0.0,0.0,0.0,0.0,0.0,0.0,0.0,0.0,0.0,0.0,0.0,0.0,0.0,0.0,0.0,0.0,0.0,0.0,0.0,0.0,0.0,0.0,0.0,0.0,0.0,0.0,0.0,0.0,0.0,0.0,-0.0247,-0.0432,-0.0432,-0.0679,-0.0864,-0.0864,-0.0556,-0.0433,-0.0434,-0.0434,-0.031,0.0,0.0,0.0,0.0,0.0,0.0,0.0,0.0,0.0,0.0,0.0,0.0,0.0,0.0,0.0,0.0,0.0,0.0,0.0,0.0,0.0,0.0,-0.9822,-0.9822,-0.9822,-0.9822,-0.9822,-0.9822,-0.9822,-0.9822,-0.9869,-0.9936,-0.995,-1.0011,-1.0229,-1.0243,-1.0304,-1.0446,-1.0439,-1.0432,-1.046,-1.048,-1.0548,-1.0677,-1.0445,-0.9987,-0.9316,-0.7116,-0.5305,-0.3957,-0.2476,-0.1539,-0.1074,-0.0335,0.0,0.0,0.0,0.0,0.0,0.0,0.0,0.0,0.0,0.0,0.0,0.0,0.0,0.0,0.0,0.0,0.0,0.0,0.0,0.0,0.0,0.0,0.0,0.0,0.0,0.0,0.0,0.0,0.0,0.0,0.0,0.0,0.0,0.0,0.0,0.0,0.0,0.0,0.0,0.0,0.0,0.0,0.0,0.0,0.0,0.0,0.0,0.0,0.0,0.0,0.0,-0.0062,-0.0062,-0.0062,-0.0123,-0.0185,-0.0185,-0.0123,-0.0062,-0.0063,-0.0063,-0.0064,0.0,0.0,0.0,0.0,0.0,0.0,0.0,0.0,0.0,0.0,0.0,0.0,0.0,0.0,0.0,0.0,0.0,0.0,0.0,0.0,0.0,0.0,-0.9822,-0.9822,-0.9822,-0.9822,-0.9822,-0.9822,-0.9822,-0.989,-0.9909,-0.9977,-1.0058,-1.0229,-1.0378,-1.0392,-1.0453,-1.0602,-1.0616,-1.0616,-1.0616,-1.0616,-1.0649,-1.0717,-1.0392,-0.9588,-0.8246,-0.6384,-0.4842,-0.3768,-0.2356,-0.1414,-0.1077,-0.0337,0.0,0.0,0.0,0.0,0.0,0.0,0.0,0.0,0.0,0.0,0.0,0.0,0.0,0.0,0.0,0.0,0.0,0.0,0.0,0.0,0.0,0.0,0.0,0.0,0.0,0.0,0.0,0.0,0.0,0.0,0.0,0.0,0.0,0.0,0.0,0.0,0.0,0.0,0.0,0.0,0.0,0.0,0.0,0.0,0.0,0.0,0.0,0.0,0.0,0.0,0.0,0.0,0.0,0.0,0.0,0.0,0.0,0.0,0.0,0.0,0.0,0.0,0.0,0.0,0.0,0.0,0.0,0.0,0.0,-0.0202,-0.0269,-0.0269,-0.0673,-0.0875,-0.0875,-0.0875,-0.0875,-0.0808,-0.0404,-0.0269,-0.0269,-0.0339,-0.0342,-0.0344,-0.9822,-0.9822,-0.9822,-0.9822,-0.9849,-0.9876,-0.9876,-1.0005,-1.0051,-1.0085,-1.0256,-1.0385,-1.0527,-1.0548,-1.0595,-1.0711,-1.0717,-1.0717,-1.0717,-1.0717,-1.0717,-1.0717,-1.012,-0.8989,-0.725,-0.5845,-0.4641,-0.3633,-0.2221,-0.1346,-0.1077,-0.0337,0.0,0.0,0.0,0.0,0.0,0.0,0.0,0.0,0.0,0.0,0.0,0.0,0.0,0.0,0.0,0.0,0.0,0.0,0.0,0.0,0.0,0.0,0.0,0.0,0.0,0.0,0.0,0.0,0.0,0.0,0.0,0.0,0.0,0.0,0.0,0.0,0.0,0.0,0.0,0.0,0.0,0.0,0.0,0.0,0.0,0.0,0.0,0.0,0.0,0.0,0.0,0.0,0.0,0.0,0.0,0.0,0.0,0.0,0.0,0.0,0.0,0.0,0.0,0.0,0.0,0.0,0.0,0.0,0.0,-0.0337,-0.0539,-0.0673,-0.1413,-0.1818,-0.1885,-0.1885,-0.1818,-0.1683,-0.0942,-0.0607,-0.0677,-0.0685,-0.0759,-0.0905,-0.9822,-0.9822,-0.9822,-0.9822,-0.9876,-0.997,-0.997,-1.0161,-1.031,-1.0439,-1.0466,-1.0534,-1.0683,-1.0704,-1.0711,-1.0717,-1.0717,-1.0717,-1.0717,-1.0717,-1.0717,-1.0717,-0.9455,-0.7989,-0.6518,-0.5108,-0.4034,-0.3228,-0.1816,-0.1144,-0.1077,-0.0337,0.0,0.0,0.0,0.0,0.0,0.0,0.0,0.0,0.0,0.0,0.0,0.0,0.0,0.0,0.0,0.0,0.0,0.0,0.0,0.0,0.0,0.0,0.0,0.0,0.0,0.0,0.0,0.0,0.0,0.0,0.0,0.0,0.0,0.0,0.0,0.0,0.0,0.0,0.0,0.0,0.0,0.0,0.0,0.0,0.0,0.0,0.0,0.0,0.0,0.0,0.0,0.0,0.0,0.0,0.0,0.0,0.0,0.0,0.0,0.0,0.0,0.0,0.0,0.0,0.0,0.0,0.0,0.0,0.0,-0.0337,-0.0673,-0.1077,-0.1815,-0.2353,-0.2623,-0.2623,-0.242,-0.2084,-0.1346,-0.1085,-0.1098,-0.11,-0.1326,-0.1711,-0.9822,-0.9822,-0.9849,-0.9883,-0.995,-1.0017,-1.0175,-1.0317,-1.0432,-1.0487,-1.0575,-1.0656,-1.0711,-1.0717,-1.0717,-1.0717,-1.0717,-1.0717,-1.0717,-1.0717,-1.0591,-1.0392,-0.9455,-0.8318,-0.7116,-0.5443,-0.4303,-0.3566,-0.1885,-0.1077,-0.1077,-0.0337,0.0,0.0,0.0,0.0,0.0,0.0,0.0,0.0,0.0,0.0,0.0,0.0,0.0,0.0,0.0,0.0,0.0,0.0,0.0,0.0,0.0,0.0,0.0,0.0,0.0,0.0,0.0,0.0,0.0,0.0,0.0,0.0,0.0,0.0,0.0,0.0,0.0,0.0,0.0,0.0,0.0,0.0,0.0,0.0,0.0,0.0,0.0,0.0,0.0,0.0,0.0,0.0,0.0,0.0,0.0,0.0,0.0,0.0,0.0,0.0,0.0,0.0,0.0,0.0,-0.0135,-0.0337,-0.0337,-0.0471,-0.0673,-0.1279,-0.175,-0.2153,-0.3293,-0.4034,-0.437,-0.437,-0.4168,-0.3701,-0.2784,-0.2325,-0.2202,-0.2518,-0.2834,-0.329,-0.9822,-0.9822,-0.9869,-0.9963,-1.0031,-1.0175,-1.0324,-1.0473,-1.0561,-1.0561,-1.0656,-1.0717,-1.0717,-1.0717,-1.0717,-1.0717,-1.0717,-1.0717,-1.0717,-1.0717,-1.0518,-1.0193,-0.9516,-0.8651,-0.7717,-0.5912,-0.4638,-0.3967,-0.2153,-0.1212,-0.1077,-0.0337,0.0,0.0,0.0,0.0,0.0,0.0,0.0,0.0,0.0,0.0,0.0,0.0,0.0,0.0,0.0,0.0,0.0,0.0,0.0,0.0,0.0,0.0,0.0,0.0,0.0,0.0,0.0,0.0,0.0,0.0,0.0,0.0,0.0,0.0,0.0,0.0,0.0,0.0,0.0,0.0,0.0,0.0,0.0,0.0,0.0,0.0,0.0,0.0,0.0,0.0,0.0,0.0,0.0,0.0,0.0,0.0,0.0,0.0,0.0,0.0,0.0,0.0,0.0,0.0,-0.0202,-0.0471,-0.0471,-0.0741,-0.1279,-0.1885,-0.2497,-0.3181,-0.4465,-0.5359,-0.5858,-0.5858,-0.5587,-0.5114,-0.4131,-0.367,-0.3623,-0.39,-0.4438,-0.5105,-0.9822,-0.9822,-0.9869,-0.9963,-1.0181,-1.0331,-1.0473,-1.0622,-1.0717,-1.0717,-1.0717,-1.0717,-1.0717,-1.0717,-1.0717,-1.0717,-1.0717,-1.0717,-1.0717,-1.0717,-1.0518,-1.0193,-0.9516,-0.8784,-0.8123,-0.6317,-0.5044,-0.4303,-0.249,-0.1414,-0.1077,-0.0337,0.0,0.0,0.0,0.0,0.0,0.0,0.0,0.0,0.0,0.0,0.0,0.0,0.0,0.0,0.0,0.0,0.0,0.0,0.0,0.0,0.0,0.0,0.0,0.0,0.0,0.0,0.0,0.0,0.0,0.0,0.0,0.0,0.0,0.0,0.0,0.0,0.0,0.0,0.0,0.0,0.0,0.0,0.0,0.0,0.0,0.0,0.0,0.0,0.0,0.0,0.0,0.0,0.0,0.0,0.0,0.0,0.0,0.0,0.0,0.0,0.0,0.0,0.0,0.0,-0.0202,-0.0471,-0.0539,-0.0875,-0.1616,-0.2021,-0.285,-0.3984,-0.5146,-0.608,-0.6786,-0.6786,-0.6577,-0.6093,-0.5045,-0.487,-0.5211,-0.5211,-0.5972,-0.705,-0.9822,-0.9849,-0.997,-1.0181,-1.0331,-1.048,-1.0629,-1.069,-1.0717,-1.0717,-1.0717,-1.0717,-1.0717,-1.0717,-1.0717,-1.0717,-1.0717,-1.0717,-1.0717,-1.0717,-1.0651,-1.0591,-1.012,-0.9522,-0.8784,-0.7381,-0.5994,-0.4706,-0.2962,-0.1732,-0.1108,-0.0346,0.0,0.0,0.0,0.0,0.0,0.0,0.0,0.0,0.0,0.0,0.0,0.0,0.0,0.0,0.0,0.0,0.0,0.0,0.0,0.0,0.0,0.0,0.0,0.0,0.0,0.0,0.0,0.0,0.0,0.0,0.0,0.0,0.0,0.0,0.0,0.0,0.0,0.0,0.0,0.0,0.0,0.0,0.0,0.0,0.0,0.0,-0.0066,-0.0331,-0.0331,-0.053,-0.1064,-0.1122,-0.1252,-0.1527,-0.1539,-0.1547,-0.1548,-0.1548,-0.1548,-0.1548,-0.1279,-0.1144,-0.1144,-0.0404,-0.0337,-0.0943,-0.1144,-0.1827,-0.2868,-0.348,-0.4398,-0.557,-0.6403,-0.7248,-0.7901,-0.7901,-0.7692,-0.7353,-0.7064,-0.6894,-0.6856,-0.7419,-0.804,-0.8646,-1.0005,-1.008,-1.0188,-1.0337,-1.0432,-1.0541,-1.0697,-1.0717,-1.0717,-1.0717,-1.0717,-1.0717,-1.0717,-1.0717,-1.0717,-1.0717,-1.0717,-1.0744,-1.0806,-1.0812,-1.0839,-1.0894,-1.0691,-1.0261,-0.9661,-0.8156,-0.6842,-0.567,-0.3558,-0.2102,-0.1333,-0.0421,0.0,0.0,0.0,0.0,0.0,0.0,0.0,0.0,0.0,0.0,0.0,0.0,0.0,0.0,0.0,0.0,0.0,0.0,0.0,0.0,0.0,0.0,0.0,0.0,0.0,0.0,0.0,0.0,0.0,0.0,0.0,0.0,0.0,0.0,0.0,0.0,0.0,0.0,0.0,0.0,0.0,0.0,0.0,-0.0067,-0.0202,-0.0202,-0.0337,-0.0673,-0.0875,-0.1144,-0.175,-0.1952,-0.222,-0.2554,-0.2622,-0.2623,-0.2625,-0.2625,-0.2625,-0.2625,-0.2356,-0.2159,-0.2103,-0.1424,-0.1221,-0.1561,-0.19,-0.2801,-0.4085,-0.4635,-0.5573,-0.677,-0.7336,-0.7992,-0.852,-0.852,-0.8379,-0.8247,-0.824,-0.8265,-0.8269,-0.8909,-0.9518,-1.0029,-1.0283,-1.029,-1.0337,-1.0466,-1.05,-1.0561,-1.0697,-1.0717,-1.0717,-1.0717,-1.0717,-1.0717,-1.0717,-1.0731,-1.0744,-1.0744,-1.0751,-1.0819,-1.0894,-1.09,-1.1023,-1.1158,-1.1241,-1.098,-1.0499,-0.8905,-0.7636,-0.6799,-0.4213,-0.2532,-0.1689,-0.0563,0.0,0.0,0.0,0.0,0.0,0.0,0.0,0.0,0.0,0.0,0.0,0.0,0.0,0.0,0.0,0.0,0.0,0.0,0.0,0.0,0.0,0.0,0.0,0.0,0.0,0.0,0.0,0.0,0.0,0.0,0.0,0.0,0.0,0.0,0.0,0.0,0.0,0.0,0.0,0.0,0.0,0.0,0.0,-0.0135,-0.0471,-0.0539,-0.0741,-0.1212,-0.1548,-0.1952,-0.2423,-0.2825,-0.3224,-0.3557,-0.3562,-0.3564,-0.3564,-0.3564,-0.3564,-0.3564,-0.3501,-0.3388,-0.3156,-0.3094,-0.2821,-0.2342,-0.2752,-0.3742,-0.5264,-0.5681,-0.6567,-0.7647,-0.8007,-0.8417,-0.8729,-0.8801,-0.8801,-0.8801,-0.8874,-0.9163,-0.9518,-0.9879,-1.0462,-1.1044,-1.0283,-1.0371,-1.0453,-1.0487,-1.0588,-1.0683,-1.0717,-1.0717,-1.0717,-1.0717,-1.0717,-1.0717,-1.0717,-1.0759,-1.0833,-1.0833,-1.1002,-1.1084,-1.1118,-1.1118,-1.1131,-1.1227,-1.1274,-1.1328,-1.1224,-0.9982,-0.8515,-0.6815,-0.5096,-0.3393,-0.1735,-0.0868,-0.0289,0.0,0.0,0.0,0.0,0.0,0.0,0.0,0.0,0.0,0.0,0.0,0.0,0.0,0.0,0.0,0.0,0.0,0.0,0.0,0.0,0.0,0.0,0.0,0.0,0.0,0.0,0.0,0.0,0.0,0.0,0.0,0.0,0.0,0.0,0.0,0.0,0.0,0.0,0.0,0.0,0.0,0.0,-0.0135,-0.0471,-0.0741,-0.1346,-0.2223,-0.2627,-0.3367,-0.458,-0.5503,-0.6231,-0.6564,-0.6573,-0.6577,-0.6577,-0.6577,-0.6577,-0.6577,-0.6107,-0.5808,-0.5758,-0.5335,-0.4463,-0.3211,-0.3906,-0.4914,-0.6182,-0.7102,-0.7865,-0.8472,-0.8832,-0.9064,-0.9157,-0.9518,-0.9663,-0.9663,-1.0245,-1.054,-1.0684,-1.1109,-1.1332,-1.1476,-1.0487,-1.0548,-1.0602,-1.0602,-1.067,-1.0717,-1.0717,-1.0717,-1.0717,-1.0717,-1.0717,-1.0751,-1.0819,-1.0833,-1.0907,-1.1043,-1.1118,-1.1261,-1.1267,-1.1274,-1.1307,-1.1375,-1.1457,-1.1497,-1.1497,-1.0714,-0.949,-0.7692,-0.587,-0.4151,-0.2622,-0.1604,-0.0948,-0.0584,-0.0584,-0.0438,-0.0292,-0.0292,-0.0292,-0.0292,-0.0292,-0.0365,-0.0584,-0.0365,-0.0292,-0.0292,-0.0073,-0.0146,-0.0292,-0.0292,-0.0511,-0.0876,-0.0803,-0.0803,-0.0803,-0.0803,-0.0584,-0.0292,-0.0292,-0.0146,-0.0073,-0.0219,-0.0292,-0.0219,-0.0073,0.0,0.0,0.0,0.0,0.0,0.0,0.0,-0.0069,-0.0204,-0.027,-0.0539,-0.1414,-0.175,-0.2289,-0.3568,-0.4037,-0.4836,-0.6235,-0.7102,-0.7636,-0.7969,-0.8046,-0.8051,-0.8051,-0.8051,-0.8076,-0.8132,-0.7781,-0.7653,-0.7543,-0.7248,-0.6587,-0.5703,-0.5672,-0.626,-0.7271,-0.8203,-0.8811,-0.9018,-0.9446,-0.9446,-0.9302,-0.9735,-0.9879,-0.9951,-1.0678,-1.0972,-1.1044,-1.126,-1.1188,-1.1109,-1.0717,-1.0717,-1.0717,-1.0717,-1.0717,-1.0717,-1.0717,-1.0717,-1.0731,-1.0758,-1.0758,-1.0819,-1.0968,-1.0941,-1.1084,-1.1226,-1.124,-1.1294,-1.1423,-1.143,-1.1484,-1.1613,-1.1619,-1.1619,-1.1619,-1.1188,-1.0317,-0.8791,-0.6692,-0.495,-0.3714,-0.2622,-0.1822,-0.1386,-0.1459,-0.124,-0.0875,-0.0802,-0.0802,-0.0875,-0.073,-0.0949,-0.1241,-0.0876,-0.073,-0.0657,-0.0439,-0.0586,-0.0878,-0.0803,-0.1313,-0.197,-0.1898,-0.197,-0.197,-0.1898,-0.146,-0.0948,-0.0875,-0.0657,-0.0438,-0.0802,-0.0875,-0.0802,-0.0438,-0.0292,-0.0219,-0.0219,-0.0219,-0.0291,-0.0288,-0.0358,-0.0497,-0.0764,-0.0887,-0.135,-0.2696,-0.2963,-0.3568,-0.4983,-0.5711,-0.6498,-0.774,-0.8225,-0.8579,-0.8906,-0.8984,-0.8995,-0.9018,-0.9018,-0.908,-0.9206,-0.916,-0.9065,-0.8981,-0.8931,-0.8775,-0.8502,-0.784,-0.7773,-0.8213,-0.9085,-0.9446,-0.9446,-0.9879,-0.9879,-0.9518,-0.9951,-1.0095,-1.0173,-1.0822,-1.1044,-1.0972,-1.0828,-1.0606,-1.0311,-1.0717,-1.0717,-1.0717,-1.0717,-1.0717,-1.0717,-1.0717,-1.0717,-1.0765,-1.0833,-1.0847,-1.0975,-1.1118,-1.1253,-1.1396,-1.1545,-1.1558,-1.1565,-1.1586,-1.1586,-1.1599,-1.1619,-1.1619,-1.1619,-1.1619,-1.1188,-1.0389,-0.923,-0.7928,-0.633,-0.4511,-0.4005,-0.3207,-0.2187,-0.255,-0.2477,-0.2041,-0.1677,-0.175,-0.2041,-0.1386,-0.1314,-0.1606,-0.1241,-0.1095,-0.117,-0.1483,-0.1784,-0.2072,-0.1684,-0.2114,-0.2771,-0.2771,-0.2992,-0.3214,-0.2847,-0.27,-0.2478,-0.2184,-0.204,-0.1968,-0.2041,-0.2041,-0.2041,-0.1968,-0.1532,-0.1022,-0.1022,-0.124,-0.1457,-0.1455,-0.1729,-0.1999,-0.2063,-0.2297,-0.2796,-0.3645,-0.4176,-0.505,-0.6527,-0.7841,-0.8823,-0.9359,-0.9703,-1.0047,-1.0386,-1.0386,-1.0445,-1.057,-1.0576,-1.071,-1.0849,-1.0633,-1.0505,-1.0472,-1.0298,-1.0221,-1.0167,-1.0078,-0.9502,-0.8652,-0.9807,-1.0167,-0.9879,-1.0534,-1.0678,-1.0383,-1.0678,-1.0828,-1.09,-1.1332,-1.1332,-1.09,-1.0317,-0.9807,-0.9446,-1.0717,-1.0717,-1.0717,-1.0717,-1.0717,-1.0717,-1.0717,-1.0792,-1.0806,-1.0873,-1.1016,-1.1124,-1.1274,-1.1423,-1.1545,-1.1613,-1.1619,-1.1619,-1.1619,-1.1619,-1.1619,-1.1619,-1.1619,-1.1619,-1.1619,-1.1404,-1.0972,-1.0245,-0.8868,-0.7421,-0.5967,-0.5604,-0.495,-0.4293,-0.4441,-0.4223,-0.3641,-0.35,-0.3429,-0.3358,-0.3065,-0.3137,-0.3429,-0.2846,-0.2773,-0.2927,-0.2916,-0.3133,-0.3457,-0.3508,-0.4158,-0.4965,-0.5183,-0.5399,-0.5396,-0.5247,-0.4589,-0.3857,-0.3712,-0.3348,-0.3057,-0.3496,-0.3641,-0.3714,-0.4148,-0.4005,-0.3496,-0.2404,-0.2258,-0.2404,-0.2695,-0.2828,-0.3097,-0.3502,-0.3676,-0.4308,-0.5683,-0.6061,-0.679,-0.8112,-0.9033,-0.963,-0.9968,-1.0178,-1.0437,-1.0779,-1.0921,-1.0995,-1.1063,-1.107,-1.1138,-1.1287,-1.1214,-1.1147,-1.1233,-1.1149,-1.0894,-1.0527,-1.0527,-1.0239,-0.9735,-1.0462,-1.0606,-1.0239,-1.0599,-1.0527,-1.0167,-1.0101,-1.0029,-1.0101,-1.0245,-0.9951,-0.9374,-0.9008,-0.8507,-0.8]}]]